     2              OBSERVATION DATA    GPS                 RINEX VERSION / TYPE
teqc 2000Feb29 Ken Austin CWU Geolo20000719 21:17:17UTC     PGM / RUN BY / DATE
                                                            COMMENT
teqc windowed: delta = 86400.000 sec                        COMMENT
teqc windowed: delta = 86400.000 sec                        COMMENT
teqc windowed: delta = 86400.000 sec                        COMMENT
teqc windowed: delta = 86400.000 sec                        COMMENT
teqc windowed: delta = 86400.000 sec                        COMMENT
teqc windowed: delta = 86400.000 sec                        COMMENT
teqc windowed: delta = 86400.000 sec                        COMMENT
teqc windowed: delta = 86400.000 sec                        COMMENT
teqc windowed: delta = 86400.000 sec                        COMMENT
teqc windowed: delta = 86400.000 sec                        COMMENT
teqc windowed: delta = 86400.000 sec                        COMMENT
teqc windowed: delta = 86400.000 sec                        COMMENT
teqc windowed: delta = 86400.000 sec                        COMMENT
teqc windowed: delta = 86400.000 sec                        COMMENT
teqc windowed: delta = 86400.000 sec                        COMMENT
teqc windowed: delta = 86400.000 sec                        COMMENT
teqc windowed: delta = 86400.000 sec                        COMMENT
Original Marker Name: DEER TEHACHAPI                        COMMENT
Campaign Name: CWU 2000 Post-Hector                         COMMENT
4-Character Station Name: DEER                              COMMENT
6-Character Antenna Code: DMRCHT                            COMMENT
Vertical Measurement Point: BCR                             COMMENT
Vertical Offset to Rinex Ref. Point: 0.0348                 COMMENT
Radial Measurement Point: ECF                               COMMENT
Radial Offset to Rinex Ref. Point: 0.1897                   COMMENT
Antenna Height from Field Measurement: 1.0490 m             COMMENT
Additional Antenna Identification Info.:                    COMMENT
Turborogue and Ashtech Choke Ring                           COMMENT
Original XYZ: -2494406.2645 -4592642.2459 3646609.3160      COMMENT
New XYZ position is based on association with SCEC monument COMMENT
E1E9Y1V1+0011. Position of that monument is believed to be  COMMENT
valid to within 1 m horizontally; vertical accuracy         COMMENT
should be no worse than 3-times this value.                 COMMENT
                                                            COMMENT
Revised Rinex header created by UCSD GPS archive for        COMMENT
GSAC on 10-Aug-2000 (2000:223) 01:32:58 GMT                 COMMENT
For assistance contact dagnew@ucsd.edu                      COMMENT
or anderson@python.ucsd.edu                                 COMMENT
                                                            COMMENT
DEER 1932                                                   MARKER NAME
DEER                                                        MARKER NUMBER
KA CENTRAL WASHINGTON UNIVERSITY                            OBSERVER / AGENCY
15468 TRIMBLE 4000 SSI NP 7.19; SP 3.04                     REC # / TYPE / VERS
138199 DORNE-MARGOL. TYPE T                                 ANT # / TYPE
 -2494405.3212 -4592641.3717  3646608.3332                  APPROX POSITION XYZ
        0.9969        0.0000        0.0000                  ANTENNA: DELTA H/E/N
     1     1     0                                          WAVELENGTH FACT L1/2
     9    L1    L2    C1    P2    P1    D1    D2    S1    S2# / TYPES OF OBSERV
    30                                                      INTERVAL
  2000     6    27     0     0   30.000000                  TIME OF FIRST OBS
  2000     6    27    23    59    0.000000                  TIME OF LAST OBS
                                                            END OF HEADER
 00  6 27  0  0 30.0050000  0  7G 3G15G21G25G29G31G11
     86645.45853                  26388341.0244
     -3766.4374                          5.5004
  -2066089.11358  -1584718.79257  21727822.2434   21727826.8844
     -2325.5004      -1812.0784         34.0004         30.0004
   8780133.77157   1407313.89256  23048068.7824   23048073.8564
     -1932.0004      -1505.4554         27.0004         20.7504
 -11421064.29357  -8793874.55956  23440233.6104   23440238.2164
      1604.1254       1249.9684         26.5004         21.0004
   8930485.34557   7008631.87056  22879023.6344   22879027.5134
     -2875.5474      -2240.6864         26.7504         23.7504
  11490353.70255   9432335.94355  25529977.5714   25529984.1224
     -3326.6724      -2592.2124          8.7504          6.7504
 -10968208.46057  -8396291.17256  23613384.2744   23613388.4114
      1524.5164       1187.9344         21.0004         17.0004
 00  6 27  0  1  0.0050000  0  7G 3G15G21G25G29G31G11
    199589.17542                  26409832.6034
     -3763.4694                          4.5004
  -1996050.03548  -1530142.93347  21741150.2354   21741154.6884
     -2344.1254      -1826.5914         34.0004         29.5004
   8838209.36047   1452567.55646  23059119.6734   23059124.9584
     -1940.0474      -1511.7254         26.2504         21.0004
 -11469015.44447  -8831239.04046  23431108.5564   23431113.5834
      1592.2664       1240.7264         25.5004         21.0004
   9016847.37647   7075926.92146  22895457.8684   22895461.4894
     -2882.2504      -2245.9094         27.5004         23.5004
  11590244.78545   9510172.97945  25548986.9784   25548993.7514
     -3333.0474      -2597.1794          9.2504          7.7504
 -11013756.63847  -8431783.22746  23604716.9934   23604720.6034
      1511.6884       1177.9384         22.2504         17.2504
 00  6 27  0  1 30.0050000  0  7G 3G15G21G25G29G31G11
    312444.71442     73273.62455  26431309.5484   26431320.7434
     -3760.4374      -2930.2114          4.7504          5.7504
  -1925450.30148  -1475130.19647  21754584.6884   21754589.2944
     -2362.7504      -1841.1044         33.7504         29.5004
   8896529.28947   1498011.62846  23070217.7514   23070223.4464
     -1948.1874      -1518.0684         26.2504         20.7504
 -11516607.94747  -8868324.04146  23422051.8214   23422057.2354
      1580.3134       1231.4124         25.0004         20.7504
   9103411.26548   7143379.28646  22911930.7284   22911934.1734
     -2888.9064      -2251.0964         28.0004         23.5004
  11690327.72045   9588159.53245  25568032.6424   25568039.4744
     -3339.3754      -2602.1104          9.0004          7.2504
 -11058916.23747  -8466972.50646  23596123.2904   23596126.7124
      1498.7194       1167.8334         22.2504         17.5004
 00  6 27  0  2  0.0050000  0  7G 3G15G21G25G29G31G11
    425209.19544    161141.90845  26452767.8844   26452779.7004
     -3757.2344      -2927.7154          6.7504          6.5004
  -1854291.09148  -1419681.50347  21768125.9704   21768130.7044
     -2381.2814      -1855.5444         33.7504         29.5004
   8955093.93347   1543646.36746  23081362.4934   23081367.6614
     -1956.2344      -1524.3384         27.2504         20.7504
 -11563839.75647  -8905127.99346  23413064.6034   23413069.3844
      1568.3754       1222.1104         26.7504         21.0004
   9190174.71547   7210987.13746  22928441.0794   22928444.5714
     -2895.4064      -2256.1614         27.7504         23.5004
  11790599.11245   9666292.92545  25587113.0484   25587121.2554
     -3345.4694      -2606.8594          8.7504          7.0004
 -11103685.16847  -8501857.36746  23587603.7824   23587607.7784
      1485.7814       1157.7524         21.7504         17.7504
 00  6 27  0  2 30.0050000  0  7G 3G15G21G25G29G31G11
    537877.18045    248935.10545  26474207.9784   26474217.6384
     -3754.0474      -2925.2314          8.2504          7.2504
  -1782576.01448  -1363799.67047  21781773.1424   21781777.8174
     -2399.8444      -1870.0084         34.0004         29.5004
   9013901.69647   1589470.55946  23092553.0714   23092557.7594
     -1964.3914      -1530.6944         26.5004         20.7504
 -11610710.91847  -8941650.92346  23404144.7744   23404149.5564
      1556.2504       1212.6624         26.2504         20.7504
   9277133.38147   7278747.10246  22944988.6104   22944992.1964
     -2901.9374      -2261.2504         26.7504         23.0004
  11891052.90045   9744568.42945  25606229.1884   25606236.7044
     -3351.5314      -2611.5834          9.0004          7.5004
 -11148063.84647  -8536438.13146  23579158.9384   23579162.7244
      1472.6724       1147.5374         22.5004         17.7504
 00  6 27  0  3  0.0050000  0  7G 3G15G21G25G29G31G11
    650446.38745    336651.28845  26495629.6814   26495640.8414
     -3750.4844      -2922.4554          8.2504          8.0004
  -1710305.93648  -1307485.37347  21795525.8534   21795530.3994
     -2418.1094      -1884.2414         34.0004         29.5004
   9072953.14747   1635484.65346  23103790.3214   23103795.4314
     -1972.3284      -1536.8794         26.5004         20.5004
 -11657219.08547  -8977890.98346  23395294.6104   23395299.7904
      1544.3284       1203.3734         26.5004         21.2504
   9364285.76747   7346658.02446  22961573.3214   22961577.0134
     -2908.1564      -2266.0964         27.0004         23.0004
  11991686.58645   9822984.18045  25625378.8994   25625387.2354
     -3357.2974      -2616.0754          8.2504          6.2504
 -11192049.54047  -8570712.66946  23570788.8534   23570792.6384
      1459.7344       1137.4554         22.5004         18.0004
 00  6 27  0  3 30.0050000  0  7G 3G15G21G25G29G31G11
    762914.77445    424288.93445  26517032.1184   26517043.1734
     -3747.3594      -2920.0204          9.0004          7.7504
  -1637481.60848  -1250739.19347  21809383.7284   21809388.2744
     -2436.8284      -1898.8274         34.0004         29.7504
   9132249.32347   1681689.41746  23115074.1734   23115079.1184
     -1980.7504      -1543.4424         26.5004         20.5004
 -11703361.56047  -9013846.11346  23386513.7044   23386518.3564
      1531.8444       1193.6444         26.2504         21.0004
   9451630.47647   7414718.80746  22978194.6814   22978198.2554
     -2914.7974      -2271.2704         27.0004         23.2504
  12092497.48345   9901537.93245  25644563.5324   25644572.5364
     -3363.4224      -2620.8484          9.0004          7.0004
 -11235639.57047  -8604678.91846  23562493.8684   23562497.7594
      1446.2504       1126.9484         22.5004         17.5004
 00  6 27  0  4  0.0050000  0  7G 3G15G21G25G29G31G11
    875279.41044    511845.74045  26538411.8214   26538427.3644
     -3743.7194      -2917.1834          6.5004          6.7504
  -1564104.01048  -1193561.88547  21823346.8764   21823351.7864
     -2455.1094      -1913.0724         33.7504         29.5004
   9191790.49047   1728085.08546  23126403.8134   23126409.3334
     -1988.7814      -1549.7004         25.0004         20.2504
 -11749136.26147  -9049514.65146  23377803.2984   23377808.3134
      1519.7034       1184.1844         27.0004         21.2504
   9539165.91947   7482928.20846  22994851.9464   22994855.5324
     -2920.9694      -2276.0804         27.0004         23.0004
  12193482.40245   9980227.34945  25663779.7354   25663788.5404
     -3369.0004      -2625.1954          8.7504          7.5004
 -11278831.72847  -8638335.12246  23554274.4854   23554277.9664
      1433.1094       1116.7094         22.5004         18.0004
 00  6 27  0  4 30.0050000  0  7G 3G15G21G25G29G31G11
    987538.18543    599320.01645  26559775.6184   26559788.1964
     -3740.2974      -2914.5174          6.0004          6.7504
  -1490173.93448  -1135954.08347  21837415.2044   21837419.9854
     -2473.6724      -1927.5374         33.7504         29.5004
   9251578.05647   1774672.76646  23137781.2434   23137787.0444
     -1997.1564      -1556.2264         24.7504         20.0004
 -11794540.66847  -9084894.64846  23369162.9154   23369168.3414
      1507.1414       1174.3954         26.2504         21.2504
   9626890.32747   7551284.86146  23011545.1574   23011548.7434
     -2927.4224      -2281.1084         26.5004         23.0004
  12294638.40445  10059050.00945  25683029.6104   25683038.9314
     -3374.7974      -2629.7124          8.2504          7.0004
 -11321623.55647  -8671679.38646  23546131.3684   23546135.3534
      1419.5634       1106.1534         22.7504         18.2504
 00  6 27  0  5  0.0050000  0  7G 3G15G21G25G29G31G11
   1099691.82044    686712.35245  26581117.9234   26581129.4814
     -3736.5474      -2911.5954          7.0004          6.2504
  -1415689.04648  -1077913.96347  21851589.5874   21851594.3684
     -2491.9224      -1941.7574         33.7504         29.2504
   9311615.71347   1821455.32246  23149206.1344   23149211.1264
     -2005.3124      -1562.5814         25.2504         20.0004
 -11839569.30447  -9119981.83646  23360594.5484   23360599.3174
      1494.8134       1164.7894         27.5004         21.5004
   9714805.28647   7619790.00246  23028275.1264   23028278.7944
     -2933.5164      -2285.8564         26.2504         22.5004
  12395965.81345  10138006.30545  25702309.4934   25702316.7744
     -3380.2814      -2633.9854          7.7504          6.7504
 -11364009.21947  -8704707.15846  23538065.7984   23538069.6424
      1406.1884       1095.7314         22.7504         18.0004
 00  6 27  0  5 30.0050000  0  7G 3G15G21G25G29G31G11
   1211735.14845    774018.81845  26602438.5244   26602444.1494
     -3732.9374      -2908.7824          7.7504          4.7504
  -1340652.79348  -1019444.19647  21865867.9934   21865873.0914
     -2510.4064      -1956.1614         33.2504         29.0004
   9371902.30647   1868431.85246  23160678.2594   23160683.9894
     -2013.7194      -1569.1314         25.0004         20.0004
 -11884222.35747  -9154776.36346  23352097.2744   23352102.2434
      1482.1254       1154.9034         27.2504         21.5004
   9802906.48747   7688440.25346  23045040.3214   23045043.9074
     -2939.8284      -2290.7754         26.5004         22.5004
  12497459.19445  10217091.86645  25721625.7514   25721636.5014
     -3385.8594      -2638.3324          8.7504          7.2504
 -11405988.92247  -8737418.58946  23530077.2284   23530080.9424
      1392.5004       1085.0654         22.7504         18.2504
 00  6 27  0  6  0.0050000  0  7G 3G15G21G25G29G31G11
   1323664.42945    861236.48945  26623738.7204   26623750.4074
     -3728.9064      -2905.6414         10.5004          5.5004
  -1265067.42948   -960546.55847  21880251.7984   21880256.5914
     -2528.5164      -1970.2724         33.7504         29.2504
   9432436.22547   1915601.10146  23172197.5794   23172202.7824
     -2021.7974      -1575.4264         25.2504         20.2504
 -11928498.79448  -9189277.41346  23343671.9154   23343676.7434
      1469.7194       1145.2354         28.0004         21.5004
   9891191.39947   7757233.66446  23061840.1034   23061843.9354
     -2945.7344      -2295.3774         25.7504         22.2504
  12599114.37445  10296303.54145  25740970.2594   25740976.9384
     -3391.0314      -2642.3624         10.0004          6.7504
 -11447561.42847  -8769812.72946  23522166.1034   23522170.0174
      1379.0634       1074.5944         22.7504         18.2504
 00  6 27  0  6 30.0050000  0  7G 3G15G21G25G29G31G11
   1435478.51045    948364.41745  26645015.4784   26645023.8604
     -3725.2504      -2902.7924         10.2504          5.5004
  -1188932.81248   -901220.93847  21894740.1104   21894744.7634
     -2547.0164      -1984.6874         34.0004         29.5004
   9493220.29047   1962965.26946  23183764.8764   23183770.0094
     -2030.3594      -1582.0984         26.5004         20.2504
 -11972394.90847  -9223482.11746  23335318.3374   23335323.1424
      1456.7814       1135.1544         27.5004         21.7504
   9979659.58147   7826169.88046  23078674.8374   23078678.7044
     -2952.0314      -2300.2844         25.0004         22.2504
  12700929.90745  10375640.14345  25760344.2984   25760350.2394
     -3396.5474      -2646.6604          8.7504          7.2504
 -11488722.89147  -8801886.56846  23514333.3764   23514337.3604
      1365.1254       1063.7344         23.0004         18.2504
 00  6 27  0  7  0.0050000  0  7G 3G15G21G25G29G31G11
   1547178.02345   1035402.96445  26666271.6734   26666281.9074
     -3721.3444      -2899.7484         10.2504          6.7504
  -1112246.93648   -841465.77047  21909332.7434   21909337.4194
     -2565.3444      -1998.9694         33.7504         29.0004
   9554258.47647   2010527.43946  23195379.8134   23195385.0994
     -2038.8284      -1588.6974         25.2504         20.0004
 -12015905.35147  -9257386.29646  23327038.3294   23327043.4034
      1443.9224       1125.1344         27.7504         22.0004
  10068312.46047   7895250.00746  23095545.3534   23095548.9034
     -2958.1254      -2305.0324         25.7504         22.2504
  12802905.54945  10455101.49345  25779749.3764   25779756.1734
     -3401.7974      -2650.7514          8.7504          7.2504
 -11529468.33047  -8833636.23046  23506580.1264   23506583.6884
      1351.2344       1052.9104         23.7504         19.0004
 00  6 27  0  7 30.0050000  0  7G 3G15G21G25G29G31G11
   1658756.66045   1122347.36745  26687503.9624   26687514.3254
     -3716.9374      -2896.3154          9.2504          6.5004
  -1035015.07348   -781285.16247  21924029.0874   21924033.9974
     -2583.1724      -2012.8614         33.2504         29.0004
   9615546.76747   2058284.50646  23207042.5954   23207047.6574
     -2046.8124      -1594.9194         25.2504         20.0004
 -12059031.66648  -9290991.16046  23318831.9314   23318836.8294
      1431.4224       1115.3944         28.2504         22.5004
  10157144.39147   7964469.65446  23112449.6734   23112453.1884
     -2963.7194      -2309.3914         26.5004         22.2504
  12905034.15145  10534682.03845  25799184.1734   25799190.9814
     -3406.4844      -2654.4034          9.2504          7.7504
 -11569798.92847  -8865062.64846  23498905.9934   23498909.3564
      1337.7194       1042.3784         24.5004         18.7504
 00  6 27  0  8  0.0050000  0  7G 3G15G21G25G29G31G11
   1770208.27245   1209192.78245  26708712.2124   26708723.9814
     -3713.1874      -2893.3934          8.0004          7.2504
   -957241.96748   -720682.80647  21938829.1964   21938834.1884
     -2601.7344      -2027.3254         33.5004         28.7504
   9677082.34947   2106234.26846  23218752.3994   23218757.9424
     -2055.6094      -1601.7744         25.2504         20.0004
 -12101775.39048  -9324297.89746  23310698.0794   23310703.0714
      1418.1094       1105.0204         28.5004         22.2504
  10246149.98547   8033824.63846  23129386.5244   23129390.0754
     -2970.0004      -2314.2864         26.0004         21.7504
  13007309.17145  10614376.69245  25818645.5564   25818652.7554
     -3411.8444      -2658.5804          9.2504          7.2504
 -11609716.25747  -8896167.02346  23491309.4154   23491313.3294
      1323.3914       1031.2134         23.7504         19.0004
 00  6 27  0  8 30.0050000  0  7G 3G15G21G25G29G31G11
   1881536.66344   1295942.19445  26729897.2434   26729904.1734
     -3709.0474      -2890.1664          6.2504          6.0004
   -878922.22948   -659654.50447  21953732.9704   21953737.9034
     -2619.9374      -2041.5104         33.7504         28.7504
   9738872.95647   2154382.74146  23230510.7904   23230516.2514
     -2064.1254      -1608.4094         24.5004         19.2504
 -12144127.58848  -9357299.54946  23302638.4624   23302643.1264
      1405.0004       1094.8054         28.5004         22.7504
  10335334.06047   8103318.69446  23146357.8924   23146361.1734
     -2975.9374      -2318.9124         26.0004         21.7504
  13109734.18645  10694188.25645  25838138.0714   25838145.5754
     -3416.8124      -2662.4514         10.0004          7.2504
 -11649211.56247  -8926942.55946  23483793.7434   23483797.5874
      1309.2664       1020.2074         24.2504         19.0004
 00  6 27  0  9  0.0050000  0  7G 3G15G21G25G29G31G11
   1992736.20444   1382591.18345  26751058.3604   26751072.7204
     -3704.4534      -2886.5874          6.5004          6.0004
   -800060.27148   -598203.70047  21968740.3134   21968744.9894
     -2637.7034      -2055.3534         33.7504         28.7504
   9800915.02347   2202727.15946  23242316.9464   23242322.1384
     -2072.2194      -1614.7164         24.7504         19.5004
 -12186089.52048  -9389997.10446  23294653.4314   23294658.4354
      1392.2504       1084.8704         28.2504         22.2504
  10424691.89047   8172948.13646  23163362.3454   23163366.1654
     -2981.4224      -2323.1864         25.5004         21.7504
  13212302.81145  10774111.68045  25857655.6734   25857663.4584
     -3421.2664      -2665.9214          9.5004          7.5004
 -11688285.75847  -8957389.95946  23476358.0634   23476362.0604
      1295.4694       1009.4564         24.2504         18.7504
 00  6 27  0  9 30.0050000  0  7G 3G15G21G25G29G31G11
   2103804.79343   1469138.17345  26772192.6344   26772208.4234
     -3700.0004      -2883.1174          6.0004          5.0004
   -720656.80448   -536330.94047  21983850.2284   21983855.0794
     -2655.7344      -2069.4034         33.7504         28.5004
   9863209.82147   2251268.51146  23254171.2904   23254176.7284
     -2080.6564      -1621.2914         24.7504         19.2504
 -12227658.65148  -9422388.57646  23286742.8134   23286747.6774
      1379.1414       1074.6554         28.2504         22.5004
  10514222.08747   8242711.88946  23180399.4074   23180403.1694
     -2987.1414      -2327.6424         25.2504         21.2504
  13315012.35145  10854144.96545  25877202.2824   25877210.3954
     -3425.9064      -2669.5374         11.2504          8.0004
 -11726936.19547  -8987507.15246  23469003.0564   23469006.8414
      1281.3134        998.4254         23.7504         18.5004
 00  6 27  0 10  0.0050000  0  6G15G21G25G29G31G11
   -640711.15048   -474035.69647  21999063.3134   21999068.3534
     -2673.7194      -2083.4174         33.7504         28.5004
   9925760.98747   2300009.63746  23266074.5564   23266080.0284
     -2089.1564      -1627.9144         25.2504         19.2504
 -12268831.08948  -9454470.93446  23278908.0174   23278912.9154
      1365.9224       1064.3554         28.2504         22.7504
  10603925.13047   8312610.34246  23197469.0484   23197472.7864
     -2992.7974      -2332.0504         25.0004         21.7504
  13417862.09545  10934287.38745  25896772.6424   25896780.4274
     -3430.4694      -2673.0934         10.5004          7.7504
 -11765158.36347  -9017290.62946  23461729.7434   23461733.3884
      1267.0634        987.3214         24.2504         19.0004
 00  6 27  0 10 30.0050000  0  6G15G21G25G29G31G11
   -560224.81748   -411319.14247  22014379.4154   22014384.4424
     -2692.0314      -2097.6874         33.5004         28.2504
   9988568.46647   2348950.46446  23278026.5564   23278031.8534
     -2098.0004      -1634.8054         25.2504         19.5004
 -12309604.49948  -9486242.36246  23271149.4314   23271154.1654
      1352.2814       1053.7264         29.5004         22.7504
  10693799.08947   8382641.96346  23214571.7674   23214575.3764
     -2998.7814      -2336.7134         25.0004         21.5004
  13520848.61945  11014536.53745  25916370.2744   25916376.9894
     -3435.2814      -2676.8434          9.5004          8.0004
 -11802950.22547  -9046738.80846  23454537.5634   23454541.6424
      1252.3914        975.8894         24.0004         19.0004
 00  6 27  0 11  0.0050000  0  6G15G21G25G29G31G11
   -479203.84648   -348185.98847  22029797.4154   22029802.3844
     -2709.6414      -2111.4084         33.7504         28.5004
  10051628.11147   2398087.79646  23290026.6344   23290031.8494
     -2106.2344      -1641.2224         25.5004         19.5004
 -12349981.38048  -9517704.80846  23263465.3534   23263470.0054
      1339.2194       1043.5474         28.5004         23.0004
  10783837.64547   8452801.84646  23231704.8134   23231708.7984
     -3004.0624      -2340.8284         24.2504         21.2504
  13623964.14445  11094886.10445  25935992.4384   25936000.0714
     -3439.3444      -2680.0084          9.7504          7.7504
 -11840314.29247  -9075853.62646  23447427.2674   23447430.9464
      1238.2664        964.8824         23.5004         19.0004
 00  6 27  0 11 30.0050000  0  6G15G21G25G29G31G11
   -397645.73948   -284634.27947  22045317.3994   22045322.2864
     -2727.5474      -2125.3614         33.7504         28.5004
  10114944.32947   2447425.05646  23302075.2904   23302080.3064
     -2114.8284      -1647.9184         25.0004         19.7504
 -12389956.32148  -9548854.05946  23255858.5244   23255863.2824
      1325.7664       1033.0644         28.7504         23.0004
  10874042.90747   8523091.61746  23248870.8214   23248874.6774
     -3009.6254      -2345.1624         24.7504         21.2504
  13727209.43745  11175336.81845  25955640.6104   25955650.2474
     -3443.6414      -2683.3564          9.2504          7.7504
 -11877244.50147  -9104630.39546  23440399.9384   23440403.7354
      1223.7504        953.5714         24.0004         19.5004
 00  6 27  0 12  0.0050000  0  6G15G21G25G29G31G11
   -315548.12848   -220662.17747  22060940.0174   22060945.0794
     -2745.3914      -2139.2654         33.2504         28.5004
  10178521.33447   2496965.53246  23314173.1964   23314178.5634
     -2123.4224      -1654.6144         24.5004         19.2504
 -12429523.48248  -9579685.54846  23248328.9704   23248333.8684
      1312.2344       1022.5204         28.7504         23.2504
  10964416.93547   8593512.91146  23266068.2904   23266072.3564
     -3015.1094      -2349.4364         24.7504         21.2504
  13830584.95645  11255889.02845  25975310.9624   25975318.9354
     -3447.8284      -2686.6194          9.7504          8.7504
 -11913735.17347  -9133064.65946  23433456.2434   23433460.0284
      1209.1564        942.2004         24.7504         19.2504
 00  6 27  0 12 30.0050000  0  6G15G21G25G29G31G11
   -232921.24748   -156277.65447  22076663.4934   22076668.4274
     -2763.2194      -2153.1574         33.7504         28.2504
  10242351.17047   2546703.01146  23326319.9544   23326325.5204
     -2132.0624      -1661.3474         24.7504         19.0004
 -12468689.50448  -9610204.47146  23240875.8764   23240880.5054
      1298.6414       1011.9284         29.5004         23.2504
  11054949.22047   8664057.50746  23283296.1574   23283299.9544
     -3020.5474      -2353.6734         24.7504         21.2504
  13934079.09245  11336533.59045  25995006.3134   25995014.1694
     -3451.9224      -2689.8094         10.0004          8.2504
 -11949792.81847  -9161161.50146  23426594.4234   23426598.1964
      1194.4844        930.7674         24.2504         19.5004
 00  6 27  0 13  0.0050000  0  6G15G21G25G29G31G11
   -149761.77148    -91478.12447  22092488.2044   22092493.1964
     -2780.7194      -2166.7944         33.5004         28.0004
  10306438.42947   2596641.08046  23338515.6104   23338520.4274
     -2140.4374      -1667.8734         25.5004         19.2504
 -12507447.46748  -9640405.41646  23233500.6884   23233505.2004
      1285.2194       1001.4694         30.2504         23.5004
  11145642.91647   8734727.88846  23300554.8374   23300558.5524
     -3025.6874      -2357.6794         24.7504         21.2504
  14037693.43445  11417271.88145  26014724.1344   26014733.2674
     -3455.6564      -2692.7194         10.5004          9.2504
 -11985410.36247  -9188915.39746  23419816.3994   23419820.4074
      1180.0004        919.4814         24.0004         19.0004
 00  6 27  0 13 30.0050000  0  6G15G21G25G29G31G11
    -66072.60048    -26265.84447  22108413.6264   22108418.5954
     -2798.4064      -2180.5764         33.5004         28.0004
  10370783.02247   2646779.68346  23350759.3924   23350764.9934
     -2149.0784      -1674.6064         23.7504         18.5004
 -12545796.69748  -9670287.87946  23226203.1494   23226207.5324
      1271.5004        990.7794         30.5004         24.0004
  11236495.10047   8805521.76046  23317843.2434   23317846.9814
     -3030.9844      -2361.8064         25.2504         21.0004
  14141423.85045  11498100.59145  26034462.3064   26034471.1454
     -3459.5314      -2695.7394          8.7504          8.0004
 -12020587.19847  -9216325.89146  23413122.7434   23413126.9744
      1165.2344        907.9754         24.7504         19.5004
 00  6 27  0 14  0.0050000  0  6G15G21G25G29G31G11
     18140.69648     39354.85947  22124438.7904   22124443.8534
     -2816.0314      -2194.3104         33.2504         27.7504
  10435381.38347   2697116.02346  23363051.9464   23363057.7944
     -2157.7034      -1681.3274         23.7504         18.7504
 -12583739.27348  -9699853.46646  23218982.4624   23218987.3954
      1257.7664        980.0774         29.7504         23.5004
  11327499.73147   8876434.42246  23335161.1344   23335164.5204
     -3036.2194      -2365.8854         25.0004         21.0004
  14245262.58345  11579013.71045  26054222.9934   26054230.9424
     -3463.2664      -2698.6494          9.2504          7.7504
 -12055325.13147  -9243394.38046  23406512.2594   23406516.1264
      1150.3914        896.4084         25.2504         19.5004
 00  6 27  0 14 30.0050000  0  6G15G21G25G29G31G11
    102884.51948    105388.95447  22140565.3844   22140570.4584
     -2833.7344      -2208.1054         33.5004         27.7504
  10500241.54047   2747656.35946  23375394.9624   23375400.2004
     -2166.4844      -1688.1704         24.5004         19.2504
 -12621265.34348  -9729094.50446  23211841.1814   23211846.3374
      1243.7974        969.1924         29.0004         23.7504
  11418663.22147   8947470.88146  23352508.6734   23352512.5874
     -3041.5314      -2370.0244         24.0004         20.5004
  14349214.46145  11660015.02845  26074003.7354   26074012.0014
     -3467.0314      -2701.5834          9.0004          8.0004
 -12089614.47947  -9270113.33146  23399987.1184   23399991.0204
      1135.3594        884.6964         24.7504         19.7504
 00  6 27  0 15  0.0050000  0  6G15G21G25G29G31G11
    188160.86148    171837.99447  22156793.1104   22156798.0204
     -2851.2664      -2221.7654         33.5004         27.7504
  10565367.94947   2798404.16946  23387788.3924   23387793.9814
     -2175.1874      -1694.9514         24.7504         19.2504
 -12658369.37948  -9758006.68546  23204781.2204   23204785.5914
      1229.8754        958.3444         30.7504         24.2504
  11509987.59147   9018632.69546  23369887.4464   23369891.2434
     -3046.6724      -2374.0304         24.2504         20.7504
  14453280.40745  11741105.15045  26093808.0014   26093817.6854
     -3470.5944      -2704.3594          9.0004          7.7504
 -12123449.18247  -9296478.00546  23393548.6184   23393552.5324
      1120.3594        873.0074         24.7504         19.7504
 00  6 27  0 15 30.0050000  0  6G15G21G25G29G31G11
    273954.71548    238690.29447  22173118.5714   22173123.8564
     -2868.6414      -2235.3044         32.7504         27.5004
  10630747.74147   2849349.42046  23400229.4784   23400235.0204
     -2183.7974      -1701.6604         24.2504         19.0004
 -12695062.84248  -9786598.93846  23197798.6494   23197802.8564
      1216.0164        947.5454         31.2504         24.2504
  11601457.54947   9089907.95746  23387293.4934   23387297.1034
     -3051.6254      -2377.8904         24.0004         20.2504
  14557443.75245  11822271.25045  26113629.2354   26113639.0134
     -3473.9224      -2706.9524          8.0004          7.7504
 -12156840.80947  -9322497.43046  23387194.4464   23387198.7004
      1105.4224        861.3684         25.0004         19.5004
 00  6 27  0 16  0.0050000  0  6G15G21G25G29G31G11
    360271.72148    305950.24647  22189544.6264   22189549.5954
     -2885.8124      -2248.6854         33.5004         27.5004
  10696389.08047   2900498.47946  23412720.5564   23412725.9814
     -2192.2814      -1708.2714         24.0004         18.7504
 -12731336.68148  -9814864.21946  23190895.4464   23190900.0634
      1202.2344        936.8064         30.2504         24.2504
  11693078.76947   9161301.07446  23404728.4784   23404732.5324
     -3056.4224      -2381.6274         23.7504         20.5004
  14661708.39245  11903516.27145  26133470.3684   26133478.7984
     -3477.0314      -2709.3754          8.2504          8.0004
 -12189780.01847  -9348164.31346  23380926.4234   23380930.0674
      1090.5474        849.7774         25.2504         20.0004
 00  6 27  0 16 30.0050000  0  6G15G21G25G29G31G11
    447110.58348    373616.83347  22206069.5714   22206074.5404
     -2903.2034      -2262.2364         33.5004         27.5004
  10762292.01547   2951851.37446  23425261.2744   23425266.4424
     -2201.0314      -1715.0894         24.0004         18.7504
 -12767188.81748  -9842800.89346  23184073.1814   23184077.6814
      1188.1254        925.8124         30.7504         24.5004
  11784849.61747   9232810.79146  23422191.8924   23422195.8294
     -3061.3914      -2385.4994         24.2504         20.5004
  14766071.47745  11984837.97945  26153330.3294   26153341.6884
     -3480.2664      -2711.8954          7.7504          8.0004
 -12222264.51947  -9373476.89146  23374744.3294   23374747.8684
      1075.3134        837.9064         25.2504         20.2504
 00  6 27  0 17  0.0050000  0  6G15G21G25G29G31G11
    534470.06248    441689.10347  22222693.3454   22222698.2554
     -2920.6874      -2275.8604         32.7504         27.5004
  10828457.59347   3003408.92046  23437852.7204   23437857.8414
     -2209.9224      -1722.0174         24.2504         18.5004
 -12802617.08048  -9870407.28346  23177331.6424   23177336.2474
      1173.8284        914.6714         32.0004         24.7504
  11876769.27947   9304436.47246  23439683.6574   23439687.6534
     -3066.4694      -2389.4564         24.0004         20.5004
  14870530.26145  12066234.29145  26173209.0794   26173218.3064
     -3483.5624      -2714.4644          8.7504          7.7504
 -12254291.95547  -9398433.30846  23368650.1104   23368653.7904
      1059.9064        825.9014         25.7504         20.2504
 00  6 27  0 17 30.0050000  0  6G15G21G25G29G31G11
    622348.73548    510165.93947  22239416.3454   22239421.6424
     -2937.9844      -2289.3384         33.2504         27.2504
  10894886.29947   3055171.51046  23450493.4544   23450498.3414
     -2218.7344      -1728.8844         23.5004         18.2504
 -12837619.15648  -9897681.57246  23170670.5014   23170675.0834
      1159.5474        903.5434         31.2504         24.5004
  11968835.88747   9376176.64746  23457203.5094   23457207.6454
     -3071.3754      -2393.2794         23.7504         20.2504
  14975082.01845  12147703.00145  26193103.5634   26193112.6614
     -3486.6564      -2716.8754          7.5004          7.5004
 -12285860.13747  -9423031.87346  23362642.7824   23362646.6384
      1044.5164        813.9084         25.2504         20.2504
 00  6 27  0 18  0.0050000  0  6G15G21G25G29G31G11
    710749.17048    579049.34147  22256238.3214   22256243.4894
     -2955.3754      -2302.8904         33.0004         27.2504
  10961583.08847   3107142.99446  23463185.4464   23463191.0364
     -2227.7194      -1735.8854         23.5004         18.2504
 -12872189.31848  -9924619.30746  23164091.9704   23164096.3764
      1145.1094        892.2934         31.2504         25.0004
  12061052.20147   9448033.47746  23474751.5484   23474755.5444
     -3076.3754      -2397.1754         23.0004         20.0004
  15079728.09445  12229245.24745  26213018.3134   26213024.4894
     -3489.7504      -2719.2864          8.0004          7.2504
 -12316962.38147  -9447267.36346  23356724.2594   23356727.9854
      1028.9384        801.7694         25.5004         20.2504
 00  6 27  0 18 30.0060000  0  6G15G21G25G29G31G11
    799667.22248    648336.08047  22273159.0294   22273163.8934
     -2972.3754      -2316.1364         33.2504         27.0004
  11028545.48947   3159321.44046  23475927.9674   23475933.2874
     -2236.3914      -1742.6424         23.5004         18.2504
 -12906331.87848  -9951223.84846  23157595.1784   23157599.4084
      1130.8914        881.2134         32.2504         25.2504
  12153414.13747   9520003.78846  23492327.5454   23492331.6234
     -3080.9844      -2400.7674         23.0004         19.7504
  15184463.55244  12310857.09245  26232947.8654   26232956.2254
     -3492.4694      -2721.4044          6.2504          6.2504
 -12347603.49847  -9471143.54046  23350893.3114   23350897.4594
      1013.6254        789.8384         25.5004         20.2504
 00  6 27  0 19  0.0060000  0  6G15G21G25G29G31G11
    889096.18248    718020.93047  22290176.4364   22290181.7214
     -2989.4844      -2329.4684         32.2504         27.0004
  11095770.44047   3211704.47346  23488720.4824   23488725.9784
     -2245.2194      -1749.5214         23.2504         18.0004
 -12940041.58848  -9977491.10346  23151180.0844   23151184.7134
      1116.4694        869.9764         31.5004         25.2504
  12245915.25947   9592082.55846  23509929.7324   23509933.7644
     -3085.7034      -2404.4444         23.0004         19.5004
  15289279.17543  12392531.40345  26252894.2094   26252901.9364
     -3495.1724      -2723.5114          6.0004          6.2504
 -12377778.31347  -9494656.35646  23345151.6314   23345155.0184
       998.0634        777.7114         26.5004         20.5004
 00  6 27  0 19 30.0060000  0  6G15G21G25G29G31G11
    979038.71748    788105.97347  22307292.0924   22307297.4474
     -3006.5004      -2342.7274         32.0004         26.7504
  11163261.46247   3264294.83646  23501563.5844   23501569.2094
     -2254.0314      -1756.3884         23.2504         18.0004
 -12973316.28048 -10003419.37846  23144848.1864   23144852.6864
      1102.0164        858.7134         31.5004         25.0004
  12338558.11147   9664271.76846  23527559.4754   23527563.5414
     -3090.3124      -2408.0364         23.2504         19.7504
  15394176.63444  12474269.52545  26272856.1934   26272865.1974
     -3497.7974      -2725.5564          7.2504          7.5004
 -12407484.49347  -9517804.00146  23339498.4044   23339502.3424
       982.5004        765.5844         25.7504         20.7504
 00  6 27  0 20  0.0060000  0  6G15G21G25G29G31G11
   1069494.56248    858590.99147  22324505.3734   22324510.7524
     -3023.7194      -2356.1444         32.5004         26.7504
  11231021.42647   3317094.76746  23514457.8734   23514463.8144
     -2263.1414      -1763.4864         23.0004         18.0004
 -13006153.25848 -10029006.57747  23138599.8964   23138603.9284
      1087.2664        847.2204         32.7504         25.7504
  12431342.68247   9736571.41146  23545215.8814   23545219.3384
     -3095.1564      -2411.8104         23.5004         19.7504
  15499154.31244  12556070.12545  26292832.6004   26292843.3034
     -3500.5624      -2727.7114          6.5004          7.5004
 -12436718.70847  -9540583.89346  23333935.5064   23333938.9284
       966.6094        753.2024         26.7504         20.7504
 00  6 27  0 20 30.0060000  0  6G15G21G25G29G31G11
   1160460.45248    929473.45247  22341815.9754   22341820.8614
     -3040.6414      -2369.3304         33.2504         26.7504
  11299049.02647   3370103.22846  23527403.3574   23527409.3224
     -2272.0164      -1770.4024         23.2504         18.0004
 -13038551.97248 -10054252.28146  23132434.2484   23132438.8654
      1072.6724        835.8484         32.0004         25.5004
  12524266.09947   9808979.23046  23562898.1394   23562902.2754
     -3099.7034      -2415.3534         22.0004         19.5004
  15604207.81043  12637929.79545  26312821.5614   26312831.8654
     -3502.9844      -2729.5984          5.7504          6.7504
 -12465480.31147  -9562995.51246  23328462.1624   23328465.8654
       950.8594        740.9294         26.2504         21.0004
 00  6 27  0 21  0.0060000  0  6G15G21G25G29G31G11
   1251937.25948   1000754.02547  22359223.3574   22359228.3964
     -3057.6564      -2382.5894         32.5004         26.7504
  11367347.04247   3423322.40946  23540399.8264   23540405.3464
     -2281.0474      -1777.4394         22.7504         18.0004
 -13070508.32648 -10079153.27647  23126353.5144   23126357.8734
      1057.8914        824.3304         33.2504         26.0004
  12617328.80147   9881495.60046  23580607.7324   23580611.0844
     -3104.3444      -2418.9694         22.7504         19.2504
  15709336.34644  12719847.97645  26332828.8654   26332838.5254
     -3505.4374      -2731.5104          6.2504          5.0004
 -12493765.07947  -9585035.56646  23323079.9204   23323083.8344
       934.9064        728.4984         26.2504         21.0004
 00  6 27  0 21 30.0060000  0  6G15G21G25G29G31G11
   1343915.39948   1072425.25547  22376726.1394   22376731.4364
     -3074.4844      -2395.7024         32.2504         26.2504
  11435908.42747   3476746.81346  23553447.0144   23553452.3224
     -2289.9844      -1784.4034         23.5004         17.7504
 -13102028.31948 -10103714.25247  23120354.8264   23120359.1394
      1043.1724        812.8614         32.0004         25.7504
  12710521.82847   9954113.52046  23598341.3504   23598345.6504
     -3108.7974      -2422.4394         21.5004         18.7504
  15814529.22144  12801816.19245  26352847.0214   26352856.1664
     -3507.6724      -2733.2514          7.2504          6.7504
 -12521578.46947  -9606708.31346  23317787.0614   23317791.0214
       919.0474        716.1404         26.5004         21.0004
 00  6 27  0 22  0.0060000  0  6G15G21G25G29G31G11
   1436399.62948   1144490.83147  22394325.2254   22394330.6274
     -3091.2034      -2408.7304         32.0004         26.2504
  11504740.32847   3530381.99646  23566544.9124   23566549.9284
     -2298.8914      -1791.3434         23.0004         18.0004
 -13133102.95648 -10127928.20147  23114441.6464   23114446.0884
      1028.3914        801.3434         32.5004         26.0004
  12803850.28047  10026836.95146  23616101.3814   23616105.4244
     -3113.1724      -2425.8484         21.7504         19.0004
  15919790.25244  12883837.61045  26372876.5064   26372889.0024
     -3509.7974      -2734.9074          6.7504          6.2504
 -12548911.77547  -9628006.98346  23312585.3424   23312589.1154
       903.1094        703.7224         25.5004         20.7504
 00  6 27  0 22 30.0060000  0  6G15G21G25G29G31G11
   1529387.31848   1216948.71547  22412020.4044   22412025.6194
     -3107.8914      -2421.7334         32.2504         26.5004
  11573842.50947   3584227.80046  23579694.8034   23579700.5574
     -2307.8284      -1798.3084         22.7504         17.7504
 -13163731.71448 -10151794.71147  23108613.1544   23108617.8074
      1013.5784        789.8014         32.5004         26.2504
  12897311.88647  10099664.15946  23633886.5684   23633890.5294
     -3117.5164      -2429.2334         22.0004         19.0004
  16025115.69844  12965909.22445  26392918.9824   26392930.6004
     -3511.8124      -2736.4774          7.0004          6.7504
 -12575764.12047  -9648930.87046  23307476.2954   23307479.8464
       887.1414        691.2784         27.0004         20.7504
 00  6 27  0 23  0.0060000  0  6G15G21G25G29G31G11
   1622875.91648   1289796.92547  22429810.5294   22429815.8734
     -3124.6564      -2434.7974         31.7504         26.2504
  11643214.41347   3638283.75646  23592895.9984   23592901.6584
     -2316.9224      -1805.3944         22.7504         17.7504
 -13193913.66748 -10175313.06047  23102869.8734   23102874.2794
       998.5784        778.1134         32.7504         26.2504
  12990904.22647  10172593.18746  23651697.1394   23651700.3384
     -3121.9224      -2432.6664         22.2504         19.5004
  16130501.60645  13048027.94945  26412974.9904   26412984.9554
     -3513.8594      -2738.0724          8.2504          7.5004
 -12602134.67847  -9669479.34446  23302457.8894   23302461.3814
       870.9384        678.6534         27.0004         21.5004
 00  6 27  0 23 30.0060000  0  6G15G21G25G29G31G11
   1716865.02748   1363035.12747  22447695.9044   22447701.3074
     -3141.0944      -2447.6064         31.5004         26.0004
  11712857.88447   3692551.34546  23606148.9364   23606154.0684
     -2325.7974      -1812.3094         23.0004         17.7504
 -13223645.63048 -10198480.76747  23097211.7404   23097215.9944
       983.7344        766.5464         32.2504         26.0004
  13084627.01047  10245623.94246  23669531.5064   23669535.4554
     -3126.0474      -2435.8814         21.5004         19.0004
  16235946.22944  13130192.42445  26433039.3184   26433050.5374
     -3515.5624      -2739.3994          6.5004          5.7504
 -12628019.94647  -9689649.66346  23297532.1394   23297535.6784
       854.9384        666.1854         27.2504         21.2504
 00  6 27  0 24  0.0060000  0  6G15G21G25G29G31G11
   1811350.73048   1436660.29947  22465676.6074   22465681.8224
     -3157.7814      -2460.6094         32.5004         25.7504
  11782771.44047   3747029.39346  23619452.7794   23619458.5804
     -2334.9844      -1819.4684         22.2504         17.5004
 -13252928.14748 -10221298.26447  23091639.1004   23091643.7874
       968.5634        754.7244         31.7504         26.2504
  13178476.61047  10318753.47546  23687390.5614   23687394.7914
     -3130.4534      -2439.3144         21.5004         18.7504
  16341444.29945  13212398.46645  26453116.7014   26453125.0724
     -3517.4844      -2740.8974          9.0004          7.0004
 -12653420.06647  -9709441.95546  23292698.5294   23292702.0684
       838.5314        653.4014         27.0004         21.2504
 00  6 27  0 24 30.0060000  0  6G15G21G25G29G31G11
   1906335.23548   1510674.15347  22483751.4904   22483756.6464
     -3174.4534      -2473.6004         32.0004         26.0004
  11852959.93447   3801721.66846  23632809.8734   23632815.3814
     -2344.2034      -1826.6524         23.2504         17.5004
 -13281755.16748 -10243760.82047  23086153.9284   23086158.1004
       953.2664        742.8044         32.7504         26.5004
  13272455.79447  10391983.98646  23705274.2794   23705277.9944
     -3134.7974      -2442.6994         21.7504         18.5004
  16446996.88945  13294647.05945  26473200.9904   26473209.0574
     -3519.3124      -2742.3214          7.5004          5.7504
 -12678328.84947  -9728851.38046  23287958.1624   23287961.9594
       822.0634        640.5684         26.5004         21.2504
 00  6 27  0 25  0.0060000  0  6G15G21G25G29G31G11
   2001813.50448   1585072.74947  22501920.1704   22501925.6784
     -3190.8284      -2486.3604         31.5004         25.7504
  11923420.24647   3856625.75446  23646217.7714   23646223.0684
     -2353.2344      -1833.6894         22.2504         17.2504
 -13310128.08648 -10265869.53247  23080754.5454   23080758.8574
       938.1724        731.0434         33.2504         26.5004
  13366560.07247  10465311.98046  23723181.5534   23723185.8894
     -3138.8914      -2445.8894         21.5004         18.5004
  16552598.27645  13376933.62745  26493297.8114   26493311.8534
     -3520.8444      -2743.5154          7.7504          6.0004
 -12702747.63047  -9747878.98246  23283311.5924   23283315.0144
       805.7664        627.8694         27.2504         21.5004
 00  6 27  0 25 30.0060000  0  6G15G21G25G29G31G11
   2097781.49648   1659852.94546  22520182.3034   22520188.0214
     -3207.1414      -2499.0714         31.2504         25.5004
  11994151.30547   3911740.80746  23659677.3424   23659683.0724
     -2362.2814      -1840.7394         22.7504         17.2504
 -13338047.49448 -10287624.86447  23075441.5764   23075446.1114
       923.0004        719.2214         32.2504         26.5004
  13460785.73447  10538734.54746  23741112.0294   23741115.9904
     -3142.9374      -2449.0424         21.2504         18.5004
  16658243.23745  13459254.19645  26513401.8504   26513413.4434
     -3522.2814      -2744.6354          9.0004          6.5004
 -12726676.76247  -9766525.04246  23278757.9204   23278761.2134
       789.3594        615.0854         27.0004         21.5004
 00  6 27  0 26  0.0060000  0  6G15G21G25G29G31G11
   2194236.49948   1735012.64046  22538537.3264   22538542.7054
     -3222.9064      -2511.3564         31.7504         25.5004
  12065152.64147   3967066.47246  23673188.3344   23673194.1464
     -2370.8754      -1847.4354         22.0004         16.7504
 -13365512.37648 -10309026.01847  23070215.1004   23070219.4714
       908.2664        707.7394         32.5004         26.7504
  13555130.73447  10612250.10546  23759066.0374   23759069.9394
     -3146.4374      -2451.7694         22.0004         18.2504
  16763928.26045  13541605.96945  26533512.2404   26533525.2754
     -3523.0944      -2745.2684          8.7504          6.2504
 -12750114.65847  -9784788.32746  23274297.9044   23274301.3854
       773.4384        602.6794         27.2504         21.5004
 00  6 27  0 26 30.0060000  0  6G15G21G25G29G31G11
   2291176.54948   1810550.28346  22556984.2644   22556989.6894
     -3239.5004      -2524.2864         31.2504         25.2504
  12136424.84347   4022603.20146  23686750.9594   23686756.4204
     -2380.3444      -1854.8134         21.7504         17.2504
 -13392521.14248 -10330071.76547  23065075.5064   23065079.8074
       892.5784        695.5154         32.5004         26.5004
  13649593.40747  10685857.35046  23777041.2484   23777045.3384
     -3150.7974      -2455.1664         21.2504         18.2504
  16869649.91745  13623986.30745  26553630.2954   26553637.8464
     -3524.7504      -2746.5584          8.5004          6.5004
 -12773059.88947  -9802667.71746  23269931.6314   23269935.2404
       756.5004        589.4814         27.2504         21.7504
 00  6 27  0 27  0.0060000  0  6G15G21G25G29G31G11
   2388600.62248   1886465.09746  22575523.5064   22575528.8964
     -3255.6414      -2536.8634         30.7504         25.0004
  12207968.71347   4078351.62946  23700365.4434   23700370.8934
     -2389.4534      -1861.9124         22.2504         17.5004
 -13419071.28448 -10350760.13247  23060023.4284   23060027.8114
       877.2194        683.5474         33.2504         27.2504
  13744173.10547  10759555.79046  23795039.6154   23795043.1074
     -3154.7194      -2458.2224         22.0004         18.5004
  16975406.28945  13706393.68645  26573755.4904   26573764.8114
     -3525.8754      -2747.4354          8.2504          6.2504
 -12795509.99547  -9820161.28246  23265659.3894   23265663.3384
       739.9384        576.5754         27.2504         21.7504
 00  6 27  0 27 30.0060000  0  6G15G21G25G29G31G11
   2486512.70248   1962760.17046  22594155.6004   22594160.8854
     -3271.8124      -2549.4644         30.7504         25.0004
  12279790.67947   4134316.75146  23714032.5144   23714038.0924
     -2398.6724      -1869.0954         21.2504         16.7504
 -13445155.47548 -10371085.41547  23055059.6934   23055063.7604
       861.7194        671.4694         33.5004         26.7504
  13838874.25447  10833348.87246  23813060.3574   23813063.7094
     -3158.6874      -2461.3154         21.5004         18.2504
  17081200.23645  13788830.39145  26593887.5214   26593896.3384
     -3527.0314      -2748.3364          8.7504          6.0004
 -12817457.21847  -9837262.99846  23261482.9904   23261486.8814
       723.1884        563.5234         27.7504         22.0004
 00  6 27  0 28  0.0060000  0  6G15G21G25G29G31G11
   2584909.66948   2039433.08046  22612879.8034   22612885.4284
     -3287.9224      -2562.0174         30.2504         24.7504
  12351890.20247   4190498.16146  23727752.8734   23727758.7564
     -2407.9064      -1876.2914         21.5004         16.5004
 -13470773.05048 -10391047.10847  23050184.5924   23050189.0104
       846.1724        659.3554         33.0004         27.0004
  13933694.51947  10907234.76746  23831103.6864   23831107.6464
     -3162.6094      -2464.3714         21.2504         18.0004
  17187027.97845  13871293.31345  26614027.6704   26614039.7324
     -3528.0784      -2749.1524         11.2504          6.2504
 -12838900.50148  -9853972.02846  23257402.7954   23257406.2644
       706.3914        550.4344         28.7504         22.2504
 00  6 27  0 28 30.0060000  0  6G15G21G25G29G31G11
   2683787.14248   2116480.41246  22631695.7014   22631701.2564
     -3303.8754      -2574.4484         30.5004         25.0004
  12424264.99547   4246894.04446  23741525.2874   23741530.7954
     -2417.0624      -1883.4254         21.5004         17.0004
 -13495925.16048 -10410646.10247  23045398.3574   23045402.7284
       830.6724        647.2774         33.2504         27.2504
  14028629.84847  10981210.31746  23849169.8034   23849174.5374
     -3166.3914      -2467.3174         21.0004         18.0004
  17292883.91045  13953778.28845  26634170.3424   26634178.9124
     -3528.9374      -2749.8214          9.7504          6.2504
 -12859840.67348  -9870289.03346  23253417.7324   23253421.4594
       689.6414        537.3824         28.0004         22.0004
 00  6 27  0 29  0.0060000  0  6G15G21G25G29G31G11
   2783136.58248   2193895.50746  22650601.5534   22650607.0844
     -3319.5004      -2586.6234         30.5004         24.5004
  12496909.44747   4303500.06346  23755349.3034   23755354.8114
     -2426.0004      -1890.3904         22.0004         17.0004
 -13520616.45648 -10429886.01947  23040699.6234   23040703.8074
       815.3444        635.3334         33.5004         27.2504
  14123672.49347  11055269.49846  23867255.1074   23867259.5844
     -3169.8594      -2470.0204         20.2504         18.0004
  17398758.71345  14036277.99645  26654317.2954   26654332.3574
     -3529.4374      -2750.2114          7.5004          6.0004
 -12880282.44448  -9886217.66846  23249527.8654   23249531.3934
       673.0634        524.4644         28.2504         22.0004
 00  6 27  0 29 30.0060000  0  6G15G21G25G29G31G11
   2882964.62748   2271683.53646  22669598.0534   22669603.5024
     -3335.3914      -2599.0064         30.0004         24.5004
  12569832.59647   4360323.24446  23769225.8504   23769231.8144
     -2435.2504      -1897.5974         21.0004         16.7504
 -13544836.46048 -10448758.69947  23036090.6864   23036094.7524
       799.6254        623.0844         33.2504         27.5004
  14218829.54647  11129417.80346  23885363.1464   23885367.5064
     -3173.6094      -2472.9424         20.2504         18.2504
  17504657.89444  14118796.61545  26674467.6544   26674479.7404
     -3530.1724      -2750.7834          7.2504          5.2504
 -12900215.51248  -9901749.91246  23245734.7484   23245738.4394
       656.1254        511.2664         28.2504         22.0004
 00  6 27  0 30  0.0060000  0  6G15G21G25G29G31G11
   2983263.15748   2349838.18646  22688684.1934   22688689.8774
     -3351.3444      -2611.4374         29.7504         24.2504
  12643028.91047   4417359.28346  23783154.9904   23783160.8964
     -2444.6874      -1904.9514         21.2504         16.5004
 -13568589.93148 -10467267.84447  23031570.5534   23031575.0884
       783.7344        610.7024         33.2504         27.5004
  14314093.66147  11203649.54546  23903491.0294   23903495.4244
     -3177.4694      -2475.9504         20.0004         18.0004
  17610572.73445  14201327.56045  26694624.3734   26694635.0184
     -3530.9844      -2751.4164          8.2504          6.2504
 -12919644.13747  -9916889.08946  23242037.2254   23242040.8814
       638.9384        497.8734         27.7504         22.0004
 00  6 27  0 30 30.0060000  0  6G15G21G25G29G31G11
   3084038.08348   2428364.04946  22707861.1464   22707866.7834
     -3367.1564      -2623.7584         30.0004         24.2504
  12716506.81447   4474614.75246  23797137.4904   23797143.0334
     -2454.0314      -1912.2324         21.5004         16.2504
 -13591867.42848 -10485406.09847  23027141.0764   23027145.2954
       767.8914        598.3564         33.7504         27.7504
  14409471.42147  11277969.83446  23921641.3264   23921645.5924
     -3181.2034      -2478.8604         20.0004         17.7504
  17716508.03445  14283874.31445  26714783.9044   26714795.3464
     -3531.5474      -2751.8554          7.7504          7.5004
 -12938558.41747  -9931627.46846  23238437.9124   23238441.6154
       621.7974        484.5174         27.2504         22.0004
 00  6 27  0 31  0.0060000  0  6G15G21G25G29G31G11
   3185276.91048   2507251.39546  22727126.2644   22727131.6074
     -3382.6094      -2635.8004         30.0004         24.0004
  12790256.26047   4532081.80446  23811171.1004   23811176.9244
     -2463.1094      -1919.3064         21.0004         16.5004
 -13614677.70648 -10503180.29447  23022800.1074   23022804.3614
       752.2664        586.1814         33.2504         27.7504
  14504950.99847  11352369.46346  23939810.6464   23939814.9244
     -3184.6094      -2481.5144         20.0004         17.5004
  17822450.75444  14366426.87645  26734943.6934   26734955.0884
     -3531.7664      -2752.0254          6.5004          6.2504
 -12956967.19148  -9945971.95246  23234935.1624   23234938.7604
       604.9064        471.3564         28.0004         22.2504
 00  6 27  0 31 30.0060000  0  6G15G21G25G29G31G11
   3286986.92848   2586505.89846  22746481.0294   22746486.6664
     -3398.2344      -2647.9754         29.7504         24.2504
  12864286.65347   4589767.77246  23825259.2484   23825264.7564
     -2472.4374      -1926.5754         21.5004         16.7504
 -13637009.88748 -10520581.94647  23018550.1314   23018554.7364
       736.3594        573.7874         32.5004         27.5004
  14600540.50546  11426854.74346  23958000.4984   23958004.4594
     -3188.2194      -2484.3264         19.7504         17.5004
  17928407.10445  14448990.02445  26755107.9204   26755121.3534
     -3532.1414      -2752.3174          7.5004          6.0004
 -12974859.53648  -9959914.03246  23231530.5924   23231534.4004
       587.7034        457.9504         29.0004         22.5004
 00  6 27  0 32  0.0060000  0  6G15G21G25G29G31G11
   3389158.78048   2666120.27446  22765924.1074   22765929.6274
     -3413.5164      -2659.8824         30.2504         24.0004
  12938591.25747   4647667.41146  23839398.7644   23839404.3184
     -2481.5164      -1933.6494         21.0004         16.5004
 -13658870.49648 -10537616.13447  23014390.8574   23014395.0184
       720.6884        561.5754         33.7504         28.0004
  14696231.17646  11501418.86746  23976210.0924   23976214.3344
     -3191.4844      -2486.8714         19.7504         17.2504
  18034366.86544  14531555.89645  26775269.8654   26775275.4084
     -3532.1254      -2752.3054          7.2504          5.2504
 -12992240.96548  -9973457.98946  23228222.6544   23228226.3934
       570.7194        444.7164         28.0004         22.5004
 00  6 27  0 32 30.0060000  0  6G15G21G25G29G31G11
   3491789.51748   2746092.21846  22785453.6314   22785458.9394
     -3428.4374      -2671.5104         29.7504         24.0004
  13013170.09347   4705780.72546  23853590.7794   23853596.3814
     -2490.3284      -1940.5154         21.2504         16.5004
 -13680258.52448 -10554282.07247  23010320.3964   23010324.4284
       705.2344        549.5334         33.5004         28.0004
  14792020.62946  11576059.94846  23994438.1464   23994442.3654
     -3194.4064      -2489.1484         19.5004         16.7504
  18140326.17444  14614121.54345  26795432.6234   26795441.6864
     -3531.7664      -2752.0254          6.5004          5.7504
 -13009110.41347  -9986602.99546  23225012.4754   23225016.4124
       553.9694        431.6644         27.7504         22.2504
 00  6 27  0 33  0.0060000  0  6G15G21G25G29G31G11
   3594880.75748   2826422.99646  22805071.2794   22805077.2564
     -3444.1414      -2683.7464         28.7504         23.7504
  13088027.05147   4764110.77646  23867835.5214   23867841.3224
     -2500.0004      -1948.0524         20.2504         16.2504
 -13701168.56248 -10570575.57347  23006341.1074   23006345.5614
       688.9064        536.8104         33.2504         28.0004
  14887911.76646  11650780.28046  24012685.6074   24012689.8264
     -3198.1724      -2492.0824         19.5004         16.7504
  18246286.20543  14696687.51645  26815597.3344   26815608.3894
     -3532.0784      -2752.2694          5.5004          4.5004
 -13025462.69448  -9999345.02246  23221900.6394   23221904.3424
       536.3134        417.9064         28.0004         22.5004
 00  6 27  0 33 30.0060000  0  6G15G21G25G29G31G11
   3698430.13648   2907110.77246  22824776.0614   22824781.9784
     -3459.2504      -2695.5194         29.2504         23.7504
  13163162.37047   4822657.73846  23882133.3734   23882139.3964
     -2509.1414      -1955.1754         21.0004         16.5004
 -13721599.51148 -10586495.73747  23002453.3574   23002457.5534
       673.0474        524.4524         33.7504         28.0004
  14983902.78646  11725578.43546  24030952.1154   24030956.2524
     -3201.3594      -2494.5664         19.5004         17.0004
  18352243.99043  14779251.87745  26835759.7564   26835770.3304
     -3531.8124      -2752.0624          5.2504          5.7504
 -13041296.33848 -10011682.91546  23218887.8574   23218891.2444
       519.1254        404.5134         28.5004         22.7504
 00  6 27  0 34  0.0060000  0  6G15G21G25G29G31G11
   3802433.81148   2988152.53546  22844568.0064   22844573.3854
     -3474.3444      -2707.2814         30.2504         23.7504
  13238574.74047   4881420.56946  23896483.4984   23896489.4514
     -2518.3754      -1962.3704         20.0004         16.0004
 -13741551.87948 -10602042.98447  22998656.9204   22998661.1624
       657.0784        512.0094         34.0004         28.2504
  15079990.47146  11800451.91446  24049236.9044   24049241.2174
     -3204.5164      -2497.0254         19.5004         17.5004
  18458194.63242  14861810.63545  26855922.0924   26855934.3894
     -3531.5474      -2751.8554          4.7504          5.0004
 -13056611.52248 -10023616.81446  23215973.3964   23215976.8534
       501.8444        391.0474         28.5004         22.7504
 00  6 27  0 34 30.0060000  0  6G15G21G25G29G31G11
   3906883.72848   3069542.02046  22864443.9204   22864449.2054
     -3489.2814      -2718.9204         30.0004         23.5004
  13314258.59247   4940394.93746  23910886.3814   23910892.2404
     -2527.5314      -1969.5054         21.0004         16.2504
 -13761030.12348 -10617220.78047  22994949.9904   22994953.8934
       641.1414        499.5904         33.7504         28.2504
  15176167.78846  11875395.22746  24067538.4124   24067543.6974
     -3207.5944      -2499.4244         18.5004         16.7504
     17651.47053  14944356.06845  26876082.2094   26876089.2794
     -3531.0784      -2751.4894          5.0004          6.0004
 -13071412.46148 -10035150.00546  23213156.7484   23213160.0064
       484.5784        377.5934         28.7504         22.5004
 00  6 27  0 35  0.0060000  0  6G15G21G25G29G31G11
   4011786.63948   3151284.49146  22884406.2564   22884412.0104
     -3504.3124      -2730.6334         29.5004         23.5004
  13390223.54847   4999588.35246  23925342.1624   23925347.7284
     -2536.8594      -1976.7744         21.0004         16.2504
 -13780023.49948 -10632020.76247  22991335.4984   22991339.7404
       624.9844        487.0014         33.7504         28.5004
  15272442.55046  11950414.49246  24085859.7404   24085863.5144
     -3210.7814      -2501.9074         19.5004         17.0004
    123576.44343  15026894.91345  26896239.2714   26896253.8894
     -3530.6094      -2751.1244          5.2504          5.7504
 -13085688.49348 -10046274.16646  23210440.1074   23210443.8344
       467.0784        363.9574         28.5004         22.5004
 00  6 27  0 35 30.0060000  0  6G15G21G25G29G31G11
   4117141.04448   3233378.76846  22904454.2874   22904460.1584
     -3519.2504      -2742.2734         28.5004         22.7504
  13466470.40046   5059001.43946  23939850.8264   23939856.9324
     -2546.2034      -1984.0544         19.7504         16.0004
 -13798530.14648 -10646441.47947  22987813.9044   22987818.0184
       608.8444        474.4244         33.7504         28.2504
  15368813.99746  12025509.07746  24104198.8184   24104203.2714
     -3213.9064      -2504.3434         19.7504         17.0004
    229489.55143  15109424.39245  26916395.1394   26916410.1664
     -3530.1564      -2750.7714          6.0004          6.2504
 -13099437.43748 -10056987.62346  23207823.8344   23207827.3034
       449.5784        350.3214         29.0004         22.5004
 00  6 27  0 36  0.0060000  0  6G30G15G21G25G29G11
     -1909.02354                  26917915.6544
       476.3914                          6.5004
   4222941.39148   3315820.53446  22924587.7794   22924593.5454
     -3534.0624      -2753.8154         29.0004         23.2504
  13542996.16847   5118631.83746  23954413.3814   23954419.2054
     -2555.4844      -1991.2874         20.0004         15.5004
 -13816552.37148 -10660484.71947  22984384.5924   22984388.3424
       592.6724        461.8224         34.0004         28.7504
  15465277.28946  12100675.24646  24122554.8814   24122558.9594
     -3216.9374      -2506.7054         18.7504         16.2504
 -13112661.20048 -10067291.85046  23205307.5534   23205310.9514
       432.0474        336.6604         28.7504         22.7504
 00  6 27  0 36 30.0060000  0  6G30G15G21G25G29G11
    -16018.53044                  26915229.6314
       464.4844                          6.5004
   4329193.82948   3398614.57546  22944807.1624   22944812.6234
     -3549.1724      -2765.5884         29.2504         23.0004
  13619809.32847   5178486.18646  23969030.4284   23969036.2054
     -2565.1564      -1998.8234         20.0004         15.7504
 -13834080.23048 -10674142.73647  22981049.0294   22981052.8964
       576.0944        448.9044         34.0004         28.5004
  15561839.75946  12175918.69746  24140930.3114   24140934.1194
     -3220.2974      -2509.3224         19.2504         16.5004
 -13125349.87948 -10077179.11846  23202892.8964   23202896.4824
       414.1094        322.6834         28.7504         22.7504
 00  6 27  0 37  0.0060000  0  6G30G15G21G25G29G11
    -29780.65543                  26912611.8344
       452.7974                          5.7504
   4435887.10448   3481752.12446  22965110.4124   22965115.8504
     -3563.9064      -2777.0704         29.5004         22.7504
  13696901.75847   5238558.14346  23983700.6394   23983706.5454
     -2574.5474      -2006.1404         20.2504         16.0004
 -13851121.32248 -10687421.46847  22977805.8114   22977810.0534
       559.7664        436.1814         33.7504         28.5004
  15658491.22046  12251231.48246  24159322.1544   24159326.6894
     -3223.3444      -2511.6964         18.7504         16.5004
 -13137510.78648 -10086655.14446  23200578.7484   23200582.3224
       396.3914        308.8764         28.7504         23.0004
 00  6 27  0 37 30.0060000  0  6G30G15G21G25G29G11
    -43185.33744     -6582.81555  26910060.5534   26910066.9634
       440.9224        343.5754          6.2504          5.5004
   4543026.65148   3565237.41446  22985498.0144   22985503.7444
     -3578.6564      -2788.5634         28.2504         22.5004
  13774281.39647   5298853.90246  23998425.6704   23998431.8464
     -2584.0474      -2013.5434         20.0004         15.7504
 -13867666.80648 -10700314.00647  22974657.4204   22974661.7094
       543.3134        423.3604         34.0004         28.7504
  15755238.02546  12326618.56646  24177732.3114   24177736.2714
     -3226.3914      -2514.0714         19.2504         16.5004
 -13149134.88648 -10095712.88046  23198366.7174   23198370.1624
       378.5634        294.9844         28.7504         23.0004
 00  6 27  0 38  0.0060000  0  6G30G15G21G25G29G11
    -56238.95444    -16754.33145  26907575.9204   26907579.9634
       429.1094        334.3714          6.2504          5.7504
   4650601.54247   3649061.95046  23005968.4124   23005974.4004
     -3593.2034      -2799.8994         27.0004         22.2504
  13851939.51946   5359366.66246  24013203.8264   24013209.7914
     -2593.4064      -2020.8364         19.0004         15.5004
 -13883724.59948 -10712826.52247  22971602.1004   22971605.7564
       526.9694        410.6254         34.0004         29.0004
  15852070.09146  12402072.10246  24196159.0144   24196163.2444
     -3229.2814      -2516.3234         18.5004         16.0004
 -13160229.22648 -10104357.81046  23196255.6314   23196259.2754
       360.8134        281.1534         29.0004         23.0004
 00  6 27  0 38 30.0060000  0  6G30G15G21G25G29G11
    -68935.95844    -26647.98045  26905160.3964   26905164.4514
       417.3594        325.2154          7.2504          6.0004
   4758612.51348   3733226.27746  23026522.9904   23026528.6394
     -3607.4844      -2811.0274         28.5004         22.2504
  13929879.87746   5420099.36946  24028034.4674   24028040.2444
     -2602.5784      -2027.9834         18.7504         15.5004
 -13899289.85148 -10724955.23247  22968639.5214   22968643.4594
       510.7344        397.9754         33.7504         28.7504
  15948989.32946  12477593.56646  24214602.4594   24214606.4904
     -3231.9694      -2518.4174         18.7504         16.2504
 -13170789.38348 -10112586.49046  23194245.8264   23194249.3424
       343.2034        267.4314         28.2504         23.0004
 00  6 27  0 39  0.0060000  0  7G30G15G21G25G29G31G11
    -81279.08544    -36265.92445  26902811.3574   26902818.1664
       405.2034        315.7434          6.7504          6.2504
   4867051.84447   3817724.37846  23047157.9824   23047163.9244
     -3622.0624      -2822.3864         27.5004         22.5004
  14008097.34947   5481047.97846  24042919.8034   24042925.4984
     -2612.1874      -2035.4714         20.2504         16.0004
 -13914366.80148 -10736703.45247  22965770.4514   22965774.6354
       494.1094        385.0204         34.0004         28.7504
  16045989.27446  12553177.90946  24233060.7954   24233065.0844
     -3234.9694      -2520.7554         18.2504         16.2504
     81059.19854                  27057364.1544
     -3524.2344                          7.2504
 -13180819.25348 -10120401.96446  23192337.1934   23192340.9674
       325.1724        253.3814         28.5004         23.0004
 00  6 27  0 39 30.0060000  0  7G30G15G21G25G29G31G11
    -93256.95244    -45599.20145  26900532.2324   26900540.9904
       393.2344        306.4164          7.0004          6.2504
   4975926.50547   3902561.71146  23067876.4124   23067882.1784
     -3636.2974      -2833.4784         27.7504         22.2504
  14086601.58047   5542220.03946  24057858.9204   24057864.5574
     -2621.5004      -2042.7274         21.0004         15.5004
 -13928945.45748 -10748063.39847  22962996.3504   22963000.4514
       477.7344        372.2614         34.0004         29.0004
  16143077.66746  12628831.18146  24251536.0454   24251539.9364
     -3237.6414      -2522.8374         18.2504         16.0004
    186764.72745                  27077479.1544
     -3522.8444                          8.2504
 -13190308.31148 -10127796.02946  23190531.4904   23190534.9824
       307.3754        239.5134         28.7504         23.2504
 00  6 27  0 40  0.0060000  0  7G30G15G21G25G29G31G11
   -104865.04743    -54644.32145  26898322.9044   26898330.0684
       380.7344        296.6764          5.5004          6.0004
   5085236.32547   3987738.11546  23088677.5064   23088682.9434
     -3650.8754      -2844.8384         27.5004         22.2504
  14165394.74546   5603617.26646  24072852.0144   24072857.8964
     -2631.2344      -2050.3124         19.2504         15.2504
 -13943022.26348 -10759032.28647  22960317.7094   22960321.6934
       460.8594        359.1114         34.0004         29.0004
  16240255.41246  12704554.08546  24270028.4594   24270032.8424
     -3240.7194      -2525.2354         18.0004         15.5004
    292436.84745     27440.59455  27097587.8574   27097600.9864
     -3521.7814      -2744.2454          8.0004          6.7504
 -13199253.12148 -10134765.99146  23188829.5924   23188832.9324
       289.0944        225.2684         29.5004         23.5004
 00  6 27  0 40 30.0060000  0  7G30G15G21G25G29G31G11
   -116108.80143    -63405.52645  26896182.5064   26896190.6314
       368.3914        287.0584          5.0004          5.5004
   5194971.25247   4073245.78546  23109559.3344   23109565.2874
     -3665.1874      -2855.9904         27.5004         21.7504
  14244469.65346   5665234.02646  24087900.0844   24087905.7914
     -2640.8444      -2057.8004         19.7504         15.5004
 -13956603.52248 -10769615.03147  22957733.1004   22957737.2134
       444.1564        346.0964         34.0004         29.2504
  16337513.70846  12780339.73046  24288536.4284   24288540.8814
     -3243.5784      -2527.4634         18.0004         15.7504
    398065.53245    109748.52145  27117688.6234   27117697.7794
     -3520.4844      -2743.2354          7.7504          6.7504
 -13207659.70148 -10141316.56846  23187229.6464   23187233.4554
       270.9224        211.1084         28.7504         23.2504
 00  6 27  0 41  0.0060000  0  7G30G15G21G25G29G31G11
   -126977.97943    -71874.92245  26894115.4674   26894121.6074
       356.2194        277.5734          5.5004          5.0004
   5305136.88747   4159089.06846  23130522.8964   23130528.6394
     -3679.1564      -2866.8754         26.2504         21.5004
  14323834.68946   5727076.85446  24103002.2874   24103008.1934
     -2650.1724      -2065.0694         19.2504         15.2504
 -13969680.49048 -10779804.82447  22955244.3424   22955248.4904
       427.6414        333.2264         34.0004         29.2504
  16434859.50846  12856193.58346  24307060.3114   24307064.3774
     -3246.1254      -2529.4484         18.0004         15.5004
    503655.64745    192026.40145  27137782.1464   27137794.4674
     -3518.8284      -2741.9444          8.0004          7.2504
 -13215518.58048 -10147440.35246  23185734.5144   23185738.0414
       252.9844        197.1314         29.5004         23.2504
 00  6 27  0 41 30.0060000  0  7G30G15G21G25G29G31G11
   -137473.45443    -80053.08045  26892116.5684   26892125.7014
       343.2344        267.4554          5.0004          5.2504
   5415727.36347   4245263.38046  23151567.8184   23151573.5964
     -3693.7664      -2878.2594         26.7504         21.5004
  14403486.61346   5789143.23646  24118159.7564   24118165.7684
     -2660.2194      -2072.8984         19.5004         14.7504
 -13982254.91048 -10789603.02147  22952851.8344   22952855.7014
       410.3914        319.7854         34.0004         29.5004
  16532288.02746  12932111.87546  24325600.8034   24325605.0454
     -3249.3444      -2531.9564         18.0004         15.5004
    609201.12444    274269.52045  27157865.2794   27157879.4394
     -3517.7664      -2741.1164          6.5004          5.7504
 -13222831.87648 -10153139.00546  23184342.5844   23184346.0294
       234.3134        182.5814         29.0004         23.5004
 00  6 27  0 42  0.0060000  0  7G30G15G21G25G29G31G11
   -147589.59942    -87935.63645  26890191.5374   26890200.7994
       330.9224        257.8614          4.5004          6.2504
   5526744.05247   4331769.82146  23172693.7094   23172699.2644
     -3707.6094      -2889.0464         27.2504         21.5004
  14483429.21347   5851436.10646  24133372.8654   24133378.1504
     -2669.5784      -2080.1914         20.0004         15.2504
 -13994322.34448 -10799006.16447  22950555.5374   22950559.1934
       393.8134        306.8674         34.0004         29.5004
  16629801.63846  13008096.46846  24344156.8574   24344161.0534
     -3251.8284      -2533.8924         18.2504         16.0004
    714702.69743    356478.49545  27177942.1154   27177952.1154
     -3515.9374      -2739.6924          5.5004          4.7504
 -13229594.97148 -10158408.93346  23183055.8424   23183059.2994
       216.2664        168.5194         30.0004         23.5004
 00  6 27  0 42 30.0060000  0  7G30G15G21G25G29G31G11
   -157332.39642    -95527.47845  26888336.8424   26888348.0494
       318.6254        248.2794          4.5004          5.7504
   5638176.33947   4418600.09846  23193898.5764   23193904.4944
     -3721.2194      -2899.6514         26.7504         21.2504
  14563654.81546   5913949.50846  24148639.1314   24148644.8504
     -2678.8124      -2087.3864         19.2504         14.7504
 -14005890.01248 -10808019.87647  22948354.2254   22948358.2214
       377.3284        294.0224         34.0004         29.7504
  16727390.93346  13084140.05046  24362727.7014   24362732.4124
     -3254.1414      -2535.6944         17.5004         15.2504
    820149.43242    438644.57645  27198007.4674   27198016.9164
     -3513.8754      -2738.0844          4.7504          5.0004
 -13235814.85848 -10163255.58246  23181871.8184   23181875.5454
       198.3444        154.5544         29.0004         23.5004
 00  6 27  0 43  0.0060000  0  7G30G15G21G25G29G31G11
   -166694.65243   -102822.59345  26886557.0924   26886566.4474
       305.6724        238.1864          5.0004          5.2504
   5750026.48847   4505755.98746  23215183.2484   23215189.1314
     -3735.3124      -2910.6334         26.5004         21.2504
  14644167.83946   5976686.86246  24163960.7174   24163966.3534
     -2688.5944      -2095.0084         19.5004         15.0004
 -14016952.05448 -10816639.60247  22946248.9824   22946253.0144
       360.2664        280.7264         34.0004         29.2504
  16825059.35946  13160245.28646  24381313.4984   24381317.7174
     -3256.9534      -2537.8864         17.7504         15.5004
    925543.07643    520769.39345  27218063.9204   27218077.4714
     -3512.2504      -2736.8184          5.0004          5.5004
 -13241485.36548 -10167674.13746  23180793.1314   23180796.5884
       179.7974        140.1014         29.7504         23.5004
 00  6 27  0 43 30.0060000  0  7G30G15G21G25G29G31G11
   -175676.60643   -109821.34945  26884847.1074   26884849.7094
       293.2034        228.4704          5.2504          4.7504
   5862289.59947   4593233.65546  23236546.5534   23236552.2254
     -3748.7664      -2921.1164         27.0004         21.2504
  14724965.96746   6039646.38146  24179335.1934   24179341.1934
     -2697.8444      -2102.2164         18.5004         15.0004
 -14027510.08648 -10824866.59547  22944239.8654   22944243.7564
       343.7194        267.8334         34.0004         29.7504
  16922803.42246  13236409.45146  24399913.5064   24399917.7254
     -3259.1874      -2539.6274         18.0004         15.0004
   1030878.69743    602848.94345  27238108.0684   27238121.0334
     -3510.0164      -2735.0774          5.0004          5.7504
 -13246607.70948 -10171665.54946  23179817.6624   23179821.3184
       161.7814        126.0634         29.0004         23.7504
 00  6 27  0 44  0.0060000  0  7G30G15G21G25G29G31G11
   -184275.74343   -116521.82845  26883211.5924   26883219.5644
       280.0474        218.2184          6.0004          4.7504
   5974963.75347   4681031.61846  23257987.4364   23257993.3654
     -3762.8124      -2932.0624         26.5004         21.2504
  14806050.40646   6102828.99146  24194765.3654   24194771.0614
     -2707.7664      -2109.9474         18.7504         14.5004
 -14037562.54048 -10832699.62247  22942326.9364   22942330.8614
       326.4534        254.3794         34.0004         30.0004
  17020622.23746  13312631.87046  24418527.7714   24418532.2834
     -3262.0474      -2541.8554         18.0004         15.5004
   1136153.95243    684881.56544  27258141.6864   27258157.0884
     -3508.3124      -2733.7504          6.0004          4.2504
 -13251180.19548 -10175228.50346  23178947.9824   23178951.1704
       143.0474        111.4654         29.7504         23.7504
 00  6 27  0 44 30.0060000  0  7G30G15G21G25G29G31G11
   -192488.52843   -122921.35145  26881648.2254   26881651.9044
       267.1414        208.1624          5.5004          5.7504
   6088047.65247   4769148.87146  23279506.3734   23279512.4674
     -3776.3914      -2942.6424         25.7504         21.0004
  14887422.37946   6166235.65446  24210249.5534   24210255.3424
     -2717.3124      -2117.3864         18.2504         15.0004
 -14047107.08048 -10840136.88147  22940510.4044   22940514.2714
       309.5634        241.2184         34.0004         29.7504
  17118516.01046  13388912.69246  24437155.9824   24437160.9284
     -3264.4694      -2543.7424         17.0004         15.2504
   1241367.23843    766865.96245  27278161.7404   27278176.4514
     -3506.1724      -2732.0824          5.5004          4.5004
 -13255200.29548 -10178361.02346  23178183.0064   23178186.3344
       124.6564         97.1354         29.5004         23.5004
 00  6 27  0 45  0.0060000  0  7G30G15G21G25G29G31G11
   -200311.86643   -129017.35745  26880158.3504   26880164.4554
       254.2504        198.1174          5.5004          5.2504
   6201539.51747   4857584.01146  23301103.8264   23301109.8504
     -3789.8124      -2953.1014         26.5004         21.0004
  14969082.96346   6229867.22346  24225789.0294   24225794.9824
     -2726.8124      -2124.7894         17.7504         14.2504
 -14056142.48048 -10847177.40447  22938791.0454   22938795.1004
       292.6884        228.0684         34.0004         29.7504
  17216484.29046  13465251.57446  24455799.1004   24455803.7054
     -3266.8284      -2545.5804         17.7504         15.0004
   1346516.47943    848800.14543  27298171.3574   27298192.2604
     -3503.8444      -2730.2684          5.5004          2.7504
 -13258666.33948 -10181061.81646  23177523.4284   23177526.5684
       106.2974         82.8294         29.7504         23.5004
 00  6 27  0 45 30.0060000  0  7G30G15G21G25G29G31G11
   -207747.97343   -134811.55445  26878743.7644   26878757.0104
       241.4844        188.1704          5.5004          5.5004
   6315432.55647   4946331.75946  23322776.3184   23322782.2484
     -3803.0314      -2963.4014         25.5004         21.0004
  15051028.26746   6293720.64346  24241383.0614   24241389.0144
     -2736.2034      -2132.1064         18.5004         14.5004
 -14064671.80448 -10853823.58847  22937168.1624   22937171.8654
       275.9224        215.0044         34.0004         30.0004
  17314521.50146  13541644.16446  24474454.6934   24474458.7954
     -3268.9844      -2547.2614         17.0004         14.7504
   1451594.36043    930679.21443  27318167.6544   27318186.7014
     -3501.2814      -2728.2714          5.5004          2.5004
 -13261581.36948 -10183333.24146  23176968.2404   23176971.5104
        88.0314         68.5964         29.0004         23.7504
 00  6 27  0 46  0.0060000  0  7G30G15G21G25G29G31G11
   -214793.75243   -140301.76745  26877402.3184   26877408.7994
       228.5314        178.0764          5.7504          6.0004
   6429725.13447   5035390.82346  23344525.7254   23344531.6314
     -3816.2034      -2973.6654         26.2504         20.7504
  15133259.10346   6357796.55146  24257030.9124   24257037.1934
     -2745.6254      -2139.4484         17.7504         14.5004
 -14072693.36648 -10860074.11047  22935641.5844   22935645.4164
       259.0944        201.8914         34.0004         30.0004
  17412627.41746  13618090.29546  24493123.2174   24493127.4124
     -3271.1564      -2548.9534         16.5004         14.7504
   1556599.24344   1012500.99044  27338149.4434   27338168.9474
     -3498.7504      -2726.2994          6.5004          3.5004
 -13263943.22548 -10185173.62646  23176519.1004   23176522.7444
        69.6724         54.2904         29.2504         23.7504
 00  6 27  0 46 30.0060000  0  7G30G15G21G25G29G31G11
   -221444.14944   -145483.78245  26876137.1624   26876146.3894
       215.0004        167.5324          6.5004          6.0004
   6544417.92747   5124761.75346  23366351.2094   23366356.7994
     -3829.8284      -2984.2824         26.0004         20.7504
  15215778.26346   6422097.14046  24272734.6394   24272740.6864
     -2755.5784      -2147.2044         19.0004         14.5004
 -14080203.21248 -10865925.89447  22934212.5454   22934216.3774
       241.7034        188.3404         34.0004         30.0004
  17510803.96846  13694591.45746  24511805.9984   24511810.7684
     -3273.7974      -2551.0114         16.5004         14.0004
   1661531.61045                  27358119.3964
     -3496.5944                          8.0004
 -13265748.15248 -10186580.04246  23176175.3504   23176178.9474
        50.7814         39.5704         29.0004         23.7504
 00  6 27  0 47  0.0060000  0  6G30G15G21G25G29G11
   -227699.19544   -150357.70645  26874947.1234   26874953.6744
       202.1254        157.5004          7.2504          6.0004
   6659506.28447   5214440.92146  23388251.5844   23388257.5024
     -3842.5944      -2994.2294         25.0004         20.2504
  15298584.18246   6486621.17546  24288491.1154   24288496.9864
     -2764.7344      -2154.3384         18.0004         14.2504
 -14087202.39548 -10871379.75947  22932880.1464   22932884.3774
       225.0314        175.3494         33.7504         29.7504
  17609047.95246  13771145.17046  24530500.7484   24530504.9554
     -3275.6724      -2552.4724         16.0004         14.2504
 -13266996.73648 -10187552.94146  23175937.9904   23175941.4364
        32.5944         25.3984         29.5004         23.7504
 00  6 27  0 47 30.0070000  0  6G30G15G21G25G29G11
   -233559.96143   -154924.52245  26873830.3624   26873838.8514
       188.5944        146.9564          6.0004          5.7504
   6774988.22147   5304426.76946  23410227.3154   23410233.0584
     -3855.8754      -3004.5784         25.5004         20.2504
  15381676.93546   6551368.70646  24304303.7064   24304309.9874
     -2774.5624      -2161.9974         17.7504         14.5004
 -14093693.44148 -10876437.67747  22931645.3784   22931649.1164
       207.7344        161.8714         34.0004         30.2504
  17707358.37746  13847750.66146  24549209.0814   24549213.9444
     -3278.0944      -2554.3594         16.5004         14.7504
 -13267691.34548 -10188094.18046  23175806.0734   23175809.4254
        13.7504         10.7144         30.2504         24.0004
 00  6 27  0 48  0.0070000  0  6G30G15G21G25G29G11
   -239020.42443   -159179.49544  26872791.3944   26872795.6124
       175.0004        136.3644          5.7504          4.2504
   6890857.15747   5394714.17646  23432276.9724   23432282.8084
     -3869.1094      -3014.8904         26.2504         20.2504
  15465055.03646   6616338.60746  24320169.8394   24320176.1324
     -2784.3754      -2169.6434         17.7504         14.0004
 -14099671.62948 -10881095.95647  22930507.7064   22930511.3274
       190.3914        148.3564         34.0004         30.2504
  17805731.22046  13924404.78746  24567929.0504   24567933.4794
     -3280.5004      -2556.2344         16.5004         14.2504
 -13267827.06248 -10188199.91546  23175779.8544   23175783.1944
        -5.1254         -3.9944         29.2504         24.0004
 00  6 27  0 48 30.0070000  0  6G30G15G21G25G29G11
   -244076.13244   -163118.81045  26871829.9094   26871841.1514
       161.7974        126.0754          6.2504          5.7504
   7007117.17747   5485306.32146  23454400.2694   23454406.1164
     -3881.7814      -3024.7654         25.5004         20.2504
  15548723.51746   6681534.75946  24336092.0194   24336097.8784
     -2793.7504      -2176.9484         18.5004         14.2504
 -14105133.38448 -10885351.82747  22929468.4564   22929472.1014
       173.5004        135.1954         34.0004         30.2504
  17904171.18446  14001111.21546  24586661.6514   24586666.1514
     -3282.3914      -2557.7074         16.2504         14.5004
 -13267400.38348 -10187867.42046  23175861.2454   23175864.8904
       -23.5624        -18.3604         29.5004         24.0004
 00  6 27  0 49  0.0070000  0  6G30G15G21G25G29G11
   -248724.34644   -166740.69745  26870944.4014   26870946.6164
       148.4064        115.6414          6.2504          5.0004
   7123766.17647   5576201.57146  23476597.7614   23476603.6554
     -3894.4534      -3034.6394         24.7504         19.7504
  15632683.14946   6746957.80046  24352068.7374   24352074.9954
     -2803.2034      -2184.3144         18.2504         14.0004
 -14110077.93748 -10889204.68447  22928527.3084   22928531.2804
       156.4844        121.9364         34.0004         30.5004
  18002677.70946  14077869.50146  24605406.5814   24605411.0224
     -3284.3594      -2559.2414         17.0004         14.7504
 -13266409.71048 -10187095.45446  23176049.4174   23176052.9564
       -42.1414        -32.8374         29.2504         24.0004
 00  6 27  0 49 30.0070000  0  6G30G15G21G25G29G11
   -252966.18444                  26870138.6514
       134.6094                          6.2504
   7240798.45647   5667395.48246  23498868.4094   23498874.2924
     -3907.3914      -3044.7204         25.2504         19.7504
  15716930.37046   6812604.93046  24368100.9404   24368106.9054
     -2813.0164      -2191.9604         18.5004         13.7504
 -14114507.58648 -10892656.31347  22927684.5194   22927688.3514
       139.1094        108.3974         34.0004         30.2504
  18101246.62346  14154676.40646  24624163.7764   24624168.5224
     -3286.6254      -2561.0064         16.5004         14.7504
 -13264857.20248 -10185885.69246  23176345.1124   23176348.5344
       -61.0784        -47.5934         29.5004         23.7504
 00  6 27  0 50  0.0070000  0  6G30G15G21G25G29G11
   -256795.79244                  26869409.6364
       120.7034                          6.5004
   7358215.30347   5758889.05246  23521211.8314   23521217.7264
     -3920.3284      -3054.8014         24.5004         19.5004
  15801469.95046   6878479.86846  24384188.1594   24384194.0894
     -2822.9224      -2199.6794         17.7504         13.7504
 -14118417.36048 -10895702.85147  22926940.1284   22926943.8904
       121.5944         94.7484         34.0004         30.2504
  18199880.72946  14231534.12846  24642933.5974   24642937.3004
     -3288.9534      -2562.8214         16.7504         14.7504
 -13262738.27248 -10184234.57446  23176748.1514   23176751.4214
       -80.1414        -62.4474         29.5004         24.0004
 00  6 27  0 50 30.0070000  0  6G30G15G21G25G29G11
   -260213.13244                  26868759.1754
       107.0004                          6.2504
   7476012.20547   5850678.76246  23543628.1674   23543633.9914
     -3932.8754      -3064.5784         25.0004         19.5004
  15886299.92346   6944581.08246  24400330.6364   24400336.6364
     -2832.5004      -2207.1434         17.7504         13.2504
 -14121808.96448 -10898345.61047  22926294.8084   22926298.7924
       104.4064         81.3564         34.0004         30.2504
  18298576.91746  14308440.20646  24661714.5814   24661719.0464
     -3290.8914      -2564.3304         16.0004         14.0004
 -13260053.69748 -10182142.67946  23177259.2534   23177262.8044
       -98.9374        -77.0944         29.7504         24.0004
 00  6 27  0 51  0.0070000  0  6G30G15G21G25G29G11
   -263209.08044      -219.32554  26868188.4254   26868202.2224
        93.2034         72.6264          6.2504          4.2504
   7594193.67847   5942768.14746  23566117.4254   23566123.4014
     -3945.3914      -3074.3304         24.7504         19.2504
  15971427.26946   7010914.02546  24416529.9564   24416535.8514
     -2842.1724      -2214.6794         17.7504         13.7504
 -14124674.51548 -10900578.46847  22925749.7144   22925753.5934
        87.1094         67.8774         34.0004         30.5004
  18397341.25746  14385399.39546  24680509.2764   24680513.3544
     -3292.8914      -2565.8894         17.0004         14.2504
 -13256795.47248 -10179603.80046  23177879.0814   23177882.5264
      -117.8124        -91.8024         29.7504         24.2504
 00  6 27  0 51 30.0070000  0  6G30G15G21G25G29G11
   -265792.07844     -2231.92345  26867697.8704   26867706.4764
        79.1414         61.6684          7.2504          5.7504
   7712746.33047   6035146.75746  23588677.3944   23588683.3704
     -3957.9374      -3084.1074         24.7504         19.0004
  16056841.51446   7077470.50446  24432783.6284   24432789.5344
     -2851.9534      -2222.3014         17.7504         13.2504
 -14127023.39248 -10902408.71847  22925302.4564   22925306.2534
        69.6414         54.2654         34.0004         30.5004
  18496162.03346  14462402.58046  24699313.6514   24699318.1864
     -3294.9844      -2567.5204         16.5004         14.5004
 -13252973.24448 -10176625.42846  23178606.5504   23178609.5974
      -136.8444       -106.6314         29.7504         24.2504
 00  6 27  0 52  0.0070000  0  6G30G15G21G25G29G11
   -267952.78944     -3915.50745  26867286.5894   26867293.9404
        64.9694         50.6254          7.2504          7.0004
   7831675.11147   6127818.46346  23611308.7064   23611314.7184
     -3970.5164      -3093.9084         24.5004         19.2504
  16142550.35046   7144256.56846  24449093.9484   24449100.0774
     -2861.8594      -2230.0204         18.2504         14.0004
 -14128847.75348 -10903830.25447  22924955.4794   22924959.0894
        52.0784         40.5804         34.0004         30.5004
  18595045.73246  14539454.78046  24718130.9174   24718134.9014
     -3297.1254      -2569.1884         16.0004         13.7504
 -13248578.87148 -10173201.24346  23179442.7764   23179446.1044
      -156.0164       -121.5714         29.5004         24.0004
 00  6 27  0 52 30.0070000  0  6G30G15G21G25G29G11
   -269695.51844     -5273.39945  26866954.0424   26866960.2064
        51.1564         39.8624          6.5004          6.2504
   7950971.05247   6220776.25946  23634010.2694   23634016.3744
     -3982.5624      -3103.2954         24.7504         19.2504
  16228547.57346   7211267.29946  24465458.3084   24465464.5544
     -2871.3124      -2237.3864         17.2504         13.2504
 -14130153.24548 -10904847.47647  22924706.6904   22924710.6404
        34.9224         27.2124         33.7504         30.5004
  18693984.99246  14616550.27846  24736958.7534   24736962.6794
     -3298.8284      -2570.5154         15.7504         13.5004
 -13243617.67448 -10169335.37046  23180386.8394   23180390.2844
      -174.7664       -136.1814         29.7504         24.0004
 00  6 27  0 53  0.0070000  0  6G30G15G21G25G29G11
   -271016.64644     -6302.81245  26866702.4794   26866713.8274
        37.1414         28.9414          7.2504          5.7504
   8070633.26347   6314019.45346  23656781.3314   23656786.9794
     -3994.6564      -3112.7194         24.7504         18.7504
  16314834.58346   7278503.88646  24481878.1514   24481884.2924
     -2880.9064      -2244.8624         16.7504         13.5004
 -14130937.63148 -10905458.63947  22924557.6364   22924561.6794
        17.5944         13.7094         34.0004         30.7504
  18792980.53546  14693689.61646  24755796.3624   24755800.0894
     -3300.6254      -2571.9164         15.2504         13.7504
 -13238087.08648 -10165025.81146  23181439.0974   23181442.6364
      -193.7034       -150.9374         29.7504         24.5004
 00  6 27  0 53 30.0070000  0  6G30G15G21G25G29G11
   -271916.80045     -7004.11645  26866532.0424   26866539.0304
        22.8914         17.8374          8.7504          6.2504
   8190656.52147   6407543.97846  23679620.9564   23679626.9444
     -4006.8444      -3122.2164         23.2504         18.5004
  16401408.56146   7345964.02946  24498353.0974   24498359.4604
     -2890.6724      -2252.4724         17.5004         13.0004
 -14131202.72148 -10905665.15447  22924507.2294   22924510.6634
         0.0944          0.0734         34.0004         31.0004
  18892028.61946  14770869.90746  24774644.6674   24774649.0974
     -3302.5624      -2573.4254         14.7504         13.2504
 -13231988.93548 -10160274.00146  23182599.9094   23182603.2144
      -212.8284       -165.8404         30.0004         24.5004
 00  6 27  0 54  0.0070000  0  6G30G15G21G25G29G11
   -272386.19444     -7369.84545  26866441.0344   26866449.7454
         8.4064          6.5504          6.7504          7.0004
   8311045.99047   6501353.89046  23702529.6594   23702535.6944
     -4019.0784      -3131.7494         23.0004         18.5004
  16488278.19746   7413654.60246  24514883.1984   24514889.2694
     -2900.6254      -2260.2274         16.5004         13.5004
 -14130940.64748 -10905460.90047  22924556.6984   22924560.5424
       -17.5624        -13.6854         34.0004         30.5004
  18991136.10046  14848096.48446  24793504.2294   24793508.7184
     -3304.6094      -2575.0204         15.0004         13.5004
 -13225314.73748 -10155073.32146  23183869.6674   23183873.1944
      -232.1254       -180.8774         29.7504         24.2504
 00  6 27  0 54 30.0070000  0  6G30G15G21G25G29G11
   -272420.61344     -7396.56545  26866436.2144   26866443.1674
        -5.8914         -4.5904          6.5004          6.7504
   8431801.21747   6595448.78246  23725509.1444   23725515.4134
     -4031.0164      -3141.0514         23.2504         18.2504
  16575446.10746   7481577.56546  24531471.2294   24531477.1834
     -2910.3284      -2267.7884         17.5004         13.7504
 -14130147.91148 -10904843.13447  22924707.7064   22924711.6204
       -35.0474        -27.3094         34.0004         30.7504
  19090304.29146  14925370.35946  24812375.2614   24812380.1714
     -3306.3914      -2576.4084         14.2504         13.2504
 -13218061.41248 -10149421.36146  23185249.7844   23185253.0544
      -251.2034       -195.7434         29.7504         24.5004
 00  6 27  0 55  0.0070000  0  6G30G15G21G25G29G11
   -272021.27944     -7085.32545  26866511.7534   26866520.2414
       -20.4374        -15.9254          6.2504          6.2504
   8552916.77847   6689824.45546  23748556.8314   23748563.0074
     -4043.0164      -3150.4024         22.7504         18.0004
  16662909.20046   7549730.56346  24548114.2374   24548120.4014
     -2920.2034      -2275.4834         16.0004         12.7504
 -14128827.09548 -10903813.88247  22924959.0344   22924962.6204
       -52.6874        -41.0554         34.0004         31.0004
  19189529.26846  15002688.47146  24831257.6674   24831261.6514
     -3308.2814      -2577.8814         14.7504         13.2504
 -13210231.25848 -10143319.93746  23186740.1514   23186743.2924
      -270.4844       -210.7674         30.5004         24.5004
 00  6 27  0 55 30.0070000  0  6G30G15G21G25G29G11
   -271187.94644     -6435.94945  26866671.5344   26866683.3514
       -34.9534        -27.2364          7.2504          6.0004
   8674387.88447   6784477.17946  23771672.3154   23771678.3394
     -4054.8754      -3159.6434         23.2504         18.0004
  16750665.20346   7618111.79546  24564814.5264   24564820.6674
     -2930.0164      -2283.1294         16.7504         13.2504
 -14126980.10948 -10902374.63247  22925310.7694   22925314.3084
       -70.2814        -54.7654         34.0004         31.0004
  19288807.98446  15080048.47646  24850149.8154   24850154.2694
     -3310.1094      -2579.3064         15.0004         13.7504
 -13201825.20448 -10136769.76046  23188339.7224   23188342.9684
      -289.7504       -225.7794         30.7504         24.5004
 00  6 27  0 56  0.0070000  0  6G30G15G21G25G29G11
   -269927.62244     -5453.79345  26866909.4644   26866915.3114
       -49.4534        -38.5354          7.0004          6.0004
   8796203.23847   6879398.15846  23794852.8474   23794858.7534
     -4066.4844      -3168.6894         22.0004         17.7504
  16838705.01246   7686714.18346  24581567.5974   24581573.3394
     -2939.6724      -2290.6534         16.2504         13.0004
 -14124614.57848 -10900531.31247  22925760.3474   22925764.0264
       -87.7814        -68.4014         34.0004         30.7504
  19388131.22146  15157443.15046  24869050.2144   24869055.2184
     -3311.7504      -2580.5844         14.2504         13.7504
 -13192851.23148 -10129777.04046  23190046.8394   23190050.1794
      -308.8914       -240.6944         29.5004         24.2504
 00  6 27  0 56 30.0070000  0  6G30G15G21G25G29G11
   -268230.72145     -4131.44045  26867233.2614   26867239.4134
       -63.9224        -49.8094          7.7504          6.2504
   8918368.05347   6974591.43446  23818099.6364   23818105.6474
     -4078.0164      -3177.6754         21.7504         17.7504
  16927037.13846   7755544.35146  24598377.1594   24598382.7964
     -2949.3594      -2298.2024         16.7504         12.7504
 -14121721.83348 -10898277.18147  22926311.4014   22926314.8824
      -105.2664        -82.0254         34.0004         31.0004
  19487505.60346  15234877.70346  24887959.7144   24887964.2374
     -3313.3594      -2581.8384         13.7504         13.0004
 -13183300.71948 -10122335.07446  23191864.7694   23191867.9444
      -328.0314       -255.6094         30.5004         24.5004
 00  6 27  0 57  0.0070000  0  6G30G15G21G25G29G11
   -266096.75544     -2468.55245  26867638.4334   26867643.9294
       -78.6564        -61.2914          7.2504          6.2504
   9040877.78147   7070053.47446  23841412.7534   23841418.7534
     -4089.5944      -3186.6964         22.0004         17.5004
  17015659.93246   7824601.01946  24615241.5814   24615247.1474
     -2959.1564      -2305.8364         16.0004         12.5004
 -14118303.39148 -10895613.41547  22926961.4174   22926965.0384
      -122.9374        -95.7954         34.0004         31.2504
  19586928.46346  15312350.02446  24906880.1514   24906884.5694
     -3315.1094      -2583.2024         14.5004         13.0004
 -13173174.92448 -10114444.83146  23193791.4174   23193794.9684
      -347.3444       -270.6574         30.0004         24.2504
 00  6 27  0 57 30.0070000  0  6G30G15G21G25G29G11
   -263519.99545      -460.54545  26868130.1364   26868137.5584
       -93.2344        -72.6504          7.5004          5.2504
   9163733.96347   7165785.48046  23864791.3864   23864797.4094
     -4100.9224      -3195.5244         21.5004         17.2504
  17104577.17146   7893887.13846  24632161.5034   24632167.4914
     -2968.7814      -2313.3364         15.0004         12.0004
 -14114354.81648 -10892536.55647  22927712.6204   22927716.5694
      -140.4224       -109.4204         34.0004         31.0004
  19686402.76246  15389862.42646  24925809.2924   24925813.7454
     -3316.6254      -2584.3834         14.2504         12.7504
 -13162469.01648 -10106102.55746  23195828.7694   23195832.0504
      -366.5004       -285.5844         30.2504         24.5004
 00  6 27  0 58  0.0070000  0  6G30G15G21G25G29G11
   -260505.82445      1888.20645  26868701.9874   26868710.2884
      -107.7344        -83.9494          7.7504          6.2504
   9286926.90447   7261779.89446  23888234.9564   23888241.0384
     -4111.9534      -3204.1194         21.7504         17.2504
  17193782.08546   7963397.39246  24649136.9564   24649142.6164
     -2978.2344      -2320.7024         15.7504         12.5004
 -14109883.05248 -10889052.03247  22928563.7224   22928567.4364
      -157.7344       -122.9104         34.0004         31.0004
  19785920.75646  15467408.86546  24944746.9954   24944751.5774
     -3317.9224      -2585.3944         14.2504         13.0004
 -13151189.51548 -10097313.32546  23197975.3544   23197978.6474
      -385.4844       -300.3774         30.7504         25.0004
 00  6 27  0 58 30.0070000  0  6G30G15G21G25G29G11
   -257049.86645      4581.25945  26869361.2064   26869366.2334
      -122.5164        -95.4674          8.2504          5.5004
   9410456.69047   7358036.78946  23911741.5424   23911747.6834
     -4123.1724      -3212.8614         21.7504         17.5004
  17283277.14346   8033133.75846  24666166.8624   24666173.1674
     -2987.9534      -2328.2754         15.7504         12.2504
 -14104884.65948 -10885157.13747  22929515.1364   22929518.6514
      -175.3284       -136.6194         34.0004         31.0004
  19885484.24546  15544990.75446  24963693.9094   24963698.3394
     -3319.4694      -2586.5994         15.0004         13.0004
 -13139333.46348 -10088074.83646  23200231.7764   23200235.0934
      -404.7664       -315.4024         30.7504         24.7504
 00  6 27  0 59  0.0070000  0  6G30G15G21G25G29G11
   -253151.53745      7618.93545  26870101.9174   26870106.8974
      -137.5784       -107.2044          7.7504          6.5004
   9534318.56447   7454552.44546  23935311.7694   23935317.8514
     -4134.4534      -3221.6524         21.0004         17.0004
  17373061.00346   8103095.16946  24683253.1984   24683259.1044
     -2997.8124      -2335.9584         16.2504         12.5004
 -14099360.97148 -10880852.92847  22930565.9254   22930569.7334
      -193.0944       -150.4634         34.0004         31.2504
  19985090.69646  15622606.10246  24982647.6044   24982653.4294
     -3321.1414      -2587.9024         14.2504         12.7504
 -13126901.28348 -10078387.41346  23202597.1594   23202600.2764
      -424.2194       -330.5604         30.5004         25.0004
 00  6 27  0 59 30.0070000  0  7G30G15G 1G21G25G29G11
   -248807.29745     11004.21245  26870928.2694   26870933.4834
      -152.2194       -118.6124          8.2504          6.2504
   9658512.21147   7551326.63546  23958944.7924   23958950.9794
     -4145.2664      -3230.0774         20.5004         16.7504
    -29584.44954                  27097231.7694
      1739.1094                          6.2504
  17463135.53146   8173283.07246  24700393.9484   24700399.6554
     -3007.2974      -2343.3484         16.2504         12.5004
 -14093309.25548 -10876137.25647  22931717.4014   22931721.1634
      -210.5004       -164.0264         34.0004         31.2504
  20084741.24646  15700255.82146  25001610.8784   25001615.8234
     -3322.3594      -2588.8514         14.2504         13.0004
 -13113890.57448 -10068249.18446  23205072.8544   23205076.1834
      -443.3124       -345.4384         30.5004         25.0004
 00  6 27  1  0  0.0070000  0  7G30G15G 1G21G25G29G11
   -244015.80345     14737.94845  26871840.8394   26871849.0584
      -167.0314       -130.1544          9.0004          7.2504
   9783034.56647   7648356.95346  23982640.6984   23982646.5814
     -4156.0474      -3238.4784         20.7504         17.2504
    -81689.33644                  27087316.5114
      1734.7344                          6.2504
  17553500.53446   8243697.29446  24717589.1044   24717595.0344
     -3016.8594      -2350.8004         15.7504         12.2504
 -14086729.71648 -10871010.30147  22932969.6444   22932973.1474
      -227.9694       -177.6384         34.0004         31.2504
  20184434.57546  15777938.87246  25020581.6904   25020585.9564
     -3323.6414      -2589.8504         14.5004         13.0004
 -13100301.18648 -10057660.04746  23207659.0734   23207662.7294
      -462.4844       -360.3774         30.5004         24.7504
 00  6 27  1  0 30.0070000  0  7G30G15G 1G21G25G29G11
   -238774.02045     18822.55545  26872837.6044   26872842.6324
      -182.5314       -142.2324          8.2504          6.2504
   9907883.89747   7745642.06146  24006398.9794   24006405.1084
     -4167.3594      -3247.2934         20.2504         16.5004
   -133659.25743     -1347.46155  27077427.0034   27077438.0934
      1729.7974       1347.8944          6.0004          5.5004
  17644156.95246   8314338.61246  24734840.2694   24734846.7144
     -3027.0314      -2358.7264         14.7504         12.5004
 -14079620.94048 -10865470.95247  22934322.5654   22934325.8944
      -246.0784       -191.7494         34.0004         31.5004
  20284170.76946  15855655.32646  25039561.6044   25039566.3974
     -3325.5474      -2591.3354         15.2504         13.2504
 -13086131.64848 -10046618.84546  23210355.3784   23210358.6594
      -482.2974       -375.8164         30.7504         25.0004
 00  6 27  1  1  0.0070000  0  7G30G15G 1G21G25G29G11
   -233075.68645     23262.92045  26873921.6754   26873931.8154
      -197.5944       -153.9694          8.2504          5.2504
  10033062.39847   7843183.66446  24030220.1754   24030226.1984
     -4178.0944      -3255.6574         21.5004         16.7504
   -185488.98043    -41733.95445  27067563.2694   27067574.6164
      1725.2814       1344.3754          5.5004          5.7504
  17735109.67846   8385210.80746  24752148.3004   24752154.3234
     -3036.7194      -2366.2744         15.0004         12.2504
 -14071977.76948 -10859515.18347  22935776.3624   22935780.1474
      -263.7034       -205.4834         34.0004         31.5004
  20383954.16546  15933408.55846  25058549.3624   25058554.3194
     -3326.9224      -2592.4074         14.0004         12.7504
 -13071376.45248 -10035121.27946  23213163.1904   23213166.4134
      -501.6254       -390.8774         30.7504         25.0004
 00  6 27  1  1 30.0070000  0  7G30G15G 1G21G25G29G11
   -226924.14745     28056.38945  26875093.8624   26875099.3004
      -212.5314       -165.6094          9.0004          6.0004
  10158561.92747   7940975.43446  24054101.7294   24054107.6474
     -4188.5314      -3263.7914         21.0004         16.5004
   -237183.64743    -82015.30045  27057727.2614   27057736.9444
      1720.9844       1341.0274          5.7504          5.7504
  17826353.27146   8456309.65946  24769511.3474   24769517.8044
     -3046.2034      -2373.6654         15.0004         12.7504
 -14063805.43948 -10853147.09047  22937331.7614   22937335.2414
      -281.1414       -219.0714         34.0004         31.5004
  20483778.50346  16011193.69646  25077545.0114   25077550.0974
     -3328.0474      -2593.2834         13.5004         12.2504
 -13056040.48648 -10023171.17246  23216081.5654   23216084.8944
      -520.7664       -405.7914         31.0004         24.7504
 00  6 27  1  2  0.0070000  0  7G30G15G 1G21G25G29G11
   -220319.96445     33202.65345  26876348.7454   26876354.3004
      -227.5004       -177.2734          8.5004          5.7504
  10284377.48847   8039013.45146  24078043.3394   24078049.4684
     -4198.8914      -3271.8634         20.2504         16.5004
   -288745.26243   -122192.98845  27047914.3544   27047928.2924
      1716.7034       1337.6914          5.7504          5.2504
  17917885.56146   8527633.43746  24786928.7534   24786934.9874
     -3055.6874      -2381.0554         14.5004         12.7504
 -14055105.38748 -10846367.77947  22938987.1284   22938990.8084
      -298.6094       -232.6834         34.0004         31.5004
  20583640.66346  16089008.27446  25096548.4954   25096554.6364
     -3329.1724      -2594.1604         13.7504         12.0004
 -13040125.70648 -10010770.04446  23219109.7534   23219113.2104
      -539.9534       -420.7434         30.2504         24.7504
 00  6 27  1  2 30.0070000  0  7G30G15G 1G21G25G29G11
   -213259.09445     38704.63945  26877692.5264   26877699.8084
      -243.1414       -189.4604          8.5004          6.0004
  10410508.72547   8137297.43946  24102045.4954   24102051.4364
     -4209.7504      -3280.3254         20.0004         16.0004
   -340170.96143   -162264.70645  27038128.3474   27038137.5614
      1711.7974       1333.8684          5.5004          6.0004
  18009708.58146   8599183.79546  24804402.7144   24804409.2184
     -3065.7504      -2388.8964         14.2504         12.2504
 -14045875.02948 -10839175.24347  22940743.9794   22940747.5074
      -316.6414       -246.7334         34.0004         31.5004
  20683542.24746  16166853.59146  25115560.2374   25115564.3274
     -3330.8284      -2595.4504         15.2504         12.5004
 -13023628.86548  -9997915.36346  23222249.2224   23222252.8784
      -559.7194       -436.1444         30.7504         25.0004
 00  6 27  1  3  0.0070000  0  7G30G15G 1G21G25G29G11
   -205739.05045     44564.59245  26879123.9094   26879132.1404
      -258.2034       -201.1974          9.2504          6.7504
  10536953.86647   8235826.03946  24126107.9334   24126114.0504
     -4219.8914      -3288.2264         21.0004         16.2504
   -391459.92642   -202229.88745  27028367.4094   27028376.4364
      1707.5004       1330.5194          4.7504          6.0004
  18101823.58446   8670961.63546  24821931.8004   24821937.6594
     -3075.2344      -2396.2874         15.0004         12.0004
 -14036113.44348 -10831568.76247  22942601.1674   22942604.8704
      -334.1094       -260.3454         34.0004         31.5004
  20783483.16346  16244729.55846  25134577.4484   25134581.6204
     -3331.8594      -2596.2544         14.2504         12.7504
 -13006549.06648  -9984606.41946  23225499.1984   23225502.4794
      -578.9064       -451.0964         30.5004         25.0004
 00  6 27  1  3 30.0070000  0  7G30G15G 1G21G25G29G11
   -197758.89145     50782.95245  26880642.1284   26880646.9564
      -273.6724       -213.2514          8.0004          6.2504
  10663709.47947   8334596.56246  24150228.4644   24150234.0774
     -4230.3284      -3296.3604         20.2504         16.0004
   -442612.66743   -242089.00345  27018632.3314   27018643.5734
      1702.8284       1326.8794          5.0004          4.7504
  18194229.79446   8742966.38345  24839517.0504   24839523.0614
     -3085.0474      -2403.9334         14.7504         11.7504
 -14025821.26748 -10823548.84247  22944559.9254   22944563.4994
      -351.9224       -274.2254         34.0004         31.2504
  20883462.06046  16322635.11146  25153602.5424   25153607.0074
     -3333.2504      -2597.3384         13.2504         12.0004
 -12988886.58548  -9970843.45146  23228860.3084   23228863.6834
      -598.4534       -466.3274         30.2504         24.7504
 00  6 27  1  4  0.0070000  0  7G30G15G 1G21G25G29G11
   -189311.89645     57365.10445  26882250.1594   26882256.6864
      -289.2344       -225.3774          7.7504          5.7504
  10790778.25447   8433611.11546  24174408.8004   24174415.0934
     -4240.6874      -3304.4324         20.2504         16.0004
   -493623.61743   -281837.50245  27008926.5894   27008933.0934
      1698.1094       1323.2024          5.5004          5.5004
  18286931.68346   8815201.55646  24857156.3704   24857162.3354
     -3094.8594      -2411.5794         14.0004         12.0004
 -14014992.65448 -10815110.91147  22946620.4724   22946623.7294
      -369.7504       -288.1174         34.0004         31.5004
  20983483.61446  16400573.93545  25172635.8864   25172641.6634
     -3334.6094      -2598.3974         13.2504         11.7504
 -12970635.63048  -9956621.92346  23232333.4174   23232336.6634
      -618.0474       -481.5954         30.5004         24.7504
 00  6 27  1  4 30.0070000  0  7G30G15G 1G21G25G29G11
   -180404.37945     64306.09545  26883944.3234   26883951.9914
      -304.6094       -237.3584          8.2504          6.2504
  10918149.06047   8532860.99846  24198646.6364   24198652.6834
     -4250.6724      -3312.2124         20.0004         15.5004
   -544500.74244   -321481.70745  26999245.8004   26999258.1904
      1693.7504       1319.8054          7.0004          5.7504
  18379921.32346   8887660.93246  24874852.5584   24874858.5224
     -3104.4224      -2419.0304         15.7504         12.5004
 -14003635.95948 -10806261.48947  22948781.4644   22948784.9684
      -387.3444       -301.8264         34.0004         31.5004
  21083538.44046  16478538.65146  25191676.4254   25191681.0424
     -3335.6724      -2599.2254         13.5004         12.0004
 -12951804.07448  -9941947.98446  23235917.0034   23235920.1904
      -637.3754       -496.6564         31.0004         25.0004
 00  6 27  1  5  0.0070000  0  7G30G15G 1G21G25G29G11
   -171032.82045     71608.77145  26885728.2454   26885734.1164
      -320.1254       -249.4484          9.7504          6.2504
  11045821.15747   8632345.68046  24222942.0114   24222948.1864
     -4260.7034      -3320.0284         20.0004         16.0004
   -595241.90244   -361020.00845  26989588.8544   26989602.8274
      1689.1094       1316.1894          7.0004          6.0004
  18473200.92546   8960346.23446  24892603.4254   24892609.2964
     -3114.1414      -2426.6034         15.2504         12.0004
 -13991748.77348 -10796998.71447  22951043.4404   22951047.1794
      -405.0624       -315.6334         34.0004         31.2504
  21183628.20346  16556530.59545  25210722.3154   25210727.7184
     -3336.8754      -2600.1624         13.2504         11.2504
 -12932389.74548  -9926819.93246  23239611.5034   23239614.7024
      -656.8444       -511.8264         31.2504         25.0004
 00  6 27  1  5 30.0070000  0  7G30G15G 1G21G25G29G11
   -161191.56945     79277.29845  26887601.0654   26887606.7144
      -335.6724       -261.5624         10.0004          6.2504
  11173795.96246   8732066.22046  24247294.6364   24247300.5654
     -4270.6254      -3327.7604         19.5004         15.7504
   -645842.52745   -400448.90245  26979958.9954   26979971.9484
      1684.5634       1312.6464          7.5004          5.2504
  18566774.41146   9033260.55045  24910409.3314   24910414.6164
     -3123.7974      -2434.1274         14.2504         11.7504
 -13979326.94048 -10787319.32347  22953407.3944   22953411.0034
      -422.7504       -329.4164         34.0004         31.5004
  21283755.88346  16634552.08846  25229776.4794   25229780.1124
     -3338.0004      -2601.0394         14.0004         12.2504
 -12912388.12548  -9911234.25646  23243417.5344   23243420.8624
      -676.2814       -526.9724         30.7504         25.0004
 00  6 27  1  6  0.0070000  0  7G30G15G 1G21G25G29G11
   -150886.15945     87307.66845  26889561.3314   26889565.4914
      -351.2974       -273.7384          9.5004          6.7504
  11302063.61246   8832014.93846  24271703.3084   24271709.4484
     -4280.4534      -3335.4184         19.5004         15.5004
   -696309.64944   -439773.70845  26970355.5034   26970366.8274
      1679.9844       1309.0794          7.2504          6.2504
  18660635.02946   9106398.61645  24928270.1834   24928276.4404
     -3133.4694      -2441.6644         13.7504         11.5004
 -13966377.07148 -10777228.47247  22955871.5814   22955874.8394
      -440.4534       -343.2104         34.0004         31.5004
  21383913.85246  16712597.18946  25248836.4484   25248840.7844
     -3339.0944      -2601.8914         14.2504         12.2504
 -12891805.92148  -9895196.17046  23247333.9874   23247337.3394
      -695.7664       -542.1554         30.5004         25.0004
 00  6 27  1  6 30.0070000  0  7G30G15G 1G21G25G29G11
   -140112.16845     95703.05845  26891610.8624   26891619.0934
      -366.9534       -285.9374          7.7504          6.0004
  11430624.22146   8932191.95846  24296168.1594   24296174.3944
     -4290.2034      -3343.0154         19.7504         15.2504
   -746640.09945   -478992.01045  26960778.2844   26960788.3784
      1675.4064       1305.5114          8.0004          6.2504
  18754785.11746   9179762.23845  24946187.0194   24946192.8314
     -3143.1564      -2449.2134         15.0004         11.7504
 -13952896.46148 -10766724.06847  22958436.8154   22958440.2614
      -458.2034       -357.0414         34.0004         31.5004
  21484104.29446  16790667.59745  25267901.4174   25267905.8944
     -3340.2194      -2602.7684         13.2504         11.5004
 -12870640.16348  -9878703.36246  23251361.7614   23251365.2884
      -715.2504       -557.3384         30.2504         25.0004
 00  6 27  1  7  0.0070000  0  7G30G15G 1G21G25G29G11
   -128867.21345    104465.46845  26893751.0734   26893756.8744
      -382.7974       -298.2834          8.7504          6.5004
  11559475.71546   9032595.62946  24320687.4174   24320694.1674
     -4299.9694      -3350.6254         19.5004         15.5004
   -796832.90645   -518103.01445  26951226.8624   26951236.2884
      1670.7034       1301.8474          8.2504          6.0004
  18849225.28346   9253351.89746  24964158.8944   24964164.2144
     -3152.9224      -2456.8224         15.7504         12.0004
 -13938884.24648 -10755805.41847  22961102.9724   22961106.4294
      -476.0314       -370.9334         34.0004         31.5004
  21584327.06746  16868763.19845  25286973.3084   25286978.7694
     -3341.3914      -2603.6814         12.7504         11.2504
 -12848889.83348  -9861755.04546  23255501.0344   23255504.3744
      -734.8594       -572.6184         31.2504         25.2504
 00  6 27  1  7 30.0070000  0  7G30G15G 1G21G25G29G11
   -117146.50045    113598.55045  26895982.4644   26895988.3584
      -398.3914       -310.4344         10.0004          6.7504
  11688618.85346   9133226.55546  24345262.5584   24345268.5814
     -4309.3754      -3357.9554         18.7504         15.2504
   -846884.45945   -557104.01945  26941702.2374   26941712.6594
      1666.2664       1298.3894          8.2504          5.5004
  18943958.72646   9327170.08646  24982185.1444   24982191.4364
     -3162.4534      -2464.2494         14.7504         12.0004
 -13924336.85048 -10744469.74747  22963871.5264   22963875.0654
      -493.6094       -384.6314         34.0004         31.5004
  21684585.39146  16946886.53045  25306051.8544   25306057.8784
     -3342.2664      -2604.3634         13.0004         11.2504
 -12826551.03548  -9844348.18446  23259751.5974   23259755.0774
      -754.2034       -587.6914         30.5004         25.0004
 00  6 27  1  8  0.0070000  0  7G30G15G 1G21G25G29G11
   -104953.15645    123099.90145  26898301.8944   26898306.4994
      -414.5784       -323.0484          9.5004          6.5004
  11818046.20846   9234078.94346  24369891.6594   24369897.4604
     -4319.1874      -3365.6014         18.5004         15.0004
   -896799.23445   -595998.40745  26932202.7294   26932208.5654
      1661.3284       1294.5414          8.2504          5.5004
  19038981.17146   9401213.47545  25000267.4794   25000273.6554
     -3172.4534      -2472.0414         15.0004         11.5004
 -13909258.63648 -10732720.45147  22966740.6284   22966744.2144
      -511.6874       -398.7184         34.0004         31.7504
  21784873.30046  17025032.88145  25325136.3004   25325141.9484
     -3343.6564      -2605.4464         12.7504         11.5004
 -12803628.33848  -9826486.33846  23264113.6364   23264117.4214
      -774.0474       -603.1534         30.0004         25.0004
 00  6 27  1  8 30.0070000  0  7G30G15G 1G21G25G29G11
    -92286.38745    132970.26245  26900712.5034   26900720.1014
      -430.0944       -335.1384          8.2504          6.0004
  11947754.32546   9335150.10846  24394574.6444   24394580.7264
     -4328.2194      -3372.6384         18.7504         15.0004
   -946577.96745   -634786.86645  26922730.7294   26922737.7294
      1657.0474       1291.2054          8.2504          5.2504
  19134291.38546   9475481.09545  25018404.4174   25018410.0774
     -3181.7664      -2479.2984         14.5004         11.7504
 -13893650.69048 -10720558.38647  22969710.6204   22969713.9364
      -529.0624       -412.2564         34.0004         31.5004
  21885189.53146  17103201.33245  25344226.1904   25344231.0544
     -3344.2974      -2605.9464         13.0004         11.0004
 -12780122.55648  -9808170.13946  23268586.8544   23268590.3474
      -793.2034       -618.0804         30.7504         24.7504
 00  6 27  1  9  0.0070000  0  7G30G15G 1G21G25G29G11
    -79136.97245    143216.68645  26903214.3084   26903221.6364
      -446.3444       -347.8004          8.0004          5.7504
  12077748.28946   9436444.03646  24419312.4334   24419318.3154
     -4337.8444      -3380.1384         19.7504         15.0004
   -996212.54045   -673462.84045  26913284.3084   26913289.9444
      1652.1094       1287.3584          8.5004          6.0004
  19229897.21346   9549979.05145  25036598.3084   25036604.3194
     -3191.7504      -2487.0784         15.0004         11.2504
 -13877504.79948 -10707977.13047  22972783.0894   22972786.5344
      -547.1254       -426.3314         34.0004         31.5004
  21985541.45946  17181397.57845  25363322.6284   25363327.6444
     -3345.6414      -2606.9934         13.2504         11.5004
 -12756025.48048  -9789393.18546  23273172.6284   23273176.0504
      -813.0624       -633.5554         31.0004         25.0004
 00  6 27  1  9 30.0070000  0  7G30G15G 1G21G25G29G11
    -65506.73045    153837.77445  26905807.9334   26905815.4954
      -462.2814       -360.2194          8.7504          7.2504
  12208021.61746   9537955.62546  24444101.7064   24444107.6834
     -4346.9694      -3387.2484         18.2504         15.0004
  -1045706.28445   -712029.21045  26903867.0504   26903871.9834
      1647.5634       1283.8154          9.0004          6.2504
  19325794.45746   9624704.09945  25054846.3704   25054852.8744
     -3201.3444      -2494.5544         14.0004         10.5004
 -13860824.79048 -10694979.68647  22975957.3084   22975960.5544
      -564.7974       -440.1014         34.0004         31.5004
  22085924.71146  17259618.25845  25382424.5114   25382429.5614
     -3346.5164      -2607.6754         13.0004         11.5004
 -12731340.74748  -9770158.32546  23277869.8624   23277873.1444
      -832.5164       -648.7134         31.2504         25.2504
 00  6 27  1 10  0.0070000  0  7G30G15G 1G21G25G29G11
    -51399.51945    164830.46945  26908492.3864   26908500.2764
      -478.3914       -372.7724          9.0004          7.0004
  12338566.60746   9639678.89846  24468943.7224   24468949.9914
     -4356.1724      -3394.4204         18.0004         15.0004
  -1095064.14245   -750489.63445  26894473.8704   26894483.6714
      1642.7974       1280.1014          8.5004          5.7504
  19421978.64846   9699652.72745  25073149.5114   25073155.3234
     -3211.0944      -2502.1514         14.2504         11.0004
 -13843615.40048 -10681569.73747  22979232.0034   22979235.2844
      -582.6564       -454.0184         34.0004         31.7504
  22186333.66146  17337858.94745  25401531.8314   25401536.3544
     -3347.5624      -2608.4904         12.7504         10.5004
 -12706073.20348  -9750469.32446  23282677.6124   23282681.3394
      -852.1564       -664.0184         30.0004         25.0004
 00  6 27  1 10 30.0070000  0  7G30G15G 1G21G25G29G11
    -36813.04945    176196.66545  26911268.4254   26911276.9134
      -494.1724       -385.0694          9.2504          7.2504
  12469381.22446   9741612.25946  24493837.2614   24493844.0814
     -4364.9064      -3401.2264         18.2504         14.7504
  -1144285.26845   -788843.57245  26885106.9014   26885115.0154
      1638.4534       1276.7174          8.2504          6.7504
  19518450.06246   9774825.17445  25091508.0344   25091514.5154
     -3220.4374      -2509.4324         14.2504         11.0004
 -13825876.33548 -10667747.05747  22982607.4174   22982610.9444
      -600.0944       -467.6064         34.0004         31.7504
  22286768.40746  17416119.69345  25420643.8394   25420648.8314
     -3348.2034      -2608.9894         12.2504         10.2504
 -12680221.94248  -9730325.47946  23287597.3004   23287600.6864
      -871.3914       -679.0064         31.5004         25.0004
 00  6 27  1 11  0.0070000  0  7G30G15G 1G21G25G29G11
    -21740.35145    187941.66645  26914137.0424   26914142.4564
      -510.6254       -397.8904          8.7504          6.0004
  12600468.58046   9843758.16146  24518782.4564   24518788.4094
     -4374.1874      -3408.4584         18.5004         14.5004
  -1193363.25345   -827086.02045  26875768.4724   26875774.9174
      1633.4534       1272.8214          8.7504          5.0004
  19615214.20346   9850225.70345  25109922.2694   25109928.2334
     -3230.4374      -2517.2244         14.7504         11.0004
 -13807601.30548 -10653506.74747  22986085.2924   22986088.8904
      -618.1874       -481.7054         34.0004         31.5004
  22387234.14246  17494404.67045  25439761.5034   25439766.3314
     -3349.4534      -2609.9634         12.2504         10.7504
 -12653781.04248  -9709722.17746  23292628.6204   23292632.3704
      -891.2814       -694.5054         30.5004         25.2504
 00  6 27  1 11 30.0070000  0  7G30G15G 1G21G25G29G11
     -6187.36645    200061.00945  26917095.9484   26917103.6754
      -526.4694       -410.2354          8.2504          6.0004
  12731818.53746   9946108.67146  24543777.7064   24543783.8704
     -4382.7034      -3415.0934         17.7504         14.2504
  -1242305.29345   -865222.28845  26866454.7614   26866462.6754
      1629.1254       1269.4484          8.7504          6.2504
  19712263.69046   9925848.58445  25128388.8394   25128394.9094
     -3239.7664      -2524.4934         13.2504         10.2504
 -13788797.98048 -10638854.77947  22989663.3314   22989666.4254
      -635.6094       -495.2804         34.0004         31.5004
  22487722.94746  17572707.58045  25458884.3544   25458889.1364
     -3350.0164      -2610.4024         12.2504         10.7504
 -12626757.77848  -9688665.08446  23297770.6514   23297774.2724
      -910.5004       -709.4814         29.7504         25.0004
 00  6 27  1 12  0.0070000  0  7G30G15G 1G21G25G29G11
      9850.07945    212557.80545  26920147.4874   26920155.4134
      -542.7814       -422.9464          8.0004          5.5004
  12863431.27546  10048663.95646  24568822.8624   24568829.0974
     -4391.5314      -3421.9724         18.0004         14.2504
  -1291108.50045   -903250.62245  26857167.9874   26857174.7964
      1624.3444       1265.7224          8.7504          6.0004
  19809601.51046  10001696.15545  25146912.5034   25146919.0304
     -3249.4844      -2532.0664         13.0004         10.2504
 -13769463.38248 -10623788.82447  22993342.8004   22993345.9054
      -653.4374       -509.1724         34.0004         32.0004
  22588236.87446  17651030.04345  25478011.8944   25478016.0424
     -3350.9694      -2611.1444         12.5004         11.0004
 -12599149.54848  -9667152.17946  23303024.9094   23303028.1084
      -930.1414       -724.7854         31.2504         24.7504
 00  6 27  1 12 30.0070000  0  7G30G15G 1G21G25G29G11
     26376.07545    225435.26245  26923292.5264   26923295.8784
      -558.9694       -435.5604          9.2504          6.2504
  12995306.24646  10151423.54646  24593917.1754   24593923.0694
     -4400.1414      -3428.6814         17.2504         14.0004
  -1339770.26344   -941168.58245  26847906.0504   26847914.5734
      1619.7344       1262.1314          7.2504          6.0004
  19907229.42346  10077769.73245  25165489.3544   25165495.6244
     -3259.0624      -2539.5294         12.5004          9.5004
 -13749595.54748 -10608307.37147  22997123.2224   22997126.6324
      -671.0944       -522.9304         34.0004         32.0004
  22688778.08245  17729373.77945  25497144.0894   25497149.0114
     -3351.7664      -2611.7654         11.7504         10.7504
 -12570953.64648  -9645181.34946  23308390.2844   23308393.5894
      -949.6094       -739.9554         30.5004         25.0004
 00  6 27  1 13  0.0070000  0  7G30G15G 1G21G25G29G11
     43389.86345    238692.79545  26926529.0114   26926536.3394
      -575.0944       -448.1254          8.0004          5.5004
  13127438.81946  10254383.89446  24619061.8704   24619068.0344
     -4408.5164      -3435.2074         17.5004         14.0004
  -1388292.24945   -978977.74645  26838674.3154   26838682.5464
      1615.2344       1258.6244          8.0004          6.0004
  20005145.45646  10154067.85545  25184123.5034   25184129.0694
     -3268.5004      -2546.8834         13.2504         10.7504
 -13729196.48148 -10592411.97347  23001005.3084   23001008.6834
      -688.6564       -536.6154         34.0004         31.7504
  22789343.58945  17807736.45345  25516280.2694   25516285.7764
     -3352.4064      -2612.2654         10.7504          9.5004
 -12542172.09848  -9622754.16246  23313867.1364   23313870.7454
      -968.9694       -755.0414         30.5004         25.2504
 00  6 27  1 13 30.0070000  0  7G30G15G 1G21G25G29G11
     60897.42345    252335.16645  26929861.8004   26929868.3044
      -592.1564       -461.4204          8.2504          6.2504
  13259831.28046  10357546.74746  24644255.3474   24644261.4294
     -4417.6874      -3442.3544         17.5004         13.5004
  -1436669.41245  -1016674.07145  26829468.2694   26829476.7694
      1609.8594       1254.4364          7.7504          6.5004
  20103354.58946  10230594.33545  25202812.0344   25202818.9524
     -3278.8124      -2554.9194         12.7504         10.2504
 -13708260.52948 -10576098.21647  23004989.0894   23004992.3234
      -707.0944       -550.9824         34.0004         32.0004
  22889938.19145  17886121.80445  25535423.5424   25535428.5934
     -3353.9374      -2613.4584         10.5004          9.5004
 -12512800.07748  -9599866.87446  23319456.4564   23319459.9604
      -989.2034       -770.8084         31.0004         25.0004
 00  6 27  1 14  0.0070000  0  7G30G15G 1G21G25G29G11
     78893.55545    266358.22145  26933286.8394   26933292.9444
      -608.0624       -473.8154          9.7504          6.0004
  13392474.29646  10460904.84246  24669496.9404   24669503.0114
     -4425.6094      -3448.5274         17.2504         13.0004
  -1484908.35545  -1054262.60445  26820287.9254   26820295.3004
      1605.6254       1251.1364          8.2504          7.0004
  20201849.80946  10307343.79545  25221555.0504   25221560.4524
     -3287.9694      -2562.0544         12.5004         10.2504
 -13686795.14148 -10559371.91347  23009073.8864   23009077.0614
      -724.3594       -564.4364         34.0004         31.7504
  22990554.50745  17964524.10045  25554569.6514   25554575.3584
     -3354.2664      -2613.7134         10.7504          9.7504
 -12482844.32348  -9576524.73346  23325157.1124   23325160.3824
     -1008.2814       -785.6744         31.5004         25.2504
 00  6 27  1 14 30.0070000  0  7G30G15G 1G21G25G29G11
     97385.98445    280767.99145  26936804.9954   26936810.8084
      -624.7034       -486.7824          9.5004          7.0004
  13525371.43146  10564460.94346  24694786.1204   24694792.2844
     -4434.1094      -3455.1504         17.2504         13.5004
  -1533002.45945  -1091738.26045  26811135.5264   26811142.1014
      1600.7034       1247.3014          8.0004          6.7504
  20300637.44346  10384321.07145  25240353.5194   25240360.5424
     -3297.7974      -2569.7124         12.7504         10.5004
 -13664794.11948 -10542228.23247  23013260.4334   23013263.9254
      -742.2814       -578.4014         34.0004         32.0004
  23091198.67445  18042948.04545  25573721.7454   25573727.3474
     -3355.2504      -2614.4814         10.7504          9.7504
 -12452298.41748  -9552722.73546  23330969.5894   23330972.9764
     -1028.0314       -801.0634         31.0004         25.0004
 00  6 27  1 15  0.0070000  0  7G30G15G 1G21G25G29G11
    116366.44945    295558.01545  26940417.0974   26940422.3114
      -640.7194       -499.2614          8.0004          5.7504
  13658510.31846  10668205.42946  24720121.4794   24720128.1124
     -4441.8444      -3461.1774         15.7504         13.5004
  -1580960.94945  -1129108.34045  26802009.0654   26802014.6794
      1596.4534       1243.9894          8.0004          6.7504
  20399707.37946  10461518.32445  25259206.7374   25259213.5464
     -3306.9374      -2576.8344         13.0004         10.5004
 -13642267.24648 -10524674.79747  23017547.2844   23017550.7064
      -759.5624       -591.8674         34.0004         31.7504
  23191860.27245  18121385.61445  25592877.8314   25592881.8274
     -3355.5624      -2614.7244         11.5004         10.0004
 -12421172.00548  -9528468.38946  23336892.9254   23336896.1714
     -1047.1254       -815.9424         31.2504         25.0004
 00  6 27  1 15 30.0070000  0  7G30G15G 1G21G25G29G11
    135832.23445    310726.23945  26944120.8864   26944124.7064
      -657.2664       -512.1554          8.0004          6.0004
  13791884.21246  10772133.04246  24745501.8084   24745508.1944
     -4449.9844      -3467.5204         16.2504         13.2504
  -1628787.61744  -1166375.61245  26792907.3234   26792912.9604
      1591.7034       1240.2884          7.0004          7.0004
  20499056.11646  10538932.83845  25278111.6834   25278118.4684
     -3316.5624      -2584.3344         12.5004         10.0004
 -13619218.24948 -10506714.50947  23021933.1444   23021936.3314
      -777.2974       -605.6864         34.0004         31.7504
  23292534.99545  18199833.43545  25612035.1594   25612040.4444
     -3356.3284      -2615.3214         10.7504         10.5004
 -12389469.20048  -9503764.90546  23342925.8394   23342929.2494
     -1066.6564       -831.1614         31.2504         25.0004
 00  6 27  1 16  0.0070000  0  7G30G15G 1G21G25G29G11
    155793.29245    326280.38345  26947919.2294   26947922.3474
      -673.5314       -524.8304          8.0004          5.7504
  13925499.03246  10876248.37746  24770928.9794   24770935.1204
     -4457.7194      -3473.5474         17.2504         12.7504
  -1676473.70744  -1203533.41245  26783833.4254   26783841.3394
      1587.2814       1236.8434          6.5004          6.5004
  20598691.58945  10616570.79145  25297071.1834   25297077.7224
     -3325.8594      -2591.5794         11.7504          9.5004
 -13595638.94848 -10488341.00047  23026420.0264   23026423.1084
      -794.7034       -619.2494         34.0004         31.7504
  23393230.79045  18278297.62845  25631196.7534   25631202.1794
     -3356.7814      -2615.6744         11.0004         10.2504
 -12357181.44148  -9478605.61446  23349069.9254   23349073.0894
     -1085.9064       -846.1614         31.2504         25.2504
 00  6 27  1 16 30.0080000  0  7G30G15G 1G21G25G29G11
    176250.49545    342221.08245  26951811.7424   26951815.0474
      -690.0624       -537.7114          7.5004          5.0004
  14059355.64446  10980552.11746  24796400.5164   24796406.2694
     -4465.5624      -3479.6594         16.7504         13.0004
  -1724021.46245  -1240583.40545  26774786.1334   26774795.6644
      1582.6414       1233.2264          7.5004          6.5004
  20698616.06246  10694433.96645  25316086.9614   25316092.8554
     -3335.3754      -2598.9944         12.7504         10.0004
 -13571529.83848 -10469554.64147  23031007.8834   23031011.1994
      -812.3284       -632.9834         34.0004         32.0004
  23493949.66945  18356779.85345  25650362.9304   25650368.4024
     -3357.4224      -2616.1734         10.7504          9.7504
 -12324308.79748  -9452990.57646  23355325.3754   23355328.6914
     -1105.3444       -861.3074         31.5004         25.0004
 00  6 27  1 17  0.0080000  0  7G30G15G 1G21G25G29G11
    197202.39445    358547.29945  26955800.0474   26955809.0044
      -706.8444       -550.7874          8.0004          5.2504
  14193441.06846  11085034.16646  24821915.7274   24821922.2304
     -4473.5474      -3485.8814         15.7504         13.7504
  -1771428.82545  -1277523.94545  26765764.3054   26765772.6874
      1577.7664       1229.4284          7.7504          6.7504
  20798821.40845  10772515.90745  25335154.9844   25335161.5354
     -3345.0944      -2606.5674         11.5004         10.0004
 -13546894.17348 -10450357.99047  23035695.7274   23035699.1024
      -830.1564       -646.8754         34.0004         31.7504
  23594683.37445  18435273.60445  25669531.9144   25669536.6484
     -3358.2664      -2616.8304         11.2504         10.5004
 -12290855.16848  -9426922.80746  23361691.1254   23361694.5944
     -1125.0004       -876.6234         31.0004         25.0004
 00  6 27  1 17 30.0080000  0  7G30G15G 1G21G25G29G11
    218656.75645    375264.97445  26959881.6094   26959888.1604
      -723.4224       -563.7054          8.2504          5.7504
  14327762.72246  11189700.26546  24847476.0394   24847483.4024
     -4481.1874      -3491.8344         14.7504         13.0004
  -1818691.41445  -1314351.71045  26756770.7194   26756780.3324
      1573.1094       1225.8004          7.7504          7.0004
  20899316.65045  10850823.81945  25354278.8204   25354285.1954
     -3354.5314      -2613.9204         11.7504         10.0004
 -13521724.95848 -10430745.59247  23040485.5394   23040488.7274
      -847.7664       -660.5974         34.0004         31.7504
  23695440.37945  18513785.49945  25688705.6094   25688710.7074
     -3358.8594      -2617.2934         11.2504         10.2504
 -12256813.41648  -9400396.77246  23368169.4454   23368172.9614
     -1144.4064       -891.7454         31.5004         25.0004
 00  6 27  1 18  0.0080000  0  7G30G15G 1G21G25G29G11
    240610.71145    392372.07445  26964058.4844   26964067.3714
      -740.0164       -576.6364          7.5004          6.0004
  14462314.01546  11294545.33246  24873080.3984   24873087.0554
     -4488.7034      -3497.6914         15.0004         13.0004
  -1865812.84044  -1351069.48445  26747802.8054   26747811.1294
      1568.4694       1222.1834          6.7504          6.5004
  21000097.25445  10929354.06845  25373456.5864   25373463.7974
     -3364.0004      -2621.2994         11.5004         10.0004
 -13496026.23648 -10410720.59147  23045375.7114   23045379.0394
      -865.3124       -674.2694         34.0004         32.0004
  23796216.56345  18592312.34145  25707882.1024   25707887.8204
     -3359.3594      -2617.6834         11.2504          9.7504
 -12222187.73848  -9373415.72646  23374758.2194   23374761.7114
     -1163.7814       -906.8434         31.2504         25.5004
 00  6 27  1 18 30.0080000  0  7G30G15G 1G21G25G29G11
    263062.10545    409866.70245  26968331.7814   26968340.3054
      -756.4694       -589.4564          8.2504          6.2504
  14597088.73646  11399564.49146  24898727.8054   24898734.1914
     -4495.9694      -3503.3524         14.7504         12.7504
  -1912796.52644  -1387679.99745  26738861.3054   26738866.3674
      1564.0474       1218.7384          6.5004          6.7504
  21101159.87946  11008104.06145  25392688.6644   25392695.9574
     -3373.2344      -2628.4944         12.0004         10.2504
 -13469802.57248 -10390286.53647  23050365.8444   23050369.0904
      -882.6564       -687.7844         34.0004         32.0004
  23897007.77745  18670850.88745  25727062.7814   25727068.0194
     -3359.7194      -2617.9634         11.2504         10.2504
 -12186982.02648  -9345982.69846  23381457.8364   23381461.2234
     -1182.9694       -921.7944         31.5004         25.2504
 00  6 27  1 19  0.0080000  0  7G30G15G 1G21G25G29G11
    286013.13045    427750.58145  26972698.7034   26972705.0554
      -773.4534       -602.6914          9.0004          6.5004
  14732085.61246  11504756.77246  24924416.7814   24924423.8054
     -4503.6564      -3509.3434         14.7504         12.5004
  -1959641.09744  -1424182.06445  26729947.3914   26729955.5984
      1559.0634       1214.8544          6.7504          7.0004
  21202505.79245  11087074.84645  25411974.7584   25411981.3554
     -3383.0004      -2636.1044         11.7504          9.7504
 -13443052.75648 -10369442.49847  23055456.0624   23055459.3674
      -900.5164       -701.7004         34.0004         31.7504
  23997815.02145  18749401.94045  25746245.6564   25746251.7624
     -3360.5784      -2618.6324         11.2504         10.0004
 -12151195.24648  -9318096.90046  23388267.4304   23388270.6874
     -1202.6724       -937.1474         30.5004         25.2504
 00  6 27  1 19 30.0080000  0  7G30G15G 1G21G25G29G11
    309465.13545    446024.88545  26977162.2894   26977169.0624
      -790.1094       -615.6704          9.5004          6.5004
  14867302.03846  11610120.11246  24950147.6954   24950154.6024
     -4510.8594      -3514.9554         14.7504         12.5004
  -2006346.19044  -1460575.40845  26721059.1954   26721069.8634
      1554.4844       1211.2874          7.2504          7.2504
  21304134.23245  11166265.73645  25431312.9304   25431320.0354
     -3392.3444      -2643.3854         11.0004          9.2504
 -13415776.48348 -10348188.23847  23060646.7274   23060649.8204
      -918.0004       -715.3254         34.0004         31.7504
  24098638.10245  18827965.33745  25765431.7974   25765436.6604
     -3361.0474      -2618.9984         11.7504         10.0004
 -12114827.47348  -9289758.37746  23395188.4224   23395191.7274
     -1221.9694       -952.1834         31.5004         25.0004
 00  6 27  1 20  0.0080000  0  7G30G15G 1G21G25G29G11
    333421.00345    464691.84545  26981720.4924   26981726.8554
      -807.2034       -628.9894          9.2504          6.5004
  15002736.98746  11715653.72446  24975920.7114   24975926.6174
     -4518.3594      -3520.8004         15.0004         12.2504
  -2052909.78245  -1496858.54445  26712197.9614   26712205.0784
      1549.5164       1207.4154          7.5004          7.5004
  21406046.76746  11245677.99445  25450706.9534   25450712.8484
     -3402.0784      -2650.9704         12.0004         10.2504
 -13387972.72048 -10326522.93747  23065937.6564   23065940.8674
      -935.8284       -729.2174         34.0004         32.2504
  24199478.22945  18906541.97945  25784621.4304   25784625.0274
     -3361.8594      -2619.6314         11.7504         10.5004
 -12077877.21548  -9260965.99046  23402219.7274   23402222.8554
     -1241.6254       -967.5004         31.2504         25.2504
 00  6 27  1 20 30.0080000  0  7G30G15G 1G21G25G29G11
    357885.10045    483754.87545  26986376.1484   26986385.3524
      -823.9844       -642.0664          8.2504          5.5004
  15138390.87146  11821357.95446  25001734.3284   25001740.4574
     -4525.4534      -3526.3274         14.5004         12.5004
  -2099328.64245  -1533028.87145  26703365.9774   26703373.0594
      1544.8444       1203.7744          8.7504          7.0004
  21508246.73546  11325314.26045  25470155.2504   25470162.1334
     -3411.5004      -2658.3124         12.5004         10.2504
 -13359638.50048 -10304444.29147  23071329.1024   23071332.4534
      -953.3284       -742.8534         34.0004         32.0004
  24300338.24646  18985134.12145  25803814.5704   25803820.0784
     -3362.3444      -2620.0084         12.5004         10.5004
 -12040341.56848  -9231717.43246  23409362.2664   23409365.8984
     -1260.9694       -982.5734         31.0004         25.0004
 00  6 27  1 21  0.0080000  0  7G30G15G 1G21G25G29G11
    382851.07144    503208.90945  26991126.1564   26991135.4414
      -840.5314       -654.9594          7.0004          5.5004
  15274253.54746  11927224.87346  25027587.9844   25027595.0084
     -4532.1564      -3531.5504         14.7504         12.7504
  -2145609.87345  -1569091.97245  26694557.4224   26694563.6564
      1540.4694       1200.3654          8.0004          7.5004
  21610726.27346  11405168.32845  25489656.5314   25489664.5394
     -3420.5944      -2665.3984         12.2504          9.7504
 -13330781.67948 -10281958.43447  23076820.4064   23076823.9804
      -970.5474       -756.2704         34.0004         31.7504
  24401210.26745  19063735.61245  25823009.3284   25823014.8124
     -3362.5474      -2620.1664         11.2504         10.2504
 -12002228.43448  -9202018.88946  23416615.2734   23416618.4964
     -1280.0004       -997.4034         32.0004         25.2504
 00  6 27  1 21 30.0080000  0  7G30G15G 1G21G25G29G11
    408321.23645    523055.83345  26995974.3364   26995981.8524
      -857.6094       -668.2674          7.7504          6.0004
  15410323.66846  12033253.42846  25053481.7504   25053488.2664
     -4539.2974      -3537.1144         15.0004         12.5004
  -2191751.99545  -1605046.76545  26685776.0004   26685783.0474
      1535.5474       1196.5304          7.5004          7.2504
  21713486.46246  11485241.13445  25509211.7274   25509217.6804
     -3430.2034      -2672.8864         12.2504          9.7504
 -13301400.86948 -10259064.26447  23082411.5474   23082414.5944
      -988.2814       -770.0894         34.0004         32.0004
  24502095.52245  19142347.42145  25842207.6174   25842212.7734
     -3363.2664      -2620.7264         11.0004         10.5004
 -11963536.66048  -9171869.45846  23423977.8124   23423981.1874
     -1299.5624      -1012.6464         31.2504         25.2504
 00  6 27  1 22  0.0080000  0  7G30G15G 1G21G25G29G11
    434297.01145    543296.73945  27000916.7894   27000926.4374
      -874.3594       -681.3194          9.0004          7.0004
  15546599.12646  12139441.99346  25079413.7584   25079419.6054
     -4545.9694      -3542.3134         14.5004         12.2504
  -2237754.15745  -1640892.40545  26677024.0554   26677032.4024
      1531.0004       1192.9874          8.5004          7.7504
  21816527.27946  11565532.60545  25528818.7034   25528824.6094
     -3439.4374      -2680.0814         12.2504          9.7504
 -13271495.88148 -10235761.63647  23088102.2424   23088105.5354
     -1005.6254       -783.6044         34.0004         32.0004
  24602994.15345  19220969.61945  25861407.8914   25861412.9184
     -3363.5784      -2620.9704         10.7504          9.5004
 -11924266.27248  -9141269.15446  23431451.1414   23431454.1054
     -1318.7194      -1027.5734         31.7504         25.2504
 00  6 27  1 22 30.0080000  0  7G30G15G 1G21G25G29G11
    460781.15445    563933.75745  27005955.9144   27005960.7544
      -891.2194       -694.4564          8.5004          6.0004
  15683078.82446  12245789.69846  25105385.3124   25105392.8984
     -4552.6254      -3547.5004         14.7504         12.2504
  -2283614.49445  -1676627.54145  26668297.3364   26668304.1214
      1526.3914       1189.3954          9.0004          7.7504
  21919850.76446  11646044.32845  25548481.3834   25548488.2774
     -3448.7344      -2687.3254         12.7504         10.5004
 -13241065.73748 -10212049.80347  23093892.8444   23093896.1604
     -1023.0164       -797.1554         34.0004         31.7504
  24703907.56045  19299603.37745  25880610.8834   25880616.6954
     -3363.9374      -2621.2504         10.7504         10.2504
 -11884415.91348  -9110216.93146  23439034.2424   23439037.2894
     -1337.9374      -1042.5494         31.7504         25.5004
 00  6 27  1 23  0.0080000  0  7G30G15G 1G21G25G29G11
    487774.64145    584967.66645  27011093.6874   27011097.6724
      -908.1414       -707.6424          9.0004          6.7504
  15819759.92146  12352294.36546  25131394.4454   25131401.7384
     -4559.2194      -3552.6384         14.5004         12.7504
  -2329332.90945  -1712252.09745  26659596.6174   26659603.5594
      1521.7194       1185.7554          8.5004          8.0004
  22023455.94746  11726775.57845  25568196.6954   25568203.1174
     -3458.0624      -2694.5944         12.7504         10.2504
 -13210110.97948 -10187929.17447  23099783.5164   23099786.4574
     -1040.4064       -810.7064         34.0004         32.0004
  24804835.19145  19378248.15245  25899816.9224   25899822.8874
     -3364.3594      -2621.5794         10.7504         10.0004
 -11843986.02848  -9078713.12946  23446728.0864   23446731.5084
     -1357.1724      -1057.5374         31.7504         25.2504
 00  6 27  1 23 30.0080000  0  7G30G15G 1G21G25G29G11
    515274.69045    606396.29645  27016326.4694   27016333.7734
      -925.0624       -720.8284          9.2504          6.7504
  15956636.07946  12458950.99246  25157442.2194   25157448.4884
     -4565.6874      -3557.6794         15.5004         12.2504
  -2374912.97845  -1747768.89145  26650922.6414   26650929.3444
      1517.0944       1182.1514          9.0004          8.5004
  22127339.23746  11807723.49945  25587964.6174   25587970.2774
     -3467.3444      -2701.8264         12.0004         10.0004
 -13178635.79748 -10163403.02747  23105772.9844   23105776.2194
     -1057.7664       -824.2334         34.0004         32.0004
  24905772.80145  19456900.79545  25919025.0394   25919029.6334
     -3364.7034      -2621.8474         11.0004          9.5004
 -11802980.92048  -9046761.10046  23454530.4144   23454534.0004
     -1376.3594      -1072.4884         30.5004         25.0004
 00  6 27  1 24  0.0080000  0  7G30G15G 1G21G25G29G11
    543280.89045    628219.34245  27021655.7194   27021658.5664
      -941.9534       -733.9894          9.0004          6.5004
  16093703.04546  12565756.30846  25183524.7894   25183531.1874
     -4572.0314      -3562.6224         15.0004         12.5004
  -2420356.04945  -1783178.87645  26642275.3124   26642282.5944
      1512.5164       1178.5844          9.2504          7.2504
  22231498.86745  11888886.75145  25607785.1724   25607791.9804
     -3476.5474      -2708.9984         11.5004          9.5004
 -13146642.33748 -10138473.02147  23111860.8524   23111864.0744
     -1075.0624       -837.7114         34.0004         32.0004
  25006718.89445  19535560.01245  25938234.7664   25938239.5824
     -3364.9844      -2622.0664         11.2504         10.2504
 -11761402.39848  -9014362.25146  23462442.8364   23462446.2814
     -1395.4844      -1087.3904         31.5004         25.0004
 00  6 27  1 24 30.0080000  0  7G30G15G 1G21G25G29G11
    571796.37245    650439.25745  27027080.9224   27027086.1024
      -959.2974       -747.5044          7.5004          5.7504
  16230960.46046  12672710.02546  25209644.2034   25209650.1094
     -4578.6724      -3567.7964         15.2504         12.0004
  -2465659.50845  -1818480.14045  26633654.2274   26633661.6254
      1507.4844       1174.6634          9.2504          8.0004
  22335936.62445  11970266.76045  25627659.5084   25627667.3874
     -3486.1564      -2716.4854         11.7504         10.0004
 -13114128.39948 -10113137.45647  23118048.0944   23118051.1294
     -1092.7504       -851.4944         34.0004         32.0004
  25107675.65545  19614227.54545  25957445.3754   25957449.7114
     -3365.6564      -2622.5894         10.7504         10.2504
 -11719248.66548  -8981515.20146  23470464.3444   23470467.8834
     -1414.9844      -1102.5854         31.0004         25.0004
 00  6 27  1 25  0.0080000  0  7G30G15G 1G21G25G29G11
    600824.97445    673059.00645  27032605.1644   27032608.4804
      -976.1724       -760.6534          8.0004          5.7504
  16368408.62246  12779812.38945  25235799.7974   25235805.9844
     -4584.7194      -3572.5084         14.5004         11.7504
  -2510820.28045  -1853670.23845  26625060.4304   26625066.6174
      1503.0314       1171.1934          9.5004          7.7504
  22440655.46746  12051865.76045  25647588.0474   25647594.0474
     -3495.2664      -2723.5844         12.5004         10.0004
 -13081091.26348 -10087394.20447  23124334.8204   23124338.1724
     -1109.9064       -864.8624         34.0004         32.0004
  25208645.43445  19692905.24445  25976660.0784   25976664.2734
     -3365.8444      -2622.7354         11.0004         10.2504
 -11676517.35048  -8948218.07846  23478595.9144   23478599.5944
     -1433.9694      -1117.3784         31.2504         25.0004
 00  6 27  1 25 30.0080000  0  7G30G15G 1G21G25G29G11
    630366.96745    696078.77345  27038227.4144   27038234.8244
      -993.1414       -773.8764          8.7504          6.0004
  16506043.70546  12887060.36845  25261991.3984   25261997.6684
     -4590.7814      -3577.2324         14.0004         11.5004
  -2555839.29845  -1888749.80945  26616492.6804   26616503.1604
      1498.4064       1167.5894          9.0004          8.2504
  22545653.78945  12133682.56845  25667567.2274   25667573.8364
     -3504.4374      -2730.7314         11.5004          9.7504
 -13047532.94248 -10061244.83547  23130720.9454   23130724.0274
     -1127.1564       -878.3044         34.0004         32.0004
  25309627.18145  19771592.27045  25995875.8594   25995880.7344
     -3366.1094      -2622.9424         10.0004         10.0004
 -11633209.98548  -8914472.08646  23486837.1564   23486840.4964
     -1453.0314      -1132.2324         31.5004         25.0004
 00  6 27  1 26  0.0080000  0  8G30G15G 1G21G22G25G29G11
    660421.06845    719497.54145  27043945.7894   27043951.4494
     -1010.1874       -787.1594          8.0004          6.0004
  16643861.62546  12994450.83345  25288216.6874   25288223.9454
     -4596.7974      -3581.9204         13.7504         11.2504
  -2600717.89545  -1923719.99245  26607952.7664   26607960.8204
      1493.7664       1163.9734          9.5004          8.2504
  22650929.61845  12215715.57445  25687601.3984   25687608.2934
     -3513.6564      -2737.9144         11.5004          9.5004
    -11163.86754                  27395032.8524
      2233.5634                          6.7504
 -13013455.14848 -10034690.67747  23137205.4844   23137208.6254
     -1144.4064       -891.7454         34.0004         32.0004
  25410618.90545  19850287.04945  26015094.1024   26015098.9064
     -3366.3914      -2623.1624         10.0004         10.0004
 -11589328.72148  -8880278.90746  23495187.2664   23495190.6174
     -1472.1094      -1147.0984         30.7504         25.0004
 00  6 27  1 26 30.0080000  0  8G30G15G 1G21G22G25G29G11
    690982.24845    743311.46145  27049761.4144   27049765.9844
     -1027.4064       -800.5764          8.5004          6.2504
  16781853.43846  13101976.80045  25314476.2274   25314484.1054
     -4602.8124      -3586.6074         14.0004         11.2504
  -2645461.88745  -1958585.31445  26599438.4064   26599446.7894
      1489.0004       1160.2604          9.0004          7.5004
  22756476.44545  12297959.80945  25707685.4304   25707692.4654
     -3522.9694      -2745.1704         10.7504          9.2504
    -78239.72745                  27382268.8054
      2237.9694                         10.0004
 -12978864.67448 -10007737.02747  23143787.9774   23143791.1644
     -1161.7974       -905.2964         34.0004         31.7504
  25511614.39645  19928984.78445  26034312.5164   26034318.2814
     -3366.8124      -2623.4904          9.7504          9.5004
 -11544879.97848  -8845643.54846  23503645.9374   23503649.1374
     -1491.2974      -1162.0504         31.7504         25.0004
 00  6 27  1 27  0.0080000  0  8G30G15G 1G21G22G25G29G11
    722054.06645    767523.34445  27055674.1644   27055681.0354
     -1044.2034       -813.6654          9.0004          6.5004
  16920019.13546  13209638.27045  25340767.9694   25340774.5784
     -4608.3444      -3590.9174         13.5004         11.5004
  -2690068.66245  -1993343.66545  26590949.4064   26590957.2384
      1484.6724       1156.8874          9.2504          8.5004
  22862296.57245  12380416.97345  25727822.6954   25727830.7384
     -3531.8284      -2752.0744         10.7504          9.7504
   -145452.16445                  27369477.1484
      2242.7344                          7.5004
 -12943759.47148  -9980382.29547  23150468.3524   23150471.2814
     -1178.6874       -918.4584         34.0004         31.7504
  25612615.91045  20007687.20945  26053533.1804   26053538.6174
     -3366.7504      -2623.4424         10.5004          9.7504
 -11499862.20348  -8810564.77546  23512212.5004   23512216.2274
     -1510.0164      -1176.6364         31.2504         25.0004
 00  6 27  1 27 30.0080000  0  8G30G15G 1G21G22G25G29G11
    753636.70445    792133.30145  27061684.1644   27061689.8124
     -1061.2814       -826.9724          9.2504          5.7504
  17058355.26046  13317432.53045  25367092.2734   25367099.9414
     -4614.0314      -3595.3494         13.0004         11.0004
  -2734538.66445  -2027995.43045  26582486.5554   26582493.2934
      1480.0474       1153.2834          9.5004          8.7504
  22968388.88345  12463086.21245  25748012.4614   25748019.3914
     -3540.9374      -2759.1724         11.2504          9.7504
   -212798.91045    -33245.44755  27356661.3674   27356674.1334
      2247.0784       1750.9704          8.0004          6.2504
 -12908140.43048  -9952627.16447  23157246.3754   23157249.3634
     -1195.8594       -931.8384         34.0004         32.0004
  25713622.33045  20086393.47345  26072754.1644   26072760.2344
     -3366.9534      -2623.6004         10.5004          9.0004
 -11454276.46348  -8775043.43746  23520887.2814   23520890.7974
     -1528.9844      -1191.4164         31.7504         25.0004
 00  6 27  1 28  0.0080000  0  8G30G15G 1G21G22G25G29G11
    785732.98545    817143.38945  27067791.9374   27067798.4884
     -1078.5164       -840.4024          8.5004          6.5004
  17196861.42346  13425359.28145  25393449.3754   25393456.9614
     -4619.7344      -3599.7934         13.5004         11.0004
  -2778869.62445  -2062538.90045  26574050.1954   26574057.2074
      1475.2974       1149.5824          8.7504          8.2504
  23074755.25045  12545969.01845  25768252.3594   25768258.4654
     -3550.1724      -2766.3684         11.0004          9.7504
   -280274.90145    -85824.03945  27343822.2424   27343836.9064
      2251.2504       1754.2214          7.5004          6.5004
 -12872006.57248  -9924470.87147  23164122.1334   23164125.4614
     -1213.1094       -945.2804         34.0004         31.7504
  25814635.87945  20165105.25745  26091975.8124   26091980.0194
     -3367.2974      -2623.8684          9.7504          9.0004
 -11408121.21848  -8739078.33146  23529669.7734   23529672.9844
     -1548.0624      -1206.2824         30.7504         25.0004
 00  6 27  1 28 30.0080000  0  8G30G15G 1G21G22G25G29G11
    818341.42245    842552.58545  27073997.0554   27074000.8754
     -1095.3444       -853.5154          8.5004          6.2504
  17335532.37846  13533414.46045  25419838.1954   25419845.4774
     -4624.9374      -3603.8474         13.5004         11.0004
  -2823063.56345  -2096975.56745  26565641.7274   26565649.9454
      1470.9694       1146.2094          9.5004          8.2504
  23181393.11845  12629063.39045  25788544.2504   25788551.6024
     -3558.9694      -2773.2224         10.2504          9.5004
   -347880.35445   -138503.43045  27330958.3984   27330968.7034
      2255.7814       1757.7524          9.5004          7.2504
 -12835360.41948  -9895915.39847  23171095.8754   23171099.0744
     -1229.9224       -958.3814         34.0004         31.7504
  25915653.96245  20243820.59245  26111198.8054   26111203.9024
     -3367.2034      -2623.7954         10.2504          9.5004
 -11361399.47648  -8702671.80946  23538560.6334   23538564.1604
     -1566.6724      -1220.7834         30.2504         24.7504
 00  6 27  1 29  0.0080000  0  8G30G15G 1G21G22G25G29G11
    851463.34845    868361.89945  27080300.0004   27080305.2854
     -1112.5624       -866.9324          8.2504          6.7504
  17474366.20946  13641596.50445  25446257.3444   25446263.3204
     -4630.4224      -3608.1214         13.0004         10.0004
  -2867119.68545  -2131304.89445  26557257.1724   26557263.2664
      1466.2814       1142.5574          9.2504          7.5004
  23288302.50045  12712369.29845  25808889.6024   25808897.1644
     -3568.1094      -2780.3454         10.5004          9.5004
   -415611.61144   -191280.81245  27318066.8524   27318078.1644
      2259.7974       1760.8814          6.7504          7.0004
 -12798202.19348  -9866960.89547  23178166.8444   23178169.8554
     -1247.0784       -971.7494         34.0004         31.7504
  26016676.90045  20322539.68645  26130423.4844   26130428.8054
     -3367.4694      -2624.0024         10.0004          8.7504
 -11314111.48348  -8665824.04446  23547559.9774   23547563.1644
     -1585.6414      -1235.5644         32.0004         25.2504
 00  6 27  1 29 30.0080000  0  8G30G15G 1G21G22G25G29G11
    885099.51445    894571.89545  27086700.9454   27086707.3554
     -1130.1874       -880.6664          8.7504          7.0004
  17613360.74045  13749903.80845  25472706.4064   25472713.5944
     -4636.2034      -3612.6264         11.7504         10.2504
  -2911037.44245  -2165526.30345  26548901.1024   26548907.9104
      1461.2194       1138.6124         10.0004          7.2504
  23395483.60645  12795886.98145  25829285.8984   25829292.0274
     -3577.6254      -2787.7604         11.5004          9.2504
   -483464.99345   -244153.47645  27305155.5784   27305164.5124
      2263.4064       1763.6934          8.0004          6.7504
 -12760531.83048  -9837607.33347  23185335.0944   23185338.2344
     -1264.5944       -985.3984         34.0004         31.5004
  26117705.03345  20401262.86045  26149648.3594   26149654.9924
     -3368.0784      -2624.4764         10.0004          9.2504
 -11266257.38648  -8628535.17546  23556666.0864   23556669.8124
     -1604.9534      -1250.6134         31.2504         25.0004
 00  6 27  1 30  0.0080000  0  8G30G15G 1G21G22G25G29G11
    919253.99745    921185.91745  27093201.1024   27093210.1994
     -1147.0004       -893.7664         10.0004          7.2504
  17752516.47346  13858336.72545  25499187.6334   25499194.8444
     -4641.0624      -3616.4124         12.0004          9.5004
  -2954813.90945  -2199637.68345  26540569.7504   26540575.4454
      1456.9844       1135.3134          9.2504          7.5004
  23502939.05945  12879618.42345  25849734.1254   25849741.6644
     -3586.2974      -2794.5174         11.5004          9.5004
   -551434.67344   -297116.71245  27292221.5314   27292233.8404
      2267.6724       1767.0174          6.5004          6.5004
 -12722347.18748  -9807853.04147  23192601.3124   23192604.3364
     -1281.2504       -998.3774         34.0004         31.7504
  26218741.04045  20479992.14245  26168875.5004   26168880.7154
     -3367.8914      -2624.3304         10.5004          9.5004
 -11217834.96648  -8590803.44046  23565880.2424   23565883.8984
     -1623.4064      -1264.9924         30.2504         24.7504
 00  6 27  1 30 30.0080000  0  8G30G15G 1G21G22G25G29G11
    953921.59145    948199.63445  27099797.3914   27099807.4264
     -1164.0784       -907.0744          9.5004          5.7504
  17891824.70445  13966888.47745  25525697.3594   25525704.0514
     -4646.0164      -3620.2724         11.7504          9.7504
  -2998454.72745  -2233643.32445  26532264.1484   26532271.4184
      1452.5004       1131.8184          9.0004          7.5004
  23610662.43145  12963558.62545  25870232.9774   25870240.7734
     -3595.1564      -2801.4204         10.2504          9.2504
   -619523.85343   -350173.04645  27279263.1954   27279275.5984
      2271.6884       1770.1464          5.7504          6.7504
 -12683654.92048  -9777703.18947  23199964.2274   23199967.3914
     -1298.1254      -1011.5264         34.0004         31.7504
  26319778.95745  20558722.92145  26188101.7814   26188107.6644
     -3367.8754      -2624.3184          9.5004          9.0004
 -11168851.01748  -8552634.15546  23575201.8204   23575205.5004
     -1642.0784      -1279.5414         30.7504         24.7504
 00  6 27  1 31  0.0080000  0  8G30G15G 1G21G22G25G29G11
    989107.70445    975617.40545  27106493.2894   27106495.4694
     -1181.6414       -920.7594          8.7504          6.0004
  18031287.28146  14075560.48045  25552236.1024   25552243.5704
     -4651.4224      -3624.4854         12.2504          9.7504
  -3041954.95345  -2267539.46045  26523987.0234   26523992.4494
      1447.5474       1127.9594          9.5004          7.5004
  23718657.95745  13047710.88145  25890784.5394   25890792.9104
     -3604.5004      -2808.7014         11.0004          9.5004
   -687725.30243   -403316.83145  27266286.3754   27266296.4924
      2275.0784       1772.7884          6.0004          6.2504
 -12644451.06748  -9747154.70647  23207424.5704   23207427.5234
     -1315.4374      -1025.0164         34.0004         31.7504
  26420823.35045  20637458.75545  26207330.8364   26207336.5554
     -3368.3754      -2624.7084         10.0004          9.5004
 -11119301.42248  -8514024.10746  23584630.7034   23584633.7974
     -1661.1874      -1294.4324         30.7504         24.7504
 00  6 27  1 31 30.0080000  0  8G30G15G 1G21G22G25G29G11
   1024814.90745   1003441.26545  27113287.6804   27113293.1174
     -1199.0944       -934.3594          8.5004          5.5004
  18170903.60645  14184352.28545  25578804.0784   25578811.4654
     -4656.5474      -3628.4784         11.5004          9.7504
  -3085312.40745  -2301324.25745  26515736.1804   26515743.1094
      1442.7194       1124.1964          9.7504          7.7504
  23826927.12945  13132076.39745  25911387.0784   25911392.9734
     -3613.6724      -2815.8484         11.5004          8.7504
   -756033.90144   -456544.13145  27253287.6254   27253298.8204
      2278.5784       1775.5154          6.2504          6.0004
 -12604734.11648  -9716206.40847  23214982.5234   23214985.4774
     -1332.6094      -1038.3974         34.0004         31.5004
  26521876.03145  20716201.01945  26226559.7034   26226565.1054
     -3368.7034      -2624.9634          9.5004          8.7504
 -11069184.95548  -8474972.34546  23594167.7894   23594171.2694
     -1680.1414      -1309.2004         31.2504         24.7504
 00  6 27  1 32  0.0080000  0  8G30G15G 1G21G22G25G29G11
   1061042.67145   1031670.76645  27120181.6094   27120187.8914
     -1216.1724       -947.6664          9.0004          5.7504
  18310669.78945  14293260.89145  25605400.1254   25605406.5824
     -4661.2664      -3632.1554         11.2504         10.0004
  -3128528.23545  -2334998.74345  26507511.8754   26507518.1564
      1438.2504       1120.7144          9.0004          7.7504
  23935468.34245  13216653.90845  25932040.8674   25932048.1024
     -3622.4844      -2822.7154         10.2504          8.7504
   -824447.66644   -509853.24145  27240268.7194   27240276.7034
      2282.2664       1778.3894          6.5004          6.0004
 -12564505.96548  -9684859.77347  23222637.3754   23222640.4104
     -1349.3594      -1051.4494         34.0004         32.0004
  26622935.42245  20794948.54145  26245790.4534   26245797.1214
     -3368.6724      -2624.9394          8.2504          8.2504
 -11018503.73748  -8435480.51146  23603812.0394   23603815.8594
     -1698.6874      -1323.6534         30.7504         24.7504
 00  6 27  1 32 30.0080000  0  8G30G15G 1G21G22G25G29G11
   1097789.74845   1060304.82745  27127173.5164   27127179.5744
     -1233.4694       -961.1444          9.0004          6.0004
  18450581.69645  14402283.02245  25632024.5624   25632032.1484
     -4666.0164      -3635.8564         11.2504         10.2504
  -3171603.97045  -2368564.06345  26499314.6484   26499321.7304
      1433.6414       1117.1234          9.0004          7.7504
  24044279.48145  13301441.71445  25952748.8524   25952756.4144
     -3631.4224      -2829.6794         11.0004          9.0004
   -892965.10743   -563243.31345  27227227.4454   27227239.8834
      2285.7344       1781.0924          5.5004          6.5004
 -12523768.92548  -9653116.60247  23230389.3594   23230392.6874
     -1366.2664      -1064.6234         34.0004         32.0004
  26724000.07145  20873700.14745  26265022.9374   26265027.6954
     -3368.7974      -2625.0374          8.5004          7.5004
 -10967260.23448  -8395550.52246  23613563.0234   23613566.8674
     -1717.3754      -1338.2144         30.0004         24.5004
 00  6 27  1 33  0.0080000  0  8G30G15G 1G21G22G25G29G11
   1135057.25645   1089344.46345  27134266.1024   27134271.6914
     -1250.8284       -974.6714          9.2504          6.7504
  18590636.89445  14511416.83545  25658677.4304   25658684.8054
     -4670.7344      -3639.5334         11.5004         10.2504
  -3214539.24445  -2402019.93945  26491145.0944   26491151.1524
      1428.9534       1113.4704          9.5004          8.5004
  24153360.58045  13386439.88445  25973504.5944   25973511.7934
     -3640.4374      -2836.7054          9.2504          8.5004
   -961583.57943   -616712.07345  27214170.4844   27214185.5354
      2289.0634       1783.6854          5.5004          6.5004
 -12482523.54948  -9620977.32447  23238238.2664   23238241.2074
     -1383.1874      -1077.8084         34.0004         31.7504
  26825069.74745  20952455.66145  26284256.3754   26284260.3124
     -3368.9374      -2625.1464          8.7504          8.7504
 -10915455.17848  -8355182.96146  23623421.3524   23623424.9964
     -1736.0784      -1352.7884         30.2504         24.5004
 00  6 27  1 33 30.0080000  0  8G30G15G 1G21G22G25G29G11
   1172838.83945   1118784.67745  27141456.0164   27141461.8634
     -1267.9534       -988.0154          8.2504          6.0004
  18730825.86145  14620654.84445  25685354.0704   25685362.2664
     -4675.1724      -3642.9914         11.5004         10.2504
  -3257340.64445  -2435371.47145  26482999.3594   26483005.4184
      1424.4694       1109.9764          8.7504          7.7504
  24262704.79645  13471643.10745  25994311.8284   25994318.3324
     -3649.2034      -2843.5354          8.7504          8.0004
  -1030307.12942   -670262.61845  27201094.4454   27201105.1254
      2292.5164       1786.3764          4.7504          5.7504
 -12440777.31748  -9588447.76547  23246182.0474   23246185.3054
     -1399.8754      -1090.8124         34.0004         31.5004
  26926137.87645  21031209.98045  26303487.7034   26303493.3874
     -3368.9374      -2625.1464          8.2504          7.0004
 -10863096.06848  -8314383.66646  23633385.4774   23633388.9224
     -1754.5314      -1367.1674         31.5004         24.7504
 00  6 27  1 34  0.0080000  0  8G30G15G 1G21G22G25G29G11
   1211139.16145   1148629.18345  27148743.9924   27148747.9414
     -1285.3124      -1001.5424          7.7504          4.5004
  18871150.28346  14729998.41645  25712057.2344   25712064.5984
     -4679.6874      -3646.5104         12.0004         10.2504
  -3300003.62745  -2468615.13345  26474881.1414   26474887.8094
      1419.8444       1106.3724          9.0004          8.2504
  24372315.55345  13557053.99345  26015171.6414   26015177.6294
     -3658.0944      -2850.4634          9.5004          7.5004
  -1099128.26443   -723889.23345  27187997.6564   27188009.8834
      2295.6564       1788.8234          5.2504          5.7504
 -12398526.68448  -9555525.16947  23254222.3054   23254225.3634
     -1416.7194      -1103.9374         34.0004         31.5004
  27027208.54445  21109966.24745  26322722.1024   26322728.9614
     -3369.0314      -2625.2194          9.0004          7.2504
 -10810179.40948  -8273149.91346  23643454.8054   23643458.3794
     -1773.1414      -1381.6684         30.7504         24.5004
 00  6 27  1 34 30.0080000  0  8G30G15G 1G21G22G25G29G11
   1249956.15645   1178876.14245  27156130.9694   27156135.1054
     -1302.0784      -1014.6064          9.0004          4.7504
  19011604.68646  14839443.27345  25738785.5314   25738791.5194
     -4683.5004      -3649.4814         12.5004         10.2504
  -3342530.76745  -2501752.95645  26466788.4144   26466795.8014
      1415.7504       1103.1824          8.7504          7.2504
  24482189.61745  13642670.07945  26036079.2344   26036085.9494
     -3666.4224      -2856.9524          9.0004          8.0004
  -1168046.40343   -777591.40645  27174882.1254   27174892.7584
      2299.2814       1791.6484          6.0004          6.5004
 -12355775.45648  -9522212.49447  23262357.7424   23262360.6724
     -1432.9374      -1116.5754         34.0004         31.5004
  27128279.04445  21188722.40045  26341955.0784   26341961.6994
     -3368.5624      -2624.8544          8.5004          7.2504
 -10756709.14048  -8231484.76946  23653629.8594   23653633.6334
     -1791.1094      -1395.6704         30.2504         24.2504
 00  6 27  1 35  0.0080000  0  8G30G15G 1G21G22G25G29G11
   1289289.37144   1209525.33445  27163614.3204   27163618.7384
     -1319.8594      -1028.4624          7.2504          5.7504
  19152185.28546  14948986.43445  25765536.9374   25765544.8054
     -4688.2504      -3653.1824         12.5004         10.7504
  -3384923.15245  -2534785.76045  26458721.2194   26458728.3834
      1410.6884       1099.2374          9.0004          8.0004
  24592325.25345  13728489.92345  26057037.6254   26057046.9694
     -3675.7034      -2864.1844          9.0004          7.2504
  -1237059.69843   -831367.85345  27161749.1804   27161759.9064
      2301.8754       1793.6694          6.0004          5.5004
 -12312525.39648  -9488511.12347  23270587.5234   23270590.5704
     -1450.1254      -1129.9684         34.0004         31.5004
  27229347.77745  21267477.23245  26361188.1564   26361193.4414
     -3369.0624      -2625.2444          9.0004          8.0004
 -10702687.35748  -8189389.87446  23663910.0164   23663913.3914
     -1810.0624      -1410.4384         31.0004         24.5004
 00  6 27  1 35 30.0080000  0  8G30G15G 1G21G22G25G29G11
   1329140.28345   1240578.07744  27171199.0084   27171204.7624
     -1337.0944      -1041.8914          7.5004          4.2504
  19292890.67745  15058626.90245  25792312.0314   25792319.6414
     -4692.3124      -3656.3474         11.2504          9.5004
  -3427179.38645  -2567712.52145  26450679.9924   26450685.6174
      1406.1884       1095.7314          9.2504          8.2504
  24702723.03845  13814514.15145  26078045.2424   26078050.1414
     -3684.3914      -2870.9544          9.2504          7.0004
  -1306164.41943   -885215.33545  27148598.6174   27148609.9184
      2304.8754       1796.0064          5.0004          6.2504
 -12268776.01848  -9454420.67447  23278912.7034   23278915.9844
     -1466.7034      -1142.8864         33.7504         31.2504
  27330416.00345  21346231.62145  26380420.4374   26380426.4264
     -3369.0164      -2625.2074          9.2504          7.7504
 -10648113.68448  -8146864.93146  23674295.0704   23674298.3164
     -1828.3914      -1424.7204         31.2504         24.5004
 00  6 27  1 36  0.0080000  0  8G30G15G 1G21G22G25G29G11
   1369513.07645   1272037.42644  27178881.4304   27178885.3674
     -1354.3754      -1055.3574          7.7504          4.2504
  19433721.77346  15168365.26345  25819111.2584   25819119.0434
     -4696.3444      -3659.4894         12.2504         10.5004
  -3469295.68745  -2600530.21845  26442664.9694   26442671.2504
      1401.6414       1092.1884          9.2504          8.5004
  24813386.38845  13900745.25445  26099104.4614   26099111.4264
     -3693.0784      -2877.7234          9.5004          6.2504
  -1375354.17843   -939129.19145  27135432.0944   27135444.9654
      2307.8134       1798.2954          5.7504          7.0004
 -12224524.76648  -9419939.15947  23287333.6724   23287336.6374
     -1483.2974      -1155.8164         34.0004         31.5004
  27431487.45045  21424988.52545  26399653.8124   26399659.7894
     -3368.9694      -2625.1704          8.2504          6.7504
 -10592985.66748  -8103908.04046  23684785.3284   23684788.8914
     -1846.7344      -1439.0144         30.5004         24.2504
 00  6 27  1 36 30.0080000  0  8G30G15G 1G21G22G25G29G11
   1410406.91544   1303902.76445  27186661.8834   27186670.9574
     -1372.0474      -1069.1274          7.2504          6.2504
  19574674.89445  15278198.73145  25845933.6804   25845943.0594
     -4700.6874      -3662.8734         11.5004         10.5004
  -3511273.27745  -2633239.81845  26434676.8124   26434683.3054
      1396.7194       1088.3524          9.5004          7.7504
  24924313.35945  13987181.75845  26120213.5944   26120222.5984
     -3702.1724      -2884.8094          9.2504          6.7504
  -1444626.73944   -993107.52745  27122251.2114   27122260.7664
      2310.2194       1800.1704          6.5004          6.5004
 -12179773.27248  -9385067.84347  23295849.6954   23295852.5904
     -1500.2664      -1169.0384         34.0004         31.7504
  27532560.44445  21503746.66445  26418887.4144   26418895.5274
     -3369.3594      -2625.4754          8.0004          7.0004
 -10537305.35948  -8060520.78546  23695381.1564   23695385.1174
     -1865.4224      -1453.5754         30.7504         24.2504
 00  6 27  1 37  0.0080000  0  8G30G15G 1G21G22G25G29G11
   1451816.54445   1336169.98345  27194543.4534   27194550.3244
     -1389.0004      -1082.3384          8.5004          5.7504
  19715741.70945  15388120.79045  25872777.1174   25872785.6414
     -4704.1564      -3665.5764         10.5004         10.5004
  -3553117.45245  -2665845.51445  26426714.0864   26426720.4144
      1392.5164       1085.0774          9.7504          9.0004
  25035498.12545  14073819.13545  26141369.2114   26141377.6764
     -3710.5164      -2891.3114          7.5004          6.7504
  -1513984.58244  -1047152.33845  27109051.7814   27109063.5624
      2313.2504       1802.5324          6.2504          6.7504
 -12134528.22348  -9349811.94047  23304459.2974   23304462.4024
     -1516.4374      -1181.6404         34.0004         31.2504
  27633629.61045  21582501.79745  26438120.5314   26438126.0984
     -3368.9694      -2625.1704          8.5004          7.5004
 -10481079.59748  -8016708.49446  23706080.4694   23706083.9734
     -1883.3444      -1467.5414         30.5004         24.2504
 00  6 27  1 37 30.0080000  0  8G30G15G 1G21G22G25G29G11
   1493748.48045   1368844.28845  27202522.8914   27202527.4494
     -1406.4064      -1095.9014          9.0004          6.2504
  19856925.53045  15498134.03445  25899644.0624   25899651.7304
     -4708.0164      -3668.5844         10.7504         10.0004
  -3594822.12245  -2698342.49445  26418778.4694   26418784.0704
      1387.8594       1081.4494         10.7504          8.7504
  25146945.89545  14160661.50445  26162578.5394   26162585.4344
     -3719.2344      -2898.1054          9.0004          7.7504
  -1583418.36644  -1101256.22745  27095838.3674   27095846.5864
      2315.7344       1804.4684          7.0004          6.7504
 -12088784.39648  -9314167.38147  23313163.8204   23313166.9844
     -1533.0624      -1194.5944         34.0004         31.2504
  27734700.98545  21661258.62445  26457352.4224   26457358.8914
     -3369.0314      -2625.2194          8.0004          7.7504
 -10424303.27048  -7972467.18746  23716884.6724   23716888.3874
     -1901.6724      -1481.8224         30.2504         24.0004
 00  6 27  1 38  0.0080000  0  8G30G15G 1G21G22G25G29G11
   1536201.95745   1401924.83945  27210601.6094   27210608.1134
     -1423.6564      -1109.3434          8.0004          6.2504
  19998222.68445  15608235.58645  25926532.4374   25926539.5194
     -4711.5944      -3671.3724         10.5004          9.2504
  -3636388.38745  -2730731.61945  26410867.8124   26410875.2584
      1383.4064       1077.9794         10.0004          8.2504
  25258655.14645  14247707.59845  26183836.1724   26183843.6874
     -3727.8444      -2904.8134          9.5004          8.0004
  -1652926.86244  -1155418.45345  27082611.4454   27082624.2234
      2318.3284       1806.4894          6.7504          6.0004
 -12042544.15448  -9278135.99947  23321963.3834   23321966.3124
     -1549.4374      -1207.3544         34.0004         31.7504
  27835773.10745  21740016.08845  26476586.7584   26476593.1094
     -3368.9064      -2625.1224          8.5004          6.7504
 -10366978.61848  -7927798.62146  23727792.9534   23727796.6094
     -1919.7664      -1495.9214         30.0004         23.7504
 00  6 27  1 38 30.0080000  0  8G30G15G 1G21G22G25G29G11
   1579179.57645   1435413.95945  27218779.8364   27218788.4184
     -1441.3754      -1123.1494          8.0004          6.7504
  20139632.92645  15718425.23145  25953441.9224   25953449.5664
     -4715.5944      -3674.4894         10.7504          9.7504
  -3677813.79845  -2763010.98545  26402983.6174   26402989.9344
      1378.4534       1074.1194          9.2504          8.5004
  25370627.76545  14334958.87945  26205145.1804   26205151.2384
     -3736.8594      -2911.8384         10.2504          8.0004
  -1722504.90244  -1209634.75545  27069369.9844   27069380.5004
      2320.3444       1808.0604          7.0004          7.0004
 -11995806.13048  -9241716.73847  23330857.2504   23330860.1564
     -1566.2664      -1220.4674         34.0004         31.7504
  27936848.52745  21818776.10545  26495821.1644   26495827.1054
     -3369.2664      -2625.4024          9.2504          6.7504
 -10309104.53348  -7882701.92046  23738806.2034   23738809.7194
     -1938.3284      -1510.3864         30.2504         23.7504
 00  6 27  1 39  0.0080000  0  8G30G15G 1G21G22G25G29G11
   1622676.36845   1469307.57445  27227056.5004   27227061.1994
     -1458.5944      -1136.5674          7.7504          5.7504
  20281148.34145  15828696.85445  25980371.9694   25980380.1994
     -4718.9224      -3677.0824         11.0004          9.5004
  -3719103.38145  -2795184.51145  26395127.7664   26395134.9774
      1374.0314       1070.6744         10.2504          8.5004
  25482857.86545  14422410.84145  26226500.0864   26226507.0274
     -3745.3284      -2918.4374          9.5004          8.5004
  -1792154.10345  -1263906.54945  27056116.7194   27056128.4184
      2322.7504       1809.9354          8.0004          6.7504
 -11948576.58448  -9204914.47447  23339844.6644   23339847.8984
     -1582.5314      -1233.1414         34.0004         31.2504
  28037921.76345  21897534.40345  26515055.3984   26515061.6334
     -3369.0784      -2625.2564          9.7504          7.5004
 -10250687.42448  -7837182.08246  23749922.7344   23749926.4024
     -1956.2974      -1524.3874         30.0004         23.7504
 00  6 27  1 39 30.0080000  0  8G30G15G 1G21G22G25G29G11
   1666693.49744   1503606.64045  27235432.2894   27235438.6414
     -1475.7664      -1149.9474          7.0004          5.2504
  20422767.23145  15939049.05445  26007321.6334   26007329.1374
     -4722.1564      -3679.6024         11.2504          9.0004
  -3760256.04745  -2827251.37645  26387295.9304   26387301.8484
      1369.6254       1067.2404         10.2504          8.5004
  25595345.42945  14510063.40745  26247905.7194   26247911.4264
     -3753.7034      -2924.9634          9.5004          8.0004
  -1861870.37144  -1318230.59545  27042849.5314   27042863.5624
      2325.0944       1811.7614          7.2504          6.2504
 -11900855.31948  -9167729.04947  23348925.6484   23348928.6604
     -1598.7344      -1245.7674         34.0004         31.2504
  28138993.77545  21976291.69545  26534287.5234   26534293.4304
     -3368.8914      -2625.1104          9.2504          7.2504
 -10191727.32848  -7791239.14046  23761142.2814   23761145.8554
     -1974.2194      -1538.3524         30.0004         23.7504
 00  6 27  1 40  0.0080000  0  8G30G15G 1G21G22G25G29G11
   1711233.74345   1538313.35145  27243908.4224   27243913.6844
     -1493.2194      -1163.5474          7.7504          5.7504
  20564489.63045  16049481.93845  26034291.3984   26034297.1874
     -4725.5944      -3682.2814         11.5004          9.2504
  -3801269.06645  -2859209.40245  26379492.4534   26379498.9104
      1364.9534       1063.6004         11.0004          8.7504
  25708092.56545  14597918.25045  26269361.4454   26269367.4694
     -3762.3754      -2931.7214         10.2504          7.2504
  -1931647.89045  -1372602.42445  27029571.9374   27029582.9454
      2327.0944       1813.3204          9.0004          6.7504
 -11852640.44448  -9130158.99147  23358100.9064   23358103.6844
     -1615.2034      -1258.6004         34.0004         31.2504
  28240067.19045  22055050.11645  26553522.2814   26553528.0004
     -3368.9694      -2625.1704          9.5004          7.0004
 -10132222.77948  -7744871.96246  23772465.3754   23772469.0084
     -1992.3594      -1552.4884         29.0004         23.2504
 00  6 27  1 40 30.0080000  0  8G30G15G 1G21G22G25G29G11
   1756290.18745   1573422.19345  27252482.6414   27252492.1954
     -1510.6724      -1177.1474          8.2504          6.5004
  20706305.36345  16159987.60245  26061277.6724   26061284.0234
     -4728.9064      -3684.8624         11.0004          9.0004
  -3842150.06345  -2891064.54745  26371713.3834   26371719.6874
      1360.2814       1059.9594         11.5004          9.0004
  25821091.92845  14685969.63545  26290865.7194   26290871.4494
     -3771.0474      -2938.4784         11.7504          9.0004
  -2001491.80845  -1427025.93945  27016280.9924   27016289.8204
      2329.0004       1814.8054          8.5004          6.7504
 -11803940.45748  -9092210.92447  23367367.8284   23367370.8404
     -1631.5944      -1271.3724         34.0004         31.5004
  28341134.31445  22133803.63545  26572753.7274   26572759.2114
     -3369.0004      -2625.1954          8.7504          7.2504
 -10072182.62348  -7698087.41646  23783890.6564   23783894.5474
     -2010.4534      -1566.5874         29.0004         23.5004
 00  6 27  1 41  0.0080000  0  8G30G15G 1G21G22G25G29G11
   1801867.39645   1608936.89945  27261155.3594   27261161.4184
     -1528.0164      -1190.6624          8.2504          6.0004
  20848216.42045  16270567.49245  26088281.4224   26088289.2304
     -4732.0164      -3687.2854          9.5004          9.2504
  -3882894.39245  -2922813.25145  26363958.4694   26363964.0234
      1355.7974       1056.4654         10.5004          9.2504
  25934347.01745  14774220.29445  26312416.5554   26312422.4264
     -3779.5004      -2945.0654         10.5004          8.5004
  -2071394.38745  -1481495.17845  27002978.3984   27002989.8404
      2330.9384       1816.3154          8.5004          7.0004
 -11754752.15048  -9053882.35847  23376728.1024   23376731.1604
     -1647.8124      -1284.0104         34.0004         31.0004
  28442199.96445  22212556.04545  26591985.7194   26591990.6414
     -3368.9224      -2625.1344          8.7504          7.2504
 -10011603.35848  -7650882.79146  23795418.3124   23795422.1214
     -2028.3594      -1580.5404         29.0004         23.2504
 00  6 27  1 41 30.0080000  0  8G30G15G 1G21G22G25G29G11
   1847966.76545   1644858.50545  27269928.1564   27269933.0904
     -1545.0624      -1203.9454          8.7504          6.0004
  20990221.17545  16381220.41245  26115304.8444   26115313.8364
     -4734.7504      -3689.4164          9.5004          9.0004
  -3923500.95145  -2954454.52145  26356230.9614   26356236.6334
      1351.5314       1053.1414         10.0004          9.0004
  26047858.03045  14862670.35345  26334017.1484   26334024.1484
     -3787.6874      -2951.4454         10.0004          8.2504
  -2141351.15345  -1536006.62445  26989665.6954   26989675.8484
      2333.0474       1817.9594          8.7504          6.2504
 -11705075.53848  -9015173.28547  23386181.3914   23386184.3324
     -1663.7504      -1296.4294         34.0004         31.2504
  28543264.92845  22291307.89745  26611218.6874   26611226.1334
     -3368.5314      -2624.8304          9.2504          8.0004
  -9950485.73248  -7603258.65946  23807048.9064   23807052.5164
     -2045.9534      -1594.2494         29.5004         23.7504
 00  6 27  1 42  0.0080000  0  8G30G15G 1G21G22G25G29G11
   1894581.52445   1681181.71245  27278799.4534   27278803.9534
     -1562.3284      -1217.3994          9.2504          6.7504
  21132310.31945  16491939.03645  26142342.5164   26142349.7854
     -4737.5784      -3691.6194          8.7504          7.7504
  -3963976.23645  -2985993.59345  26348528.6484   26348534.3204
      1347.0944       1049.6834          9.7504          9.2504
  26161617.67745  14951314.15045  26355666.3914   26355672.7424
     -3796.0164      -2957.9344         10.7504          8.5004
  -2211365.53945  -1590563.00145  26976341.8124   26976350.5594
      2334.8444       1819.3594          9.0004          7.0004
 -11654918.00248  -8976089.47147  23395725.8914   23395728.7154
     -1679.8284      -1308.9574         34.0004         31.0004
  28644322.47745  22370053.91045  26630449.3834   26630455.7814
     -3368.3754      -2624.7084         10.2504          8.0004
  -9888837.42648  -7555221.03146  23818780.1804   23818784.0124
     -2063.6724      -1608.0564         29.0004         23.2504
 00  6 27  1 42 30.0080000  0  8G30G15G 1G21G22G25G29G11
   1941718.76345   1717912.07845  27287768.7734   27287775.2424
     -1579.9844      -1231.1574          8.2504          6.0004
  21274488.13145  16602726.79745  26169399.8984   26169407.1914
     -4740.7344      -3694.0794         10.2504          8.2504
  -4004313.21945  -3017424.86245  26340852.6254   26340858.0394
      1342.2194       1045.8854         10.5004          9.0004
  26275632.08545  15040156.45745  26377361.2584   26377368.3754
     -3804.7664      -2964.7524         10.2504          8.0004
  -2281427.70245  -1645156.61445  26963009.3364   26963018.9024
      2336.1254       1820.3574          8.7504          6.7504
 -11604274.02548  -8936626.60847  23405363.3914   23405366.3554
     -1696.2664      -1321.7654         34.0004         31.0004
  28745379.49945  22448799.55645  26649680.0234   26649685.6724
     -3368.5944      -2624.8784         10.0004          8.7504
  -9826652.84748  -7506765.50146  23830613.2504   23830617.0944
     -2081.7814      -1622.1674         28.7504         23.2504
 00  6 27  1 43  0.0080000  0  8G30G15G 1G21G22G25G29G11
   1989373.03144   1755045.25345  27296835.1094   27296838.3554
     -1597.2034      -1244.5744          7.2504          6.0004
  21416746.18845  16713577.08145  26196469.8674   26196477.1374
     -4743.3444      -3696.1124         10.0004          8.5004
  -4044517.35945  -3048752.63545  26333202.4924   26333207.9414
      1337.8134       1042.4514         11.0004          9.0004
  26389895.09945  15129192.49445  26399104.7734   26399112.7694
     -3813.0164      -2971.1814          9.2504          8.5004
  -2351540.50245  -1699789.61745  26949666.9534   26949678.3944
      2337.8284       1821.6844          7.7504          6.0004
 -11553150.13248  -8896789.79047  23415091.7114   23415094.5124
     -1712.2034      -1334.1844         34.0004         31.2504
  28846430.50645  22527540.50845  26668909.3444   26668915.6024
     -3368.3594      -2624.6964         10.0004          8.7504
  -9763938.92948  -7457897.51746  23842547.1174   23842551.0084
     -2099.3754      -1635.8774         28.2504         23.0004
 00  6 27  1 43 30.0080000  0  8G30G15G 1G21G22G25G29G11
   2037551.41445   1792586.91845  27306004.1644   27306008.6174
     -1614.5004      -1258.0524          7.7504          6.5004
  21559088.59445  16824493.06045  26223556.9534   26223564.4804
     -4745.9534      -3698.1454          9.7504          8.7504
  -4084581.92545  -3079971.61245  26325577.6254   26325584.2114
      1333.3444       1038.9694          9.7504          9.0004
  26504413.18145  15218427.28145  26420895.2974   26420904.3944
     -3821.3444      -2977.6704          8.0004          8.2504
  -2421694.14045  -1754454.42645  26936316.9304   26936323.4694
      2339.2664       1822.8044          9.0004          7.2504
 -11501540.73948  -8856574.66047  23424912.5164   23424915.5514
     -1728.2194      -1346.6644         33.7504         30.7504
  28947482.10045  22606281.92145  26688138.7584   26688144.1134
     -3368.1874      -2624.5624         10.2504          8.2504
  -9700690.27348  -7408612.85446  23854583.8204   23854587.5474
     -2117.0004      -1649.6104         30.0004         23.5004
 00  6 27  1 44  0.0080000  0  8G30G15G 1G21G22G25G29G11
   2086245.91445   1830530.58945  27315272.0234   27315277.5664
     -1632.0784      -1271.7494          7.7504          6.2504
  21701505.07245  16935466.77645  26250658.0944   26250666.5704
     -4748.7344      -3700.3124          9.7504          8.2504
  -4124514.57945  -3111087.78945  26317979.5554   26317985.8944
      1328.5634       1035.2444         11.2504          9.5004
  26619177.46345  15307853.91345  26442735.7814   26442743.3914
     -3829.8754      -2984.3184          9.0004          7.7504
  -2491892.74345  -1809154.36445  26922958.6414   26922965.5944
      2340.3284       1823.6324          8.7504          6.7504
 -11449454.66048  -8815988.09347  23434824.1484   23434827.1484
     -1744.4694      -1359.3264         33.7504         30.7504
  29048526.51545  22685017.73245  26707367.4304   26707372.5864
     -3368.3594      -2624.6964         10.0004          8.7504
  -9636916.09648  -7358918.70946  23866719.5084   23866723.0474
     -2134.8914      -1663.5514         29.5004         23.2504
 00  6 27  1 44 30.0080000  0  8G30G15G 1G21G22G25G29G11
   2135468.45645   1868885.89445  27324637.8284   27324642.3754
     -1649.4064      -1285.2524          7.7504          5.7504
  21844005.07145  17046505.54845  26277774.9844   26277782.9224
     -4751.2034      -3702.2364         10.0004          8.5004
  -4164303.66245  -3142092.12645  26310407.9694   26310412.8324
      1324.0474       1031.7254         11.2504          9.5004
  26734199.12145  15397481.11745  26464623.7814   26464630.5904
     -3838.1874      -2990.7954          9.5004          8.5004
  -2562121.18645  -1863877.46745  26909594.9774   26909603.4184
      2341.5784       1824.6064          8.7504          7.7504
 -11396881.34348  -8775021.85147  23444828.6804   23444831.4804
     -1760.4064      -1371.7454         34.0004         31.0004
  29149575.92745  22763757.41145  26726596.2194   26726603.1604
     -3368.2344      -2624.5984          9.0004          8.2504
  -9572605.77848  -7308806.77746  23878956.8524   23878960.6254
     -2152.4534      -1677.2364         28.7504         23.2504
 00  6 27  1 45  0.0090000  0  8G30G15G 1G21G22G25G29G11
   2185212.65745   1907647.52245  27334104.4194   27334109.7044
     -1666.5784      -1298.6324          8.2504          5.5004
  21986582.68545  17157604.80645  26304906.7004   26304916.5604
     -4753.4534      -3703.9894          9.2504          8.7504
  -4203958.17345  -3172991.62145  26302861.2084   26302867.1144
      1319.6724       1028.3164         10.5004          9.5004
  26849473.31945  15487305.04645  26486560.0914   26486568.0634
     -3846.3124      -2997.1274          8.7504          7.5004
  -2632386.92545  -1918629.72345  26896223.7474   26896232.7394
      2342.8134       1825.5684          8.7504          6.2504
 -11343827.97448  -8733681.55047  23454924.4584   23454927.3414
     -1776.1724      -1384.0304         34.0004         31.0004
  29250625.12545  22842496.94345  26745824.1064   26745830.9504
     -3367.9844      -2624.4034          8.0004          8.0004
  -9507766.74448  -7258282.86346  23891295.1534   23891299.1494
     -2169.8124      -1690.7634         28.2504         23.0004
 00  6 27  1 45 30.0090000  0  9G30G15G 1G21G22G25G29G16G11
   2235475.96945   1946813.70045  27343668.3954   27343673.6104
     -1684.0164      -1312.2204          7.7504          6.5004
  22129226.59345  17268755.77445  26332051.1304   26332059.6534
     -4755.8284      -3705.8404         10.2504          8.7504
  -4243474.59645  -3203783.44445  26295340.8414   26295347.3104
      1315.0634       1024.7244          9.7504          9.2504
  26964992.28244  15577319.74745  26508541.7084   26508551.8494
     -3854.6414      -3003.6164          7.2504          7.7504
  -2702681.75745  -1973404.55545  26882845.9814   26882856.6144
      2343.7814       1826.3234          8.2504          7.5004
 -11290298.55748  -8691970.29647  23465110.5524   23465113.7164
     -1792.1414      -1396.4734         33.7504         30.7504
  29351668.85045  22921232.25645  26765052.7004   26765058.9354
     -3367.9694      -2624.3914          7.7504          7.5004
    -11220.24954                  27544458.0204
      2244.6414                          6.5004
  -9442403.88348  -7207350.78046  23903734.0914   23903737.6774
     -2187.3914      -1704.4604         29.5004         23.2504
 00  6 27  1 46  0.0090000  0  9G30G15G 1G21G22G25G29G16G11
   2286254.96945   1986381.82945  27353331.9034   27353341.4704
     -1701.3124      -1325.6984          8.5004          6.2504
  22271933.72145  17379955.97545  26359206.9424   26359216.6614
     -4758.0004      -3707.5324          9.2504          8.2504
  -4282859.18945  -3234472.56545  26287846.8884   26287851.5754
      1310.5474       1021.2054         11.0004          9.7504
  27080753.97944  15667523.57545  26530570.9584   26530579.1424
     -3862.8594      -3010.0204          6.7504          7.2504
  -2773009.76345  -2028205.29645  26869462.0364   26869466.5134
      2344.7034       1827.0414          8.0004          6.7504
 -11236297.72548  -8649891.71347  23475386.4814   23475389.4704
     -1807.9374      -1408.7824         33.7504         30.7504
  29452705.13645  22999961.69845  26784279.5134   26784284.9624
     -3367.8284      -2624.2824          8.0004          8.2504
    -78578.85044                  27531638.9274
      2245.8594                          6.5004
  -9376521.60148  -7156013.96446  23916270.6854   23916274.2824
     -2204.7974      -1718.0244         28.7504         23.0004
 00  6 27  1 46 30.0090000  0  9G30G15G 1G21G22G25G29G16G11
   2337558.92745   2026358.87245  27363094.1694   27363104.0874
     -1718.7344      -1339.2744          7.5004          6.7504
  22414710.88045  17491210.71845  26386377.0914   26386386.9624
     -4760.2034      -3709.2494          9.7504          9.0004
  -4322102.81545  -3265051.81345  26280378.0054   26280383.9354
      1305.9224       1017.6014         10.2504          9.5004
  27196767.42344  15757923.55345  26552647.0524   26552655.2594
     -3871.1414      -3016.4734          6.7504          7.5004
  -2843358.07345  -2083021.82745  26856075.9744   26856085.8104
      2345.4064       1827.5894          8.0004          7.2504
 -11181817.22648  -8607439.35947  23485753.7864   23485756.6814
     -1823.8444      -1421.1774         33.7504         30.7504
  29553743.10844  23078692.53945  26803506.9354   26803513.5674
     -3367.8124      -2624.2694          7.2504          7.2504
   -145966.98544                  27518816.5444
      2246.9064                          7.2504
  -9310112.06148  -7104266.28646  23928907.9194   23928911.9624
     -2222.2664      -1731.6364         28.2504         23.0004
 00  6 27  1 47  0.0090000  0  9G30G15G 1G21G22G25G29G16G11
   2389383.03344   2066741.31845  27372955.9744   27372961.9854
     -1735.9374      -1352.6794          7.2504          5.2504
  22557550.08045  17602513.80445  26413559.3414   26413566.9154
     -4762.1254      -3710.7474         10.5004          7.7504
  -4361210.23845  -3295524.95045  26272937.0134   26272942.6614
      1301.5164       1014.1684         10.5004          9.7504
  27313026.64943  15848515.10245  26574770.8494   26574778.4114
     -3879.2194      -3022.7684          6.0004          6.7504
  -2913728.43845  -2137855.52745  26842685.4664   26842694.6694
      2346.2034       1828.2104          8.5004          7.0004
 -11126863.03548  -8564617.89647  23496211.1144   23496214.2554
     -1839.5004      -1433.3774         33.7504         30.7504
  29654778.00645  23157420.83545  26822733.9354   26822738.9854
     -3367.5784      -2624.0874          7.5004          7.2504
   -213388.93044                  27505986.3564
      2248.1254                          6.7504
  -9243181.81748  -7052112.87146  23941644.4584   23941648.1144
     -2239.4844      -1745.0534         29.0004         23.2504
 00  6 27  1 47 30.0090000  0  9G30G15G 1G21G22G25G29G16G11
   2441722.00945   2107525.00045  27382915.8174   27382918.7594
     -1753.1874      -1366.1204          7.5004          5.2504
  22700443.95145  17713859.53545  26440751.8254   26440758.7904
     -4763.9844      -3712.1964         11.0004          8.0004
  -4400186.68845  -3325896.02545  26265518.9664   26265523.6884
      1297.0474       1010.6864         10.2504          9.5004
  27429526.09844  15939293.75945  26596939.5134   26596946.3454
     -3887.3284      -3029.0874          6.2504          5.7504
  -2984123.01745  -2192708.10245  26829289.7004   26829297.1344
      2346.8914       1828.7464          8.0004          7.0004
 -11071441.65648  -8521432.39147  23506757.6854   23506760.6614
     -1855.1254      -1445.5524         33.7504         30.7504
  29755804.84144  23236142.89845  26841957.7554   26841962.1854
     -3367.4064      -2623.9534          7.2504          7.2504
   -280848.05244                  27493149.7554
      2249.2504                          7.2504
  -9175737.35848  -6999558.76446  23954478.6064   23954482.3564
     -2256.6724      -1758.4464         28.5004         23.0004
 00  6 27  1 48  0.0090000  0  9G30G15G 1G21G22G25G29G16G11
   2494575.82645   2148709.76745  27392973.8104   27392976.1304
     -1770.3124      -1379.4644          7.5004          5.5004
  22843390.11845  17825245.90645  26467953.4504   26467961.2824
     -4765.6414      -3713.4864         10.5004          7.2504
  -4439031.89245  -3356164.83545  26258127.1924   26258132.4894
      1292.7194       1007.3134         10.7504          9.2504
  27546265.20544  16030259.23345  26619154.4974   26619163.2674
     -3895.2344      -3035.2484          7.0004          7.0004
  -3054538.83444  -2247577.23545  26815888.8564   26815898.5524
      2347.5634       1829.2694          7.2504          7.7504
 -11015554.18348  -8477883.70247  23517392.4814   23517395.4704
     -1870.6094      -1457.6184         33.5004         30.5004
  29856823.79945  23314858.90445  26861180.9894   26861187.4354
     -3367.0944      -2623.7094          7.7504          7.2504
   -348342.80245    -15779.74755  27480306.5754   27480312.0834
      2250.4694       1753.6124          7.5004          5.0004
  -9107780.11748  -6946605.09446  23967410.1304   23967414.0794
     -2273.7034      -1771.7174         28.0004         22.5004
 00  6 27  1 48 30.0090000  0  9G30G15G 1G21G22G25G29G16G11
   2547947.23244   2190297.91845  27403130.2554   27403138.2634
     -1787.9534      -1393.2104          7.0004          5.5004
  22986388.99745  17936673.44345  26495163.9504   26495174.6424
     -4767.7664      -3715.1424          9.2504          7.0004
  -4477742.79345  -3386329.03145  26250760.5444   26250765.8764
      1287.8444       1003.5154         10.2504          8.7504
  27663246.12144  16121413.13645  26641415.7554   26641426.6454
     -3903.6414      -3041.7984          7.2504          5.7504
  -3124969.29643  -2302457.88745  26802484.4814   26802498.0794
      2347.6254       1829.3184          5.7504          7.0004
 -10959198.64848  -8433970.28647  23528116.8414   23528119.6654
     -1886.5784      -1470.0614         34.0004         30.5004
  29957837.82344  23393571.03245  26880403.1064   26880408.1224
     -3367.3284      -2623.8924          7.0004          7.5004
   -415868.79045    -68397.34345  27467455.8254   27467459.1424
      2251.0784       1754.0874          7.7504          4.5004
  -9039308.67648  -6893250.75446  23980440.3724   23980443.5134
     -2291.2194      -1785.3654         29.0004         22.7504
 00  6 27  1 49  0.0090000  0  9G30G15G 1G21G22G25G29G16G11
   2601841.73544   2232293.66245  27413385.2394   27413392.0834
     -1805.1724      -1406.6274          6.7504          6.0004
  23129443.54045  18048144.38645  26522385.6694   26522394.7434
     -4769.3754      -3716.3964          8.0004          8.7504
  -4516313.80345  -3416384.21045  26243420.6614   26243426.2394
      1283.4224       1000.0694         10.5004          9.0004
  27780473.38744  16212758.94245  26663723.5674   26663729.8374
     -3911.6254      -3048.0194          7.2504          6.5004
  -3195405.43045  -2357342.82845  26789083.1924   26789090.9194
      2347.9534       1829.5744          8.0004          7.7504
 -10902370.92848  -8389688.93647  23538930.5914   23538933.5444
     -1902.0784      -1482.1394         33.7504         30.5004
  30058852.70444  23472283.79045  26899626.7394   26899632.8924
     -3367.1094      -2623.7224          7.0004          7.2504
   -483419.04445   -121033.80545  27454601.5134   27454610.2474
      2252.1094       1754.8904          7.5004          4.7504
  -8970319.09248  -6839492.66746  23993568.5054   23993572.2904
     -2308.2344      -1798.6244         28.2504         22.5004
 00  6 27  1 49 30.0090000  0  9G30G15G 1G21G22G25G29G16G11
   2656253.67044   2274692.54545  27423740.0914   27423748.0524
     -1822.1414      -1419.8504          6.5004          6.5004
  23272545.54245  18159652.27345  26549617.5674   26549628.7864
     -4770.6094      -3717.3584          7.7504          7.7504
  -4554750.51345  -3446334.73145  26236106.8174   26236112.7004
      1279.2034        996.7824         10.5004          9.2504
  27897940.91144  16304291.96545  26686077.7244   26686082.1424
     -3919.3914      -3054.0714          7.2504          6.0004
  -3265849.62444  -2412234.09245  26775676.6924   26775683.5634
      2348.4694       1829.9764          7.0004          8.0004
 -10845077.87148  -8345044.97847  23549833.0204   23549836.0564
     -1917.2974      -1493.9984         33.5004         30.5004
  30159862.72644  23550992.77245  26918848.2704   26918854.8334
     -3366.7194      -2623.4174          7.2504          6.7504
   -550997.88944   -173692.62445  27441741.2554   27441747.8174
      2253.2814       1755.8044          7.2504          5.7504
  -8900818.62448  -6785336.47646  24006794.1064   24006797.9154
     -2324.9694      -1811.6644         28.7504         22.7504
 00  6 27  1 50  0.0090000  0  9G30G15G 1G21G22G25G29G16G11
   2711176.39044   2317489.50645  27434191.3104   27434196.7474
     -1839.0314      -1433.0114          6.5004          5.5004
  23415686.45645  18271190.48845  26576857.3884   26576865.6654
     -4771.7344      -3718.2354          8.2504          7.5004
  -4593058.93045  -3476185.31245  26228817.1694   26228823.1574
      1275.0474        993.5434         11.2504          8.7504
  28015641.92245  16396006.91545  26708474.8564   26708482.0444
     -3927.0004      -3060.0004          7.5004          6.0004
  -3336304.87244  -2467133.94345  26762268.9584   26762280.7984
      2348.9064       1830.3174          6.2504          6.7504
 -10787326.75748  -8300044.10247  23560823.0604   23560826.0364
     -1932.4064      -1505.7714         33.7504         30.7504
  30260862.22744  23629693.62145  26938067.7944   26938072.6224
     -3366.2034      -2623.0154          6.5004          6.5004
   -618609.57845   -226376.94345  27428875.1694   27428879.4814
      2254.5004       1756.7534          8.0004          5.5004
  -8830814.75247  -6730788.02246  24020115.2474   24020119.1264
     -2341.5944      -1824.6194         27.7504         22.5004
 00  6 27  1 50 30.0090000  0  9G30G15G 1G21G22G25G29G16G11
   2766610.73844   2360685.07545  27444740.8724   27444744.1064
     -1856.3124      -1446.4774          6.7504          6.2504
  23558864.47345  18382757.47945  26604104.1384   26604114.0674
     -4773.1874      -3719.3674          9.5004          7.5004
  -4631238.29045  -3505935.30245  26221552.0134   26221557.4154
      1270.5004        990.0004         11.2504          9.0004
  28133575.95945  16487903.50445  26730915.9664   26730926.1534
     -3934.9694      -3066.2094          7.7504          6.2504
  -3406767.42545  -2522039.53345  26748861.0364   26748870.3684
      2348.8594       1830.2804          7.7504          7.7504
 -10729118.09248  -8254686.68947  23571899.3414   23571902.5994
     -1947.8754      -1517.8254         33.0004         30.2504
  30361851.89944  23708386.82245  26957285.3494   26957294.7634
     -3366.1724      -2622.9914          6.5004          6.7504
   -686252.10645   -279085.29545  27416004.0754   27416007.2634
      2255.2814       1757.3624          8.2504          5.7504
  -8760308.31948  -6675847.97646  24033533.0524   24033536.8024
     -2358.5474      -1837.8294         29.7504         22.7504
 00  6 27  1 51  0.0090000  0  9G30G15G 1G21G22G25G29G16G11
   2822557.82544   2404280.24045  27455386.0364   27455394.8644
     -1873.6414      -1459.9804          6.2504          5.5004
  23702078.14945  18494352.38745  26631356.9744   26631366.4704
     -4774.5474      -3720.4264          9.2504          8.5004
  -4669287.24345  -3535583.68745  26214310.3414   26214316.6694
      1265.9224        986.4334         11.0004          9.2504
  28251743.61945  16579982.14745  26753404.8804   26753413.9074
     -3943.0004      -3072.4684          9.0004          7.2504
  -3477232.55345  -2576947.08445  26735450.7394   26735458.7474
      2348.6254       1830.0974          7.7504          7.5004
 -10670451.82248  -8208972.70347  23583063.4194   23583066.2204
     -1963.3444      -1529.8784         33.7504         30.5004
  30462832.93144  23787073.23445  26976501.4814   26976505.9934
     -3366.0784      -2622.9184          6.2504          6.5004
   -753922.77045   -331815.59545  27403126.6384   27403133.0714
      2255.9384       1757.8734          8.0004          5.7504
  -8689299.79348  -6620516.67246  24047044.7784   24047048.3294
     -2375.4844      -1851.0274         28.2504         22.5004
 00  6 27  1 51 30.0090000  0  9G30G15G 1G21G22G25G29G16G11
   2879021.46944   2448277.95645  27466130.9194   27466138.9274
     -1890.8444      -1473.3854          6.2504          5.0004
  23845329.31945  18605976.50045  26658615.8414   26658624.8684
     -4775.7344      -3721.3514          9.0004          8.5004
  -4707201.33545  -3565127.00345  26207095.9034   26207101.5284
      1261.4694        982.9634         10.7504          9.5004
  28370148.39645  16672245.52445  26775935.1534   26775944.0994
     -3950.8754      -3078.6044          8.2504          6.2504
  -3547692.33845  -2631850.49945  26722042.6774   26722050.7084
      2348.4384       1829.9514          7.5004          7.7504
 -10611325.13448  -8162899.94347  23594314.5524   23594317.4234
     -1978.6414      -1541.7984         33.5004         30.0004
  30563810.01143  23865756.56145  26995716.1384   26995722.0444
     -3365.9224      -2622.7964          6.0004          7.0004
   -821616.15144   -384563.62345  27390243.6064   27390250.0284
      2256.6884       1758.4584          7.2504          6.0004
  -8617786.69748  -6564792.21246  24060653.4814   24060657.4424
     -2392.2664      -1864.1034         28.5004         22.2504
 00  6 27  1 52  0.0090000  0  9G30G15G 1G21G22G25G29G16G11
   2935995.67944   2492673.37645  27476973.4424   27476979.3134
     -1907.6254      -1486.4614          6.7504          6.0004
  23988609.52945  18717623.22545  26685881.9354   26685892.1694
     -4776.4374      -3721.8994          8.7504          7.7504
  -4744986.49845  -3594569.88945  26199905.1224   26199911.8844
      1257.3594        979.7614         10.5004          8.5004
  28488783.75345  16764688.61545  26798511.0364   26798518.4464
     -3958.3284      -3084.4124          8.7504          6.2504
  -3618149.49345  -2686751.85945  26708635.4664   26708644.7514
      2348.5164       1830.0124          8.2504          8.2504
 -10551745.61348  -8116474.34247  23605652.4034   23605655.4504
     -1993.5004      -1553.3774         33.5004         30.0004
  30664777.15644  23944432.24345  27014930.0604   27014937.0134
     -3365.3594      -2622.3584          6.2504          5.7504
   -889336.18844   -437332.42445  27377357.3414   27377365.9584
      2257.7974       1759.3224          6.7504          6.5004
  -8545776.55148  -6508680.43446  24074356.5994   24074360.4544
     -2408.5784      -1876.8144         28.5004         22.0004
 00  6 27  1 52 30.0090000  0  9G30G15G 1G21G22G25G29G16G11
   2993476.16443   2537463.30145  27487910.3954   27487918.2634
     -1924.5474      -1499.6474          6.0004          5.5004
  24131912.47045  18829287.65245  26713151.1384   26713158.5714
     -4777.2344      -3722.5204          7.5004          7.0004
  -4782646.29145  -3623915.07445  26192739.2554   26192744.4234
      1253.1254        976.4614         11.0004          9.7504
  28607645.03145  16857307.69245  26821129.8724   26821135.0754
     -3965.8754      -3090.2924          8.5004          6.7504
  -3688604.77245  -2741651.78445  26695228.1694   26695235.0874
      2348.3594       1829.8904          8.5004          8.5004
 -10491718.25348  -8069699.76647  23617075.1774   23617078.3064
     -2008.4694      -1565.0414         33.5004         30.2504
  30765730.66044  24023097.24145  27034141.3644   27034149.0794
     -3365.0004      -2622.0784          6.5004          7.2504
   -957085.18844   -490123.65345  27364465.3414   27364468.2354
      2258.6884       1760.0164          6.5004          5.2504
  -8473274.83748  -6452185.60746  24088152.9034   24088156.9704
     -2425.0004      -1889.6104         28.0004         22.0004
 00  6 27  1 53  0.0090000  0  9G30G15G 1G21G22G25G29G16G11
   3051471.74044   2582654.70945  27498947.8804   27498953.9744
     -1941.9374      -1513.1984          6.2504          5.7504
  24275245.03944  18940975.13845  26740425.5444   26740433.2824
     -4778.3594      -3723.3974          7.0004          6.7504
  -4820171.45445  -3653155.32645  26185597.1534   26185602.6964
      1248.4534        972.8214         10.7504          9.7504
  28726740.44745  16950109.18445  26843792.5524   26843800.2434
     -3973.8754      -3096.5264          9.2504          5.7504
  -3759046.02545  -2796540.77745  26681823.2164   26681831.9154
      2347.6254       1829.3184          9.2504          8.2504
 -10431234.44848  -8022569.52447  23628584.9034   23628587.9384
     -2023.8444      -1577.0214         33.5004         30.0004
  30866680.02244  24101758.96945  27053351.0054   27053357.8374
     -3365.0624      -2622.1274          6.2504          6.7504
  -1024852.57444   -542929.41045  27351569.8024   27351577.0604
      2259.0784       1760.3214          6.5004          5.5004
  -8400273.91748  -6395301.79246  24102044.7704   24102047.9704
     -2441.8124      -1902.7114         28.2504         22.0004
 00  6 27  1 53 30.0090000  0  9G30G15G 1G21G22G25G29G16G11
   3109985.57043   2628249.77445  27510081.6144   27510089.3524
     -1958.7504      -1526.2994          6.0004          5.5004
  24418607.76345  19052686.13345  26767707.4114   26767716.2394
     -4778.8914      -3723.8114          7.5004          7.7504
  -4857558.91545  -3682288.34645  26178482.8724   26178487.2674
      1244.2974        969.5824         11.2504          9.5004
  28846072.45645  17043095.13545  26866501.4894   26866510.7864
     -3981.3124      -3102.3214          9.2504          6.0004
  -3829466.16245  -2851413.34045  26668422.2314   26668431.7744
      2347.2974       1829.0634          9.2504          9.0004
 -10370292.70948  -7975082.44947  23640181.7164   23640184.6224
     -2038.6724      -1588.5754         33.2504         30.0004
  30967628.40244  24180419.98345  27072561.5604   27072568.7824
     -3364.5624      -2621.7374          6.7504          7.0004
  -1092633.75744   -595745.84445  27338671.3104   27338680.2554
      2259.9384       1760.9904          6.2504          6.2504
  -8326772.41148  -6338027.93446  24116031.7784   24116035.5524
     -2458.0314      -1915.3494         28.2504         22.0004
 00  6 27  1 54  0.0090000  0  9G30G15G 1G21G22G25G29G16G11
   3169014.20143   2674246.11845  27521314.3414   27521324.8564
     -1976.2034      -1539.8994          5.5004          5.2504
  24561995.37044  19164416.57145  26794993.4274   26795004.2704
     -4780.0004      -3724.6754          6.2504          7.0004
  -4894811.28745  -3711316.05845  26171394.5444   26171400.3684
      1239.4694        965.8204         11.7504          9.5004
  28965637.15645  17136262.37745  26889253.8104   26889263.0834
     -3989.4064      -3108.6284          9.0004          5.7504
  -3899864.52645  -2906268.93745  26655026.4274   26655034.4584
      2346.1884       1828.1984         10.2504          9.5004
 -10308897.26748  -7927241.82647  23651865.1304   23651868.1064
     -2054.0784      -1600.5804         33.7504         30.0004
  31068573.22945  24259078.24045  27091770.8804   27091776.4704
     -3364.7814      -2621.9074          7.5004          6.5004
  -1160429.89944   -648573.88545  27325770.4744   27325777.8844
      2260.0634       1761.0884          6.5004          6.2504
  -8252774.74248  -6280367.44346  24130113.0444   24130116.4774
     -2474.8754      -1928.4744         28.0004         21.5004
 00  6 27  1 54 30.0090000  0  9G30G15G 1G21G22G25G29G16G11
   3228556.13043   2720642.35645  27532644.7634   27532650.6924
     -1993.1094      -1553.0724          5.0004          4.7504
  24705403.93645  19276163.24945  26822284.0444   26822291.6774
     -4780.4374      -3725.0164          8.2504          7.7504
  -4931930.22845  -3740239.78345  26164330.8174   26164336.5014
      1235.2194        962.5084         11.7504          9.7504
  29085432.74245  17229609.53145  26912050.2244   26912055.0174
     -3996.8754      -3114.4484          8.7504          5.7504
  -3970239.49445  -2961106.26745  26641633.8644   26641640.0524
      2345.5784       1827.7234         11.0004          8.7504
 -10247051.06948  -7879049.98047  23663633.6384   23663636.4504
     -2068.8754      -1612.1104         33.2504         30.0004
  31169513.21444  24337732.70945  27110977.8564   27110983.3524
     -3364.4064      -2621.6154          6.5004          6.2504
  -1228241.02043   -701413.56845  27312864.9114   27312871.3924
      2260.7504       1761.6234          6.0004          6.0004
  -8178284.35448  -6222323.01146  24144288.0914   24144292.0054
     -2491.0474      -1941.0754         28.0004         21.5004
 00  6 27  1 55  0.0090000  0  9G30G15G 1G21G22G25G29G16G11
   3288604.03843   2767432.82845  27544072.3644   27544082.3294
     -2010.0164      -1566.2464          5.0004          5.2504
  24848824.21744  19387919.14145  26849575.8954   26849584.3954
     -4780.8594      -3725.3454          7.0004          7.0004
  -4968922.21846  -3769064.60345  26157291.5364   26157296.9384
      1230.9534        959.1844         12.2504          9.7504
  29205451.49545  17323130.56145  26934889.1694   26934894.7244
     -4004.3444      -3120.2684          9.0004          6.2504
  -4040594.59045  -3015928.16945  26628244.6924   26628253.7204
      2344.7814       1827.1024          9.2504          9.2504
 -10184762.14148  -7830513.14947  23675486.8564   23675489.9504
     -2083.6724      -1623.6404         33.2504         30.0004
  31270441.89344  24416378.35545  27130183.8024   27130188.3374
     -3364.1094      -2621.3844          7.0004          5.5004
  -1296072.11043   -754268.93845  27299957.2634   27299963.9074
      2261.3134       1762.0624          5.7504          6.2504
  -8103309.76348  -6163901.30046  24158555.2474   24158558.6814
     -2507.2194      -1953.6774         28.2504         21.7504
 00  6 27  1 55 30.0090000  0  9G30G15G 1G21G22G25G29G16G11
   3349163.44743   2814621.96845  27555595.8884   27555600.5524
     -2027.1094      -1579.5664          5.0004          5.7504
  24992259.39344  19499686.54245  26876870.2314   26876882.3524
     -4781.3284      -3725.7104          7.2504          7.7504
  -5005781.33145  -3797785.89845  26150276.7704   26150281.9624
      1226.4694        955.6904         11.7504         10.2504
  29325698.12245  17416829.14445  26957770.8334   26957779.3104
     -4011.9534      -3126.1974          8.0004          6.7504
  -4110920.71845  -3070727.48145  26614862.1534   26614868.9034
      2343.7504       1826.2994         10.5004          8.5004
 -10122026.17848  -7781627.97147  23687425.1384   23687428.1734
     -2098.5784      -1635.2564         33.2504         29.7504
  31371365.27345  24495019.85645  27149390.0994   27149397.7434
     -3363.9694      -2621.2744          8.0004          6.5004
  -1363915.75243   -807133.97645  27287046.6774   27287054.1344
      2261.6884       1762.3544          6.0004          6.5004
  -8027846.86848  -6105099.08046  24172915.6694   24172919.5364
     -2523.5004      -1966.3644         28.0004         21.2504
 00  6 27  1 56  0.0090000  0  9G30G15G 1G21G22G25G29G16G11
   3410231.97043   2862207.79245  27567216.7314   27567218.6184
     -2043.9534      -1592.6914          5.5004          5.5004
  25135705.13545  19611462.29345  26904167.7864   26904177.4464
     -4781.5164      -3725.8564          7.7504          7.7504
  -5042509.32546  -3826405.01745  26143287.6454   26143292.9314
      1222.2504        952.4034         12.2504         10.2504
  29446169.90445  17510703.15045  26980695.2084   26980703.2744
     -4019.3284      -3131.9444          7.7504          6.5004
  -4181216.15145  -3125502.86045  26601486.7944   26601494.6964
      2342.7814       1825.5444         11.0004          9.0004
 -10058846.31848  -7732396.89647  23699447.9584   23699450.9584
     -2113.2194      -1646.6644         33.2504         29.5004
  31472281.37145  24573655.68945  27168594.4274   27168600.5674
     -3363.6094      -2620.9944          7.7504          5.2504
  -1431772.23844   -860009.08945  27274135.2704   27274143.7704
      2262.2344       1762.7804          6.7504          6.0004
  -7951899.33347  -6045919.21646  24187367.6144   24187371.6344
     -2539.4844      -1978.8194         27.2504         21.2504
 00  6 27  1 56 30.0090000  0  9G30G15G 1G21G22G25G29G16G11
   3471806.13443   2910187.62545  27578934.0524   27578940.0174
     -2060.8124      -1605.8284          6.0004          6.2504
  25279155.79545  19723241.81745  26931465.2314   26931471.4424
     -4781.6254      -3725.9424          7.5004          7.0004
  -5079109.49146  -3854924.55545  26136323.3644   26136328.5564
      1217.9844        949.0794         13.0004         10.5004
  29566862.57545  17604749.32045  27003662.2864   27003669.9664
     -4026.6564      -3137.6544          8.0004          6.2504
  -4251480.53145  -3180254.06745  26588115.2704   26588123.5364
      2341.7034       1824.7044         11.5004          9.5004
  -9995227.08148  -7682823.46447  23711554.6144   23711557.5324
     -2127.8444      -1658.0604         33.5004         29.7504
  31573187.37644  24652283.64945  27187795.4814   27187800.8254
     -3363.2664      -2620.7264          6.7504          5.2504
  -1499643.30944   -912895.48645  27261219.5054   27261226.4704
      2262.7344       1763.1704          6.5004          6.5004
  -7875472.28747  -5986365.71446  24201911.6304   24201915.1694
     -2555.4374      -1991.2504         27.7504         21.5004
 00  6 27  1 57  0.0090000  0  9G30G15G 1G21G22G25G29G16G11
   3533890.08344   2958564.70845  27590748.2704   27590751.0714
     -2078.0474      -1619.2574          6.2504          5.7504
  25422613.69045  19835026.96845  26958764.0994   26958774.1104
     -4782.1414      -3726.3434          7.5004          6.7504
  -5115577.02946  -3883340.74845  26129383.8494   26129388.7474
      1213.2814        945.4144         13.5004         11.0004
  29687780.33845  17698970.85745  27026673.1064   27026681.0444
     -4034.4224      -3143.7054          7.7504          6.0004
  -4321705.71945  -3234974.77745  26574750.5994   26574759.6964
      2340.0634       1823.4254         10.5004          9.2504
  -9931165.02948  -7632904.97547  23723744.9034   23723747.9504
     -2142.8594      -1669.7614         33.2504         29.7504
  31674088.19544  24730907.55845  27206996.9354   27207003.8294
     -3363.3754      -2620.8124          7.2504          6.0004
  -1567522.38444   -965788.15845  27248303.2394   27248308.5134
      2262.6564       1763.1094          7.2504          7.2504
  -7798562.72847  -5926436.22146  24216546.8254   24216551.0324
     -2571.7814      -2003.9854         27.0004         21.0004
 00  6 27  1 57 30.0090000  0  9G30G15G 1G21G22G25G29G16G11
   3596479.41044   3007335.67145  27602659.5754   27602664.9774
     -2094.7344      -1632.2614          7.2504          6.2504
  25566072.85944  19946813.15245  26986064.3494   26986072.6384
     -4781.9844      -3726.2224          6.7504          5.7504
  -5151915.41046  -3911656.27845  26122468.1924   26122473.5014
      1209.1094        942.1634         12.5004         10.7504
  29808919.08244  17793364.65145  27049724.2784   27049739.2944
     -4041.6564      -3149.3434          6.2504          6.0004
  -4391892.27645  -3289665.35045  26561395.0754   26561403.0364
      2338.8444       1822.4764         10.2504          9.0004
  -9866665.71348  -7582645.74847  23736018.7704   23736021.6534
     -2157.2814      -1680.9984         33.2504         29.5004
  31774980.51445  24809524.86145  27226195.9194   27226202.3884
     -3362.9844      -2620.5074          7.5004          6.2504
  -1635411.73145  -1018688.85445  27235383.9814   27235389.8294
      2263.1094       1763.4624          7.7504          7.2504
  -7721175.95147  -5866134.86246  24231273.1384   24231276.7124
     -2587.5164      -2016.2464         27.2504         21.2504
 00  6 27  1 58  0.0090000  0  9G30G15G 1G21G22G25G29G16G11
   3659570.30044   3056497.40245  27614666.2164   27614671.0674
     -2111.2504      -1645.1304          6.7504          5.2504
  25709527.50945  20058595.78045  27013363.9034   27013372.0634
     -4781.5784      -3725.9054          9.0004          6.5004
  -5188128.05346  -3939873.81345  26115577.9894   26115583.6384
      1205.1414        939.0714         13.0004          9.7504
  29930273.84944  17887926.73645  27072818.1224   27072827.3134
     -4048.6094      -3154.7614          7.2504          6.7504
  -4462040.42445  -3344326.02345  26548046.4274   26548053.5794
      2337.7344       1821.6114         11.5004          9.0004
  -9801733.62348  -7532049.30547  23748374.8024   23748377.9194
     -2171.4694      -1692.0544         33.0004         29.5004
  31875860.97745  24888132.91445  27245392.8334   27245399.3374
     -3362.3284      -2619.9964          7.7504          6.5004
  -1703312.92545  -1071598.72745  27222462.5284   27222468.4584
      2263.7194       1763.9374          7.7504          7.5004
  -7643317.56847  -5805466.02646  24246088.9974   24246092.5954
     -2602.9844      -2028.3004         27.0004         21.0004
 00  6 27  1 58 30.0090000  0  9G30G15G 1G21G22G25G29G16G11
   3723165.74343   3106052.28145  27626766.5134   27626771.3524
     -2128.4224      -1658.5114          6.0004          4.5004
  25852977.99245  20170375.23645  27040660.2394   27040671.1654
     -4781.7664      -3726.0514          7.7504          5.7504
  -5224211.68646  -3967990.84645  26108710.8724   26108716.1104
      1200.4534        935.4184         13.2504         10.7504
  30051846.91844  17982658.80445  27095951.8414   27095957.8174
     -4056.2344      -3160.7024          7.0004          6.2504
  -4532143.07045  -3398951.21945  26534704.7864   26534711.9154
      2335.7814       1820.0894          9.7504          8.5004
  -9736367.00748  -7481114.26647  23760813.5134   23760816.5484
     -2186.2814      -1703.5964         32.5004         29.5004
  31976732.91745  24966734.36245  27264588.5364   27264594.8764
     -3362.4374      -2620.0814          8.0004          6.5004
  -1771221.37345  -1124514.29945  27209539.2314   27209543.5204
      2263.5474       1763.8034          7.7504          8.0004
  -7564986.16447  -5744428.60346  24260995.1534   24260999.1734
     -2619.0944      -2040.8524         26.7504         21.0004
 00  6 27  1 59  0.0090000  0  9G30G15G 1G21G22G25G29G16G11
   3787266.22642   3156000.66945  27638962.0674   27638969.8414
     -2145.1254      -1671.5264          4.2504          5.7504
  25996423.57545  20282150.80145  27067957.3644   27067967.8214
     -4781.4374      -3725.7954          8.2504          6.7504
  -5260164.81546  -3996006.19545  26101869.5604   26101874.7164
      1196.2504        932.1434         13.2504         11.2504
  30173639.13144  18077561.77145  27119129.4814   27119136.5524
     -4063.4064      -3166.2914          6.2504          5.5004
  -4602195.28645  -3453537.11245  26521375.1144   26521381.5134
      2334.1724       1818.8354          9.5004          8.7504
  -9670566.16248  -7429840.87247  23773334.7944   23773338.0284
     -2200.6094      -1714.7614         32.2504         29.2504
  32077598.11145  25045330.57645  27283781.9194   27283790.5014
     -3362.0944      -2619.8134          7.5004          6.5004
  -1839133.89345  -1177433.03445  27196615.5914   27196621.4384
      2263.7974       1763.9984          8.0004          6.7504
  -7486182.06847  -5683022.85246  24275990.6224   24275994.6774
     -2634.6724      -2052.9914         26.0004         20.7504
 00  6 27  1 59 30.0090000  0  8G15G 1G21G22G25G29G16G11
  26139860.51645  20393919.63845  27095253.5054   27095264.1494
     -4781.0624      -3725.5034          9.0004          6.5004
  -5295988.65246  -4023920.76045  26095051.7394   26095056.7314
      1191.9694        928.8074         12.7504         11.2504
  30295648.05944  18172633.57745  27142346.8174   27142354.1814
     -4070.5624      -3171.8674          6.7504          6.2504
  -4672195.06345  -3508082.24045  26508054.1694   26508060.6024
      2332.4224       1817.4724          9.5004          7.7504
  -9604333.52448  -7378231.02447  23785938.7784   23785941.8254
     -2214.9374      -1725.9254         33.0004         29.2504
  32178455.50645  25123920.62145  27302974.1144   27302980.5954
     -3361.7974      -2619.5824          7.7504          6.0004
  -1907049.90745  -1230354.48445  27183692.5054   27183698.6574
      2263.9064       1764.0834          9.0004          7.0004
  -7406908.70147  -5621251.42546  24291076.3334   24291080.5284
     -2650.2504      -2065.1304         26.7504         20.7504
 00  6 27  2  0  0.0090000  0  9G30G15G 1G21G22G25G29G16G11
     62942.27142   3257075.19045  27663648.5914   27663661.0524
     -2178.5944      -1697.6064          4.5004          4.7504
  26283286.66645  20505680.08745  27122546.6384   27122559.1924
     -4780.6414      -3725.1754          8.7504          6.5004
  -5331682.84446  -4051734.32945  26088260.5054   26088265.0054
      1187.6724        925.4594         13.5004         10.7504
  30417873.20443  18267873.80945  27165606.2394   27165613.1224
     -4077.7344      -3177.4554          6.0004          6.5004
  -4742139.07945  -3562583.82345  26494744.9584   26494752.0054
      2330.5164       1815.9864         10.5004          8.0004
  -9537670.10548  -7326285.49347  23798624.4504   23798627.2864
     -2229.2504      -1737.0784         33.5004         29.5004
  32279305.79145  25202505.20445  27322166.0604   27322173.0484
     -3361.5314      -2619.3754          8.0004          6.5004
  -1974967.64845  -1283277.28445  27170767.7784   27170775.3994
      2263.9694       1764.1314          8.7504          7.7504
  -7327167.62447  -5559115.56646  24306250.4034   24306253.9894
     -2665.7814      -2077.2324         26.5004         20.7504
 00  6 27  2  0 30.0090000  0  9G30G15G 1G21G22G25G29G16G11
    128553.24642   3308200.56745  27676133.6774   27676145.5404
     -2195.2504      -1710.5844          4.5004          4.5004
  26426701.26745  20617431.52045  27149837.0054   27149846.6184
     -4780.1724      -3724.8094          8.7504          6.0004
  -5367245.73846  -4079445.61045  26081491.4114   26081496.5444
      1183.3284        922.0744         12.2504         11.0004
  30540315.37143  18363283.12145  27188905.0364   27188910.2164
     -4084.9064      -3183.0444          5.2504          4.7504
  -4812022.01545  -3617037.80145  26481445.4424   26481453.0524
      2328.4534       1814.3794          9.7504          7.7504
  -9470575.94348  -7274004.32147  23811392.0834   23811395.1304
     -2243.5474      -1748.2184         33.0004         29.2504
  32380150.69745  25281085.57745  27341356.0284   27341360.0954
     -3361.3124      -2619.2054          7.7504          6.2504
  -2042883.52945  -1336198.68245  27157843.3644   27157848.4974
      2263.9224       1764.0954          8.7504          7.7504
  -7246959.18947  -5496615.50746  24321513.4894   24321517.4154
     -2681.2814      -2089.3104         26.2504         20.5004
 00  6 27  2  1  0.0090000  0  9G30G15G 1G21G22G25G29G16G11
    194660.76242                  27688713.5604
     -2211.7034                          4.0004
  26570094.87145  20729166.62445  27177124.0444   27177133.8334
     -4779.2974      -3724.1274          8.5004          6.0004
  -5402683.89846  -4107059.67545  26074748.4664   26074754.2204
      1179.3134        918.9454         13.2504         11.0004
  30662966.68843  18458855.54745  27212245.2474   27212250.3334
     -4091.7344      -3188.3644          5.2504          5.0004
  -4881846.99145  -3671446.66845  26468157.6304   26468164.8884
      2326.6254       1812.9554          8.7504          7.5004
  -9403059.26748  -7221393.91547  23824239.8174   23824242.9234
     -2257.4534      -1759.0544         32.5004         29.2504
  32480983.53444  25359656.47745  27360543.4274   27360553.2984
     -3360.7664      -2618.7784          7.2504          5.7504
  -2110803.27345  -1389123.02445  27144918.4504   27144923.5134
      2264.1564       1764.2784          9.7504          8.5004
  -7166291.99547  -5433757.99746  24336863.8334   24336868.0284
     -2696.4224      -2101.1084         25.7504         20.5004
 00  6 27  2  1 30.0090000  0  9G30G15G 1G21G22G25G29G16G11
    261270.03141                  27701387.5444
     -2228.8594                          3.5004
  26713471.00945  20840888.07745  27204408.6454   27204418.3994
     -4779.0624      -3723.9454          8.5004          6.5004
  -5437991.73746  -4134572.19945  26068028.6774   26068033.9854
      1174.5634        915.2444         12.5004         11.7504
  30785831.84643  18554594.52245  27235625.0204   27235635.1494
     -4099.2504      -3194.2214          5.5004          6.5004
  -4951604.78845  -3725803.17545  26454883.1304   26454890.6104
      2323.9064       1810.8364          8.7504          7.7504
  -9335116.07248  -7168451.15847  23837169.2004   23837172.2704
     -2272.0624      -1770.4384         33.5004         29.2504
  32581810.25245  25438222.68445  27379731.2164   27379735.3884
     -3360.9844      -2618.9494          7.5004          5.5004
  -2178718.80045  -1442044.09345  27131994.5604   27132000.4424
      2263.5634       1763.8154          9.5004          7.7504
  -7085162.57147  -5370540.28546  24352302.4274   24352306.8214
     -2712.1874      -2113.3934         26.5004         20.7504
 00  6 27  2  2  0.0090000  0  9G30G15G 1G21G22G25G29G16G11
    328381.80942                  27714161.4664
     -2245.2194                          4.5004
  26856828.69545  20952595.20045  27231688.1854   27231700.5174
     -4778.0624      -3723.1664          8.5004          6.7504
  -5473167.64746  -4161981.91645  26061336.0604   26061341.5674
      1170.5474        912.1144         13.2504         10.5004
  30908911.58444  18650500.74445  27259047.7944   27259052.1884
     -4106.0164      -3199.4934          6.2504          6.0004
  -5021290.55045  -3780103.55645  26441623.2554   26441628.6574
      2321.8444       1809.2294          9.5004          8.0004
  -9266746.16948  -7115175.90147  23850179.3174   23850182.1534
     -2285.8754      -1781.2014         33.0004         29.5004
  32682632.72745  25516785.55645  27398916.3174   27398926.5174
     -3360.4694      -2618.5474          7.7504          6.2504
  -2246627.20145  -1494959.64945  27119072.0674   27119077.3294
      2263.6884       1763.9124          9.2504          7.7504
  -7003571.23747  -5306962.66346  24367829.1304   24367832.9974
     -2727.1724      -2125.0694         26.7504         20.2504
 00  6 27  2  2 30.0090000  0  9G30G15G 1G21G22G25G29G16G11
    395995.89042     43930.32555  27727025.1854   27727033.3104
     -2262.3594      -1762.8774          4.0004          5.2504
  27000165.98345  21064286.38045  27258965.1854   27258975.1854
     -4777.7664      -3722.9344          9.2504          6.7504
  -5508211.14346  -4189288.49045  26054667.2314   26054673.4074
      1165.7034        908.3404         12.7504         10.7504
  31032205.28044  18746573.64745  27282509.4424   27282515.6184
     -4113.5624      -3205.3734          6.2504          6.2504
  -5090900.81145  -3834345.09645  26428375.4744   26428382.1884
      2318.8444       1806.8914          9.0004          9.2504
  -9197950.72748  -7061569.06147  23863270.7784   23863273.7434
     -2300.4694      -1792.5734         32.7504         29.0004
  32783451.66645  25595345.74445  27418101.9114   27418105.7904
     -3360.7814      -2618.7914          8.7504          6.2504
  -2314526.35945  -1547867.92845  27106151.4114   27106158.2824
      2262.9384       1763.3284          9.2504          8.0004
  -6921519.61047  -5243026.37146  24383443.0444   24383446.7244
     -2742.9064      -2137.3304         27.2504         20.7504
 00  6 27  2  3  0.0090000  0  9G30G15G 1G21G22G25G29G16G11
    464112.10442                  27739986.6454
     -2279.0314                          4.0004
  27143480.86745  21175960.13545  27286237.7944   27286245.2864
     -4776.8754      -3722.2404          8.5004          5.7504
  -5543121.89246  -4216491.58145  26048024.1144   26048028.8954
      1161.3594        904.9554         13.0004         11.5004
  31155712.58843  18842813.01545  27306011.8644   27306020.2594
     -4120.5624      -3210.8284          5.2504          6.0004
  -5160431.55845  -3888524.72745  26415144.0994   26415150.8254
      2316.2034       1804.8344          9.0004          7.5004
  -9128730.93848  -7007631.55947  23876442.4584   23876445.6104
     -2314.5004      -1803.5064         32.0004         28.7504
  32884267.68245  25673903.60545  27437287.0524   27437294.3104
     -3360.6094      -2618.6574          8.5004          6.0004
  -2382414.19945  -1600767.43645  27093233.1304   27093238.0634
      2262.5944       1763.0604          9.0004          8.2504
  -6839009.48747  -5178732.80446  24399143.8174   24399148.0954
     -2758.0784      -2149.1524         26.0004         20.2504
 00  6 27  2  3 30.0090000  0  9G30G15G 1G21G22G25G29G16G11
    532731.57942                  27753045.9194
     -2295.6564                          4.0004
  27286772.93545  21287616.12745  27313504.7244   27313515.8494
     -4775.9694      -3721.5344          8.0004          6.0004
  -5577897.86046  -4243589.68445  26041406.1924   26041412.2634
      1157.0004        901.5584         12.7504         11.2504
  31279433.81143  18939219.00944  27329554.6224   27329566.8374
     -4127.5784      -3216.2954          5.0004          4.2504
  -5229876.88245  -3942637.71945  26401929.1614   26401933.9194
      2313.4384       1802.6794          9.7504          7.7504
  -9059086.35948  -6953363.05447  23889695.9664   23889698.6614
     -2328.5004      -1814.4164         33.7504         29.2504
  32985083.01545  25752460.86245  27456471.2244   27456477.3294
     -3360.4224      -2618.5114          7.5004          6.7504
  -2450286.65145  -1653654.93145  27080316.2084   27080323.5714
      2262.1884       1762.7444          9.0004          7.2504
  -6756040.74347  -5114081.86346  24414932.0364   24414936.3254
     -2773.2034      -2160.9374         26.0004         20.5004
 00  6 27  2  4  0.0090000  0  9G30G15G 1G21G22G25G29G16G11
    601847.77642                  27766199.8884
     -2312.1414                          4.7504
  27430034.01244  21399247.91245  27340766.5604   27340773.8414
     -4774.7974      -3720.6214          7.0004          5.7504
  -5612544.50446  -4270586.96645  26034812.5914   26034817.7354
      1152.7664        898.2594         12.5004         11.2504
  31403362.64342  19035786.82044  27353138.3884   27353151.4234
     -4134.3914      -3221.6034          4.5004          4.2504
  -5299238.97645  -3996685.90245  26388729.4424   26388736.1694
      2310.6724       1800.5244          9.2504          7.7504
  -8989023.94448  -6898768.95547  23903028.3024   23903031.1734
     -2342.3444      -1825.2034         33.0004         29.0004
  33085892.23744  25831013.42545  27475654.4974   27475658.6104
     -3360.2034      -2618.3404          7.2504          6.0004
  -2518147.89945  -1706533.75945  27067402.9894   27067409.2474
      2261.8594       1762.4884          9.2504          7.5004
  -6672621.30347  -5049079.73346  24430806.8644   24430810.4384
     -2788.1254      -2172.5654         27.0004         20.0004
 00  6 27  2  4 30.0090000  0  9G30G15G 1G21G22G25G29G16G11
    671456.36742                  27779445.3564
     -2328.3914                          4.5004
  27573258.19444  21510851.00845  27368022.4114   27368033.0094
     -4773.4064      -3719.5374          7.0004          6.2504
  -5647065.49446  -4297486.37645  26028243.2784   26028249.0794
      1148.7034        895.0934         12.2504         11.0004
  31527494.36742  19132512.73444  27376759.3804   27376772.6264
     -4140.9844      -3226.7414          4.5004          4.2504
  -5368518.28645  -4050669.54245  26375546.6304   26375554.1224
      2308.0004       1798.4424          9.5004          9.2504
  -8918549.18348  -6843853.55847  23916439.0834   23916442.2824
     -2355.9064      -1835.7714         32.5004         28.7504
  33186691.95744  25909558.57745  27494836.0204   27494842.7354
     -3359.7504      -2617.9874          7.2504          6.0004
  -2585999.81445  -1759405.27945  27054491.2164   27054497.0874
      2261.6564       1762.3304          9.2504          7.5004
  -6588756.61647  -4983730.66446  24446765.6694   24446769.4544
     -2802.7974      -2183.9984         26.5004         20.5004
 00  6 27  2  5  0.0090000  0  9G30G15G 1G21G22G25G29G16G11
    741563.41542                  27792784.7244
     -2345.1874                          4.2504
  27716450.26744  21622429.04945  27395270.9274   27395282.7904
     -4772.5164      -3718.8434          6.5004          6.2504
  -5681453.68046  -4324282.31145  26021700.2944   26021706.2704
      1144.0474        891.4654         12.7504         11.5004
  31651835.15742  19229401.64643  27400419.6224   27400424.2984
     -4148.2034      -3232.3664          4.5004          3.2504
  -5437704.57345  -4104580.73345  26362381.2944   26362388.4584
      2304.6094       1795.8004         10.7504          9.2504
  -8847656.64348  -6788612.62547  23929929.2864   23929932.4274
     -2370.0474      -1846.7904         31.7504         28.5004
  33287489.79144  25988102.25445  27514017.4744   27514024.0484
     -3359.9064      -2618.1094          7.0004          5.2504
  -2653833.48145  -1812262.57145  27041582.4814   27041586.5244
      2260.7974       1761.6604          8.7504          7.0004
  -6504441.77347  -4918030.81346  24462809.9744   24462814.0524
     -2817.9694      -2195.8204         26.0004         20.5004
 00  6 27  2  5 30.0090000  0  8G15G 1G21G22G25G29G16G11
  27859605.09643  21733978.03345  27422510.7004   27422527.1814
     -4771.1564      -3717.7844          5.7504          5.0004
  -5715711.72846  -4350976.81445  26015180.5834   26015186.2204
      1139.7814        888.1414         12.5004         11.0004
  31776380.88843  19326450.14945  27424121.7164   27424124.0954
     -4154.8914      -3237.5774          5.0004          5.2504
  -5506796.89445  -4158418.70445  26349232.9664   26349239.7394
      2301.4694       1793.3524         10.5004          9.2504
  -8776350.81348  -6733049.63647  23943498.5674   23943501.4974
     -2383.7034      -1857.4314         33.0004         29.0004
  33388282.93944  26066642.32545  27533198.3954   27533207.8924
     -3359.6724      -2617.9264          6.5004          4.7504
  -2721649.99745  -1865106.46345  27028677.5204   27028683.1104
      2260.2664       1761.2464          8.7504          7.0004
  -6419681.95947  -4851984.23746  24478939.3494   24478943.4384
     -2832.7034      -2207.3014         26.0004         19.7504
 00  6 27  2  6  0.0090000  0  8G15G 1G21G22G25G29G16G11
  28002714.67143  21845491.80945  27449745.1534   27449754.9074
     -4769.9224      -3716.8224          5.0004          4.7504
  -5749845.01346  -4377574.11945  26008685.1774   26008690.7434
      1135.3134        884.6594         13.2504         11.2504
  31901125.56843  19423653.59245  27447859.6304   27447869.4424
     -4161.8444      -3242.9954          5.0004          5.2504
  -5575796.72545  -4212184.61745  26336102.6224   26336108.3414
      2298.0314       1790.6744         11.0004          8.7504
  -8704638.62348  -6677170.01047  23957144.6384   23957147.7204
     -2397.5314      -1868.2064         32.2504         29.0004
  33489066.32144  26145174.64445  27552376.5054   27552382.1654
     -3359.6724      -2617.9264          6.5004          5.7504
  -2789452.88145  -1917939.81045  27015775.4424   27015779.8374
      2259.4694       1760.6254          9.0004          7.0004
  -6334484.47447  -4785596.61146  24495152.0604   24495155.8214
     -2847.5784      -2218.8924         25.7504         19.5004
 00  6 27  2  6 30.0090000  0  8G15G 1G21G22G25G29G16G11
  28145785.63843  21956975.41445  27476970.8254   27476984.2244
     -4768.4534      -3715.6784          5.5004          6.2504
  -5783844.69246  -4404067.29145  26002215.1144   26002221.2554
      1131.0164        881.3114         13.0004         11.0004
  32026077.22344  19521018.43045  27471637.4584   27471648.6304
     -4168.5624      -3248.2314          6.5004          6.2504
  -5644691.61945  -4265868.73545  26322991.4814   26322998.1614
      2294.6094       1788.0074         10.5004          8.7504
  -8632512.68948  -6620967.97847  23970870.0054   23970873.0754
     -2411.1724      -1878.8354         32.2504         28.5004
  33589849.22343  26223706.75045  27571553.6854   27571559.6494
     -3359.5004      -2617.7924          5.7504          5.7504
  -2857231.33545  -1970754.06345  27002877.1774   27002883.7744
      2258.7814       1760.0894          8.7504          6.7504
  -6248842.57347  -4718862.69646  24511449.5444   24511453.2704
     -2862.2034      -2230.2884         26.2504         20.2504
 00  6 27  2  7  0.0090000  0  8G15G 1G21G22G25G29G16G11
  28288807.35343  22068420.71445  27504187.1064   27504197.0484
     -4766.3124      -3714.0104          5.5004          6.7504
  -5817719.08246  -4430462.87345  25995768.9664   25995774.6854
      1127.2814        878.4014         13.0004         11.2504
  32151225.81444  19618536.72245  27495453.3334   27495462.3134
     -4174.6564      -3252.9794          6.7504          6.0004
  -5713486.82445  -4319475.16645  26309899.8644   26309906.3564
      2291.7034       1785.7434         10.2504          9.5004
  -8559982.50648  -6564450.95147  23984672.0754   23984674.8884
     -2424.1414      -1888.9414         33.0004         28.7504
  33690623.61844  26302232.16845  27590731.6064   27590738.8764
     -3358.7664      -2617.2204          6.2504          6.0004
  -2924992.08545  -2023554.54845  26989982.1614   26989988.6304
      2258.6094       1759.9554          8.2504          7.0004
  -6162766.55647  -4651790.50646  24527828.8884   24527833.0484
     -2876.1724      -2241.1734         25.2504         19.7504
 00  6 27  2  7 30.0090000  0  7G15G 1G22G25G29G16G11
  28431781.00643  22179828.58245  27531394.0524   27531404.7314
     -4765.0624      -3713.0364          5.5004          6.0004
  -5851464.67046  -4456758.09146  25989347.6854   25989352.9354
      1122.5944        874.7484         13.2504         12.0004
  -5782175.61045  -4372998.72645  26296828.1694   26296832.6344
      2287.7034       1782.6264         10.0004          9.5004
  -8487046.99748  -6507618.08947  23998551.3494   23998554.3134
     -2438.0314      -1899.7654         33.0004         28.7504
  33791393.07443  26380753.74845  27609907.7474   27609915.0404
     -3359.0004      -2617.4034          5.5004          6.2504
  -2992729.83445  -2076337.06345  26977091.8954   26977097.9314
      2257.4064       1759.0184          8.2504          6.5004
  -6076255.56047  -4584379.37646  24544291.2314   24544295.2864
     -2891.0314      -2252.7524         25.2504         19.2504
 00  6 27  2  8  0.0090000  0  7G15G 1G22G25G29G16G11
  28574705.44443  22291198.12345  27558591.5754   27558600.2274
     -4763.2664      -3711.6364          5.7504          6.2504
  -5885080.01646  -4482951.79546  25982951.4894   25982956.3764
      1118.3754        871.4614         14.5004         12.2504
  -5850752.92945  -4426435.44745  26283778.3024   26283784.3024
      2284.0474       1779.7774         10.2504          9.7504
  -8413706.05148  -6450469.29847  24012507.6774   24012510.6534
     -2451.4064      -1910.1874         32.7504         28.2504
  33892158.93843  26459272.58045  27629081.9504   27629089.1144
     -3358.7974      -2617.2444          5.2504          4.7504
  -3060441.38345  -2129099.17945  26964207.9894   26964212.3724
      2256.6094       1758.3974          8.7504          7.7504
  -5989310.38847  -4516629.92246  24560836.8334   24560840.7244
     -2905.3594      -2263.9164         26.0004         19.5004
 00  6 27  2  8 30.0090000  0  7G15G 1G22G25G29G16G11
  28717575.60542  22402525.26445  27585779.0604   27585787.7244
     -4761.4534      -3710.2234          4.5004          6.2504
  -5918567.93846  -4509046.22045  25976577.7634   25976583.1304
      1114.0944        868.1254         13.0004         11.5004
  -5919217.83245  -4479784.53545  26270750.1854   26270757.0914
      2280.2034       1776.7824         10.2504          9.5004
  -8339964.20548  -6393008.12247  24026540.0834   24026543.1184
     -2464.7664      -1920.5974         32.0004         28.5004
  33992918.99343  26537786.79645  27648256.3724   27648264.8024
     -3358.6094      -2617.0984          5.0004          5.0004
  -3128128.02645  -2181841.92745  26951326.5284   26951331.2634
      2255.7664       1757.7394          8.7504          8.0004
  -5901936.07247  -4448546.06646  24577463.5284   24577467.4544
     -2919.6564      -2275.0574         25.0004         19.5004
 00  6 27  2  9  0.0090000  0  7G15G 1G22G25G29G16G11
  28860386.71943  22513806.51245  27612954.5674   27612962.2244
     -4759.4694      -3708.6774          5.5004          6.0004
  -5951930.47846  -4535042.93246  25970229.0994   25970234.2314
      1109.9064        864.8624         13.5004         12.0004
  -5987568.88245  -4533044.92845  26257744.6064   26257750.3024
      2276.3284       1773.7624         11.5004         10.2504
  -8265825.52948  -6335237.72447  24040648.2084   24040651.3254
     -2477.9844      -1930.8974         32.5004         28.5004
  34093671.63843  26616295.23945  27667429.5444   27667434.9934
     -3358.3914      -2616.9284          5.5004          5.2504
  -3195789.72445  -2234565.18145  26938451.3954   26938458.3024
      2254.8594       1757.0334          8.5004          7.0004
  -5814137.03047  -4380131.26346  24594171.1454   24594174.8844
     -2933.7974      -2286.0754         25.0004         19.2504
 00  6 27  2  9 30.0090000  0  7G15G 1G22G25G29G16G11
  29003146.77643  22625047.93445  27640120.5284   27640130.6454
     -4757.6874      -3707.2894          5.5004          6.2504
  -5985157.64946  -4560934.17546  25963907.8884   25963911.9544
      1105.4224        861.3684         15.0004         12.5004
  -6055793.00945  -4586206.39645  26244761.2394   26244767.8844
      2272.1094       1770.4754         11.2504         10.2504
  -8191281.40948  -6277151.40847  24054833.6924   24054836.8564
     -2491.4224      -1941.3684         32.2504         28.2504
  34194426.81743  26694805.64345  27686602.0674   27686611.0484
     -3358.4374      -2616.9644          5.5004          6.2504
  -3263414.71645  -2287259.87345  26925582.1854   26925587.4464
      2253.6564       1756.0964          8.2504          7.0004
  -5725905.18847  -4311379.21546  24610961.2864   24610965.3064
     -2948.1254      -2297.2404         24.7504         18.7504
 00  6 27  2 10  0.0090000  0  7G15G 1G22G25G29G16G11
  29145848.48044  22736243.91645  27667276.8254   27667286.0054
     -4755.9224      -3705.9134          6.5004          6.0004
  -6018254.20746  -4586723.61846  25957608.0524   25957612.9504
      1100.8444        857.8004         14.0004         12.2504
  -6123891.49045  -4639270.01245  26231802.1144   26231808.3134
      2267.6254       1766.9814         11.2504         10.0004
  -8116337.91248  -6218753.87747  24069095.0134   24069097.6734
     -2504.9534      -1951.9124         32.5004         28.2504
  34295180.16642  26773314.69645  27705775.6924   27705779.6654
     -3358.6254      -2617.1104          4.7504          6.0004
  -3331005.87145  -2339928.22745  26912719.2084   26912725.5244
      2252.2504       1755.0004          7.7504          7.0004
  -5637247.77947  -4242295.55846  24627832.0834   24627836.3844
     -2962.5314      -2308.4664         25.0004         19.0004
 00  6 27  2 10 30.0090000  0  7G15G 1G22G25G29G16G11
  29288491.79342  22847394.47844  27694419.8174   27694425.9114
     -4753.6254      -3704.1234          4.5004          4.2504
  -6051217.72946  -4612409.42646  25951335.3104   25951340.7004
      1096.7034        854.5744         14.0004         12.5004
  -6191858.16645  -4692230.86045  26218868.2314   26218874.8414
      2263.4534       1763.7304         11.2504         10.0004
  -8040994.82048  -6160044.97447  24083432.2314   24083435.2904
     -2517.9534      -1962.0414         32.2504         28.0004
  34395934.35642  26851824.42545  27724947.9894   27724953.8254
     -3358.3444      -2616.8914          4.7504          6.2504
  -3398559.22345  -2392567.05945  26899864.8334   26899870.9974
      2251.2504       1754.2214          8.2504          7.7504
  -5548164.84347  -4172880.32846  24644784.0054   24644787.8374
     -2976.3594      -2319.2414         24.5004         19.2504
 00  6 27  2 11  0.0090000  0  7G15G 1G22G25G29G16G11
  29431069.54644  22958493.83545  27721553.0054   27721561.9034
     -4751.3284      -3702.3344          6.7504          6.7504
  -6084053.29046  -4637995.52146  25945087.3494   25945092.6344
      1092.5314        851.3234         14.2504         12.0004
  -6259694.27045  -4745090.04745  26205959.8884   26205965.7824
      2259.1414       1760.3694         11.7504         10.0004
  -7965258.73148  -6101029.84547  24097844.3564   24097847.2634
     -2530.9224      -1972.1474         32.5004         28.0004
  34496684.53943  26930331.02445  27744121.2634   27744128.6384
     -3358.1254      -2616.7214          5.0004          5.0004
  -3466077.82345  -2445178.90945  26887016.1224   26887022.2164
      2250.1724       1753.3814          8.2504          7.5004
  -5458663.70147  -4103139.21546  24661815.6614   24661819.9744
     -2990.1724      -2330.0044         24.7504         19.0004
 00  6 27  2 11 30.0090000  0  7G15G 1G22G25G29G16G11
  29573575.58644  23069537.39645  27748670.7634   27748675.6964
     -4749.0784      -3700.5804          6.5004          6.5004
  -6116764.73246  -4663484.88246  25938862.5054   25938867.0524
      1088.2194        847.9634         15.0004         12.0004
  -6327400.25545  -4797847.80645  26193075.9504   26193082.8104
      2254.5634       1756.8024         11.7504         10.7504
  -7889135.36648  -6041712.93647  24112329.9504   24112333.1494
     -2543.9694      -1982.3134         31.5004         28.0004
  34597427.14142  27008831.65745  27763291.1144   27763299.3454
     -3358.0784      -2616.6844          4.7504          5.5004
  -3533563.76145  -2497765.23045  26874173.1694   26874179.6494
      2248.8594       1752.3584          8.2504          7.5004
  -5368750.30147  -4033076.86746  24678925.3414   24678929.4774
     -3004.0474      -2340.8164         24.0004         19.0004
 00  6 27  2 12  0.0090000  0  6G15G 1G22G25G16G11
  29716012.04644  23180526.54045  27775776.3884   27775789.2944
     -4746.7194      -3698.7424          7.2504          6.0004
  -6149347.37246  -4688873.87246  25932662.0444   25932666.9664
      1083.9224        844.6144         14.5004         12.5004
  -6394968.42845  -4850498.19045  26180216.8254   26180222.3454
      2249.9384       1753.1984         11.2504         10.0004
  -7812621.81348  -5982091.99547  24126889.8174   24126892.8414
     -2556.9534      -1992.4314         31.7504         27.7504
  -3601010.22345  -2550320.83045  26861340.0444   26861346.1614
      2247.5314       1751.3234          9.0004          8.0004
  -5278422.33747  -3962691.49046  24696114.1774   24696118.0444
     -3017.8284      -2351.5544         24.2504         19.0004
 00  6 27  2 12 30.0090000  0  6G15G 1G22G25G16G11
  29858374.53044  23291458.32445  27802865.8954   27802879.4464
     -4744.3444      -3696.8914          6.5004          6.5004
  -6181803.35146  -4714164.17545  25926485.2554   25926491.6064
      1079.5634        841.2184         13.7504         11.2504
  -6462397.30045  -4903040.01545  26167384.6924   26167390.3764
      2245.0784       1749.4124         10.0004         10.2504
  -7735721.56448  -5922169.72847  24141523.6774   24141526.7244
     -2569.9534      -2002.5614         31.7504         28.0004
  -3668417.62645  -2602845.93545  26848513.4114   26848516.4464
      2246.0634       1750.1794         10.0004          7.7504
  -5187684.24547  -3891986.53846  24713381.1224   24713385.3524
     -3031.6094      -2362.2934         24.0004         18.2504
 00  6 27  2 13  0.0090000  0  6G15G 1G22G25G16G11
  30000667.98745  23402336.16145  27829944.7474   27829957.1384
     -4742.0314      -3695.0894          7.5004          5.2504
  -6214125.34746  -4739350.09246  25920334.7394   25920339.4974
      1075.0474        837.6994         14.0004         12.2504
  -6529675.55046  -4955464.47945  26154583.4424   26154590.2864
      2239.9224       1745.3944         12.2504         10.5004
  -7658429.33548  -5861942.01447  24156232.0674   24156234.6924
     -2583.0474      -2012.7644         32.0004         27.5004
  -3735776.61245  -2655333.47645  26835694.9744   26835701.3724
      2244.3594       1748.8514         10.0004          8.5004
  -5096531.21547  -3820958.26146  24730727.1384   24730731.3104
     -3045.4374      -2373.0684         23.5004         18.2504
 00  6 27  2 13 30.0100000  0  6G15G 1G22G25G16G11
  30142892.29345  23513160.23145  27857009.0494   27857019.2834
     -4739.1874      -3692.8734          8.7504          6.5004
  -6246317.07346  -4764434.47046  25914208.7914   25914213.5494
      1071.0314        834.5704         14.0004         12.2504
  -6596804.36346  -5007772.52545  26141809.3074   26141815.1784
      2235.1724       1741.6924         12.5004         11.0004
  -7580746.78648  -5801410.15847  24171014.6744   24171017.6624
     -2595.5624      -2022.5164         32.0004         27.7504
  -3803090.23545  -2707785.58345  26822885.5644   26822891.5644
      2243.0944       1747.8654          9.7504          8.7504
  -5004965.16647  -3749608.14746  24748151.5254   24748155.7094
     -3058.7034      -2383.4054         24.2504         18.5004
 00  6 27  2 14  0.0100000  0  6G15G 1G22G25G16G11
  30285029.26545  23623916.14945  27884056.5184   27884065.4634
     -4736.4694      -3690.7554          8.0004          6.2504
  -6278382.61346  -4789420.54446  25908106.4714   25908112.2364
      1066.7814        831.2584         13.5004         12.5004
  -6663782.39646  -5059963.05645  26129063.7444   26129069.8964
      2230.1254       1737.7604         12.2504         10.7504
  -7502687.21348  -5740584.52447  24185868.4474   24185871.5534
     -2608.2814      -2032.4274         31.0004         27.5004
  -3870358.69745  -2760202.49545  26810083.9474   26810089.6894
      2241.5634       1746.6724          9.7504          8.7504
  -4913000.97447  -3677947.80746  24765652.3774   24765656.0684
     -3072.1094      -2393.8514         25.0004         18.2504
 00  6 27  2 14 30.0100000  0  6G15G 1G22G25G16G11
  30427088.59245  23734611.67845  27911090.6354   27911096.1074
     -4733.9694      -3688.8074          8.7504          4.7504
  -6310315.87246  -4814303.50646  25902030.3464   25902035.7254
      1062.2664        827.7394         14.2504         13.0004
  -6730601.53746  -5112029.77445  26116347.9554   26116354.2014
      2224.6564       1733.4984         12.0004         10.7504
  -7424242.49948  -5679458.77547  24200796.2134   24200799.3184
     -2621.1874      -2042.4844         31.7504         27.7504
  -3937574.74045  -2812578.53145  26797293.2684   26797298.8934
      2239.6564       1745.1874          9.7504          9.2504
  -4820630.63247  -3605970.96846  24783229.5334   24783233.4354
     -3085.7344      -2404.4684         24.0004         18.0004
 00  6 27  2 15  0.0100000  0  6G15G 1G22G25G16G11
  30569067.91442  23845244.86043  27938107.1894   27938118.3614
     -4731.3444      -3686.7614          4.5004          3.2504
  -6342117.43446  -4839083.88846  25895978.7754   25895984.1894
      1057.7974        824.2574         15.0004         12.7504
  -6797258.56445  -5163970.18645  26103663.5574   26103669.3104
      2219.1094       1729.1764         11.7504         10.0004
  -7345414.90048  -5618034.68347  24215796.6504   24215799.6504
     -2634.0004      -2052.4684         31.5004         27.5004
  -4004737.14645  -2864912.83745  26784513.1354   26784519.4864
      2237.7974       1743.7384         10.2504          9.0004
  -4727857.09047  -3533679.95146  24800883.8694   24800887.8774
     -3099.1874      -2414.9514         23.7504         18.0004
 00  6 27  2 15 30.0100000  0  5G 1G22G25G16G11
  -6373791.39446  -4863764.81846  25889950.7604   25889955.7054
      1053.6094        820.9944         14.2504         13.0004
  -6863753.73445  -5215784.48545  26091009.6274   26091016.2134
      2213.7034       1724.9634         11.5004         10.2504
  -7266210.33948  -5556316.84047  24230869.0494   24230871.6974
     -2646.4844      -2062.1964         32.0004         27.2504
  -4071848.13145  -2917207.03845  26771742.6034   26771748.3104
      2236.0944       1742.4114         10.2504          9.2504
  -4634686.93047  -3461079.89546  24818613.0334   24818616.9004
     -3112.3284      -2425.1914         22.2504         18.0004
 00  6 27  2 16  0.0100000  0  5G 1G22G25G16G11
  -6405338.82546  -4888347.15646  25883948.0184   25883953.2914
      1049.4534        817.7564         15.2504         13.2504
  -6930084.35445  -5267470.55145  26078387.5644   26078393.7754
      2208.2194       1720.6904         11.7504         10.5004
  -7186631.75148  -5494307.55547  24246011.8534   24246014.9354
     -2658.8444      -2071.8264         31.0004         27.2504
  -4138906.68645  -2969460.35945  26758981.2134   26758986.9784
      2234.3914       1741.0844         10.5004          8.7504
  -4541123.49747  -3388173.38146  24836417.8854   24836421.8104
     -3125.3124      -2435.3084         23.5004         17.7504
 00  6 27  2 16 30.0100000  0  5G 1G22G25G16G11
  -6436759.95146  -4912831.08446  25877968.0964   25877973.3344
      1044.9694        814.2614         14.7504         12.7504
  -6996247.81645  -5319026.36845  26065796.4634   26065802.8964
      2202.3594       1716.1244         11.5004         10.0004
  -7106681.44148  -5432008.61747  24261225.9394   24261229.1034
     -2671.4694      -2081.6644         30.7504         27.2504
  -4205911.36745  -3021671.75045  26746230.5104   26746236.3344
      2232.2814       1739.4404         10.5004          8.2504
  -4447169.95247  -3314962.87446  24854296.7524   24854300.7134
     -3138.5474      -2445.6214         22.7504         17.7504
 00  6 27  2 17  0.0100000  0  5G 1G22G25G16G11
  -6468050.25546  -4937213.04446  25872014.0884   25872019.1034
      1040.8594        811.0594         15.0004         12.7504
  -7062236.02745  -5370445.63645  26053239.0574   26053245.0804
      2196.6564       1711.6804         11.2504         10.0004
  -7026356.48948  -5369417.75747  24276511.6824   24276514.4824
     -2683.6874      -2091.1854         31.2504         27.2504
  -4272855.58645  -3073836.00445  26733491.4554   26733498.3384
      2230.5004       1738.0524         10.5004          8.5004
  -4352824.09447  -3241446.69146  24872250.3694   24872254.6234
     -3151.3284      -2455.5804         23.0004         18.0004
 00  6 27  2 17 30.0100000  0  5G 1G22G25G16G11
  -6499211.97646  -4961494.84446  25866084.7684   25866089.1744
      1036.5164        807.6754         16.2504         13.7504
  -7128047.67646  -5421727.31045  26040716.2754   26040722.5684
      2190.6724       1707.0174         12.5004         10.2504
  -6945660.98248  -5306538.14947  24291867.2214   24291870.3854
     -2696.0624      -2100.8284         30.5004         27.0004
  -4339739.74045  -3125953.40745  26720763.9784   26720769.7094
      2228.3754       1736.3964         10.5004          9.0004
  -4258090.41647  -3167628.29746  24890277.4554   24890281.6504
     -3164.2974      -2465.6864         23.0004         17.7504
 00  6 27  2 18  0.0100000  0  5G 1G22G25G16G11
  -6530241.59546  -4985673.68546  25860179.2444   25860184.2484
      1032.1724        804.2904         15.2504         13.5004
  -7193675.37146  -5472865.66445  26028227.6034   26028232.9824
      2184.5314       1702.2324         12.0004         10.2504
  -6864593.12248  -5243368.39947  24307294.0254   24307297.1194
     -2708.4064      -2110.4464         31.0004         26.7504
  -4406558.15145  -3178019.63345  26708049.1974   26708054.2364
      2226.2034       1734.7044         10.5004          9.2504
  -4162967.99847  -3093506.99246  24908378.4474   24908383.1234
     -3177.1564      -2475.7064         21.7504         17.2504
 00  6 27  2 18 30.0100000  0  5G 1G22G25G16G11
  -6561142.05246  -5009751.89046  25854299.6114   25854304.9434
      1027.9844        801.0274         15.7504         13.0004
  -7259118.38646  -5523860.06845  26015774.2364   26015780.5414
      2178.4534       1697.4964         12.0004         10.0004
  -6783157.78048  -5179912.29247  24322790.8614   24322793.5924
     -2720.5004      -2119.8704         31.2504         26.5004
  -4473311.82545  -3230035.38645  26695345.9474   26695350.8224
      2224.1414       1733.0974         10.5004          8.7504
  -4067462.47247  -3019087.15046  24926552.6584   24926557.0414
     -3189.7664      -2485.5324         22.0004         17.5004
 00  6 27  2 19  0.0100000  0  5G 1G22G25G16G11
  -6591917.27046  -5033732.50646  25848443.2364   25848447.8304
      1023.8134        797.7764         16.0004         13.5004
  -7324377.19546  -5574710.97845  26003355.7054   26003361.7754
      2172.2504       1692.6624         12.2504         10.2504
  -6701360.72948  -5116174.34447  24338356.1744   24338359.3614
     -2732.5164      -2129.2334         30.2504         26.5004
  -4540002.61545  -3282002.11345  26682654.5884   26682660.8574
      2222.0634       1731.4774         10.7504          9.5004
  -3971579.94647  -2944373.54246  24944798.8854   24944803.3264
     -3202.2664      -2495.2724         22.2504         17.2504
 00  6 27  2 19 30.0100000  0  5G 1G22G25G16G11
  -6622571.03146  -5057618.47846  25842609.9714   25842614.4714
      1019.6564        794.5374         16.0004         13.0004
  -7389452.37545  -5625418.82345  25990971.4244   25990977.6824
      2165.9534       1687.7564         11.2504          9.7504
  -6619207.02948  -5052158.48547  24353989.5104   24353992.7444
     -2744.5004      -2138.5714         30.7504         26.5004
  -4606632.64645  -3333921.50945  26669974.9084   26669981.0494
      2219.8594       1729.7614         10.7504          9.2504
  -3875326.75747  -2869371.11246  24963114.8074   24963118.9674
     -3214.7034      -2504.9634         22.0004         17.5004
 00  6 27  2 20  0.0100000  0  5G 1G22G25G16G11
  -6653093.90946  -5081402.47146  25836801.5254   25836806.0844
      1015.3914        791.2134         16.2504         13.5004
  -7454330.92746  -5675973.39145  25978626.4164   25978632.5574
      2159.4384       1682.6794         13.0004         10.2504
  -6536689.55048  -4987859.15947  24369691.8464   24369694.9164
     -2756.4694      -2147.8984         30.0004         26.5004
  -4673190.19145  -3385784.42745  26657309.5724   26657315.2214
      2217.5004       1727.9224         11.0004          9.2504
  -3778696.28347  -2794074.69746  24981503.2994   24981507.4594
     -3227.1254      -2514.6434         22.0004         16.7504
 00  6 27  2 20 30.0100000  0  5G 1G22G25G16G11
  -6683492.81746  -5105089.87746  25831016.7284   25831021.6974
      1011.4064        788.1094         15.7504         13.5004
  -7519015.70846  -5726377.00645  25966317.4554   25966322.9864
      2153.0634       1677.7114         13.7504         11.5004
  -6453817.16148  -4923283.27747  24385462.1744   24385465.2094
     -2768.1254      -2156.9814         30.5004         26.2504
  -4739680.27145  -3437594.73545  26644657.0104   26644662.2364
      2215.3594       1726.2544         11.5004          9.0004
  -3681697.83347  -2718491.53346  24999961.4244   24999965.8184
     -3239.2194      -2524.0674         22.0004         17.0004
 00  6 27  2 21  0.0100000  0  5G 1G22G25G16G11
  -6713769.67446  -5128682.16546  25825255.3144   25825260.6934
      1007.2034        784.8344         15.5004         13.2504
  -7583505.13946  -5776628.39345  25954044.5334   25954049.7484
      2146.3594       1672.4884         12.7504         11.0004
  -6370593.64748  -4858433.80047  24401299.1354   24401302.2644
     -2779.9534      -2166.1974         30.5004         26.5004
  -4806102.72745  -3489352.40145  26632017.0964   26632022.3344
      2212.9534       1724.3794         11.7504          9.7504
  -3584335.61447  -2642624.92646  25018489.6354   25018493.3964
     -3251.4374      -2533.5884         23.2504         16.7504
 00  6 27  2 21 30.0100000  0  5G 1G22G25G16G11
  -6743921.45246  -5152177.01746  25819517.5884   25819522.0184
      1002.9844        781.5464         16.2504         13.7504
  -7647792.90746  -5826722.64245  25941810.6354   25941815.8734
      2139.5314       1667.1674         12.5004         11.0004
  -6287017.33148  -4793309.41047  24417202.9004   24417206.1934
     -2791.7194      -2175.3654         30.2504         26.2504
  -4872452.40745  -3541053.34845  26619390.9004   26619395.1194
      2210.4224       1722.4074         11.2504          9.0004
  -3486609.23947  -2566474.55946  25037085.8614   25037090.0334
     -3263.5624      -2543.0364         21.7504         16.7504
 00  6 27  2 22  0.0100000  0  5G 1G22G25G16G11
  -6773945.97946  -5175572.68246  25813803.4164   25813807.7284
       998.6564        778.1744         16.2504         13.5004
  -7711873.65846  -5876655.58945  25929617.1894   25929623.2014
      2132.5004       1661.6884         13.7504         11.5004
  -6203087.86048  -4727909.83147  24433174.1974   24433177.2444
     -2803.5474      -2184.5824         30.0004         26.0004
  -4938725.18545  -3592694.32745  26606779.3074   26606784.8734
      2207.7504       1720.3254         11.0004          9.7504
  -3388519.32047  -2490040.89946  25055751.8614   25055756.8184
     -3275.7344      -2552.5204         21.7504         16.7504
 00  6 27  2 22 30.0100000  0  5G 1G22G25G16G11
  -6803846.13246  -5198871.47446  25808113.9784   25808118.5964
       994.6254        775.0324         16.5004         13.5004
  -7775746.22146  -5926426.31245  25917461.7214   25917467.7914
      2125.6094       1656.3194         13.0004         11.2504
  -6118810.10248  -4662238.86147  24449212.1194   24449214.8034
     -2815.0004      -2193.5064         30.7504         26.2504
  -5004921.91545  -3644276.11545  26594182.9944   26594188.9944
      2205.2974       1718.4134         11.2504          9.7504
  -3290071.33147  -2413328.23946  25074486.0884   25074490.3774
     -3287.5164      -2561.7004         21.5004         16.2504
 00  6 27  2 23  0.0100000  0  5G 1G22G25G16G11
  -6833616.22946  -5222068.89746  25802448.6354   25802453.7794
       990.2814        771.6484         16.2504         14.0004
  -7839401.34246  -5976027.57945  25905349.1434   25905355.2014
      2118.2974       1650.6214         13.5004         11.7504
  -6034180.79148  -4596293.95047  24465316.3144   24465319.1744
     -2826.6874      -2202.6144         30.0004         26.0004
  -5071035.10145  -3695792.74945  26581602.0334   26581608.0454
      2202.4694       1716.2094         11.5004          9.7504
  -3191262.04147  -2336334.04346  25093288.8534   25093292.5334
     -3299.5164      -2571.0514         22.2504         16.7504
 00  6 27  2 23 30.0100000  0  5G 1G22G25G16G11
  -6863267.64046  -5245173.85046  25796805.9554   25796810.7834
       986.1724        768.4464         16.0004         14.0004
  -7902846.63346  -6025465.35345  25893275.9714   25893282.1004
      2111.0634       1644.9844         14.0004         11.5004
  -5949212.75448  -4530085.09647  24481485.1354   24481488.2524
     -2838.1254      -2211.5264         29.7504         26.0004
  -5137073.81245  -3747251.38245  26569035.0414   26569041.0414
      2199.7814       1714.1154         11.0004         10.0004
  -3092105.50347  -2259069.25146  25112156.9554   25112161.7254
     -3311.2194      -2580.1704         20.5004         16.0004
 00  6 27  2 24  0.0100000  0  5G 1G22G25G16G11
  -6892798.77046  -5268185.07846  25791186.7444   25791191.5844
       982.2664        765.4024         16.5004         13.5004
  -7966077.58846  -6074736.12945  25881242.6434   25881248.3034
      2103.9844       1639.4684         13.5004         11.5004
  -5863906.25948  -4463612.51247  24497718.4554   24497721.2444
     -2849.2504      -2220.1954         30.0004         26.0004
  -5203034.43745  -3798649.18845  26556482.9944   26556488.7254
      2197.2814       1712.1674         11.2504          9.7504
  -2992602.79847  -2181534.73446  25131092.5334   25131097.0454
     -3322.5944      -2589.0344         21.2504         15.7504
 00  6 27  2 24 30.0100000  0  5G 1G22G25G16G11
  -6922203.70346  -5291097.98346  25785590.6434   25785594.9554
       978.2194        762.2484         16.2504         14.0004
  -8029084.77346  -6123832.51745  25869253.0104   25869259.0804
      2096.6254       1633.7344         13.5004         11.7504
  -5778257.35948  -4396873.11547  24514016.8074   24514019.7604
     -2860.4844      -2228.9494         29.7504         25.7504
  -5268909.21745  -3849980.09445  26543947.5254   26543953.1624
      2194.5314       1710.0244         11.0004         10.0004
  -2892750.64447  -2103727.91146  25150093.3384   25150097.5924
     -3334.0474      -2597.9594         21.0004         16.0004
 00  6 27  2 25  0.0100000  0  6G19G 1G22G25G16G11
    -40622.59853                  28030425.2364
      2388.5634                          5.0004
  -6951487.82346  -5313916.72346  25780018.7684   25780023.2684
       973.9694        758.9374         17.0004         14.2504
  -8091869.43346  -6172755.52746  25857305.2054   25857311.3344
      2088.9224       1627.7314         13.5004         12.0004
  -5692273.20948  -4329872.48347  24530379.0104   24530382.0804
     -2871.8594      -2237.8124         29.5004         25.7504
  -5334700.96845  -3901246.29245  26531427.0644   26531433.0414
      2191.5164       1707.6754         10.7504          9.7504
  -2792556.81247  -2025654.84846  25169159.4474   25169164.2754
     -3345.6094      -2606.9684         20.2504         16.0004
 00  6 27  2 25 30.0100000  0  6G19G 1G22G25G16G11
   -112226.28543                  28016799.2134
      2384.7974                          5.2504
  -6980647.61246  -5336638.58946  25774469.4784   25774474.3534
       969.8134        755.6984         16.5004         14.0004
  -8154424.51146  -6221499.60846  25845402.4554   25845408.8184
      2081.2034       1621.7174         14.7504         12.2504
  -5605952.19148  -4262609.35746  24546805.3534   24546808.5534
     -2883.0624      -2246.5424         28.7504         25.5004
  -5400404.23145  -3952443.57545  26518924.0494   26518929.4514
      2188.5004       1705.3254         10.7504          9.5004
  -2692020.56246  -1947314.97146  25188290.7994   25188295.9554
     -3356.9844      -2615.8324         19.5004         15.5004
 00  6 27  2 26  0.0100000  0  6G19G 1G22G25G16G11
   -183716.88143     -1854.21855  28003195.4784   28003203.0184
      2381.0314       1855.3494          5.5004          4.7504
  -7009683.68646  -5359264.05746  25768943.7604   25768948.2134
       965.7344        752.5204         15.7504         13.7504
  -8216747.10146  -6270062.56746  25833542.3074   25833548.4824
      2073.4224       1615.6534         13.7504         12.2504
  -5519296.92348  -4195085.77346  24563295.4244   24563298.4004
     -2894.1254      -2255.1624         29.5004         25.2504
  -5466017.71645  -4003570.87345  26506438.8074   26506444.4554
      2185.5314       1703.0114         11.2504          9.5004
  -2591145.08746  -1868710.76646  25207486.6974   25207491.3504
     -3368.2034      -2624.5744         19.5004         15.5004
 00  6 27  2 26 30.0100000  0  6G19G 1G22G25G16G11
   -255095.95942    -57474.02045  27989612.1194   27989623.9124
      2377.4844       1852.5854          3.7504          4.5004
  -7038599.37446  -5381795.72146  25763441.1824   25763446.6664
       961.8914        749.5254         16.0004         13.7504
  -8278837.39146  -6318444.49146  25821726.7284   25821732.5644
      2065.8134       1609.7244         14.7504         12.2504
  -5432312.72348  -4127305.88346  24579847.7914   24579851.0374
     -2904.8914      -2263.5514         29.5004         25.5004
  -5531542.58345  -4054629.13245  26493969.5574   26493975.2874
      2182.7034       1700.8084         11.0004         10.2504
  -2489936.50847  -1789846.99346  25226746.7834   25226751.0144
     -3379.1094      -2633.0724         20.2504         15.5004
 00  6 27  2 27  0.0100000  0  6G19G 1G22G25G16G11
   -326362.14341   -113005.76945  27976049.9784   27976060.3424
      2373.6254       1849.5784          3.5004          5.2504
  -7067394.95246  -5404233.80446  25757961.9554   25757966.3854
       957.8134        746.3474         16.5004         14.2504
  -8340692.26246  -6366642.97946  25809955.1434   25809961.4004
      2057.8284       1603.5024         14.0004         13.0004
  -5345001.59048  -4059271.23046  24596462.8464   24596465.5184
     -2915.8284      -2272.0744         30.0004         25.2504
  -5596977.08045  -4105616.97645  26481517.1114   26481523.6154
      2179.5784       1698.3734         10.7504          9.0004
  -2388397.82147  -1710726.00346  25246068.8934   25246073.7214
     -3390.1254      -2641.6564         20.2504         15.2504
 00  6 27  2 27 30.0100000  0  6G19G 1G22G25G16G11
   -397517.96241   -168451.57944  27962507.7524   27962522.6974
      2369.9534       1846.7174          3.0004          4.0004
  -7096074.50446  -5426581.46346  25752503.8854   25752508.6544
       954.0004        743.3774         16.2504         14.0004
  -8402311.55746  -6414657.90646  25798230.2054   25798236.2524
      2049.9534       1597.3664         15.0004         12.5004
  -5257369.42548  -3990986.42446  24613138.3304   24613141.4944
     -2926.4534      -2280.3534         29.0004         25.2504
  -5662322.85345  -4156535.67445  26469082.2834   26469087.8384
      2176.6414       1696.0844         11.0004          9.7504
  -2286535.48946  -1631352.81046  25265452.4474   25265457.1354
     -3400.8444      -2650.0084         19.7504         15.7504
 00  6 27  2 28  0.0100000  0  6G19G 1G22G25G16G11
   -468556.98241   -223806.19844  27948989.1354   27948995.9554
      2365.7664       1843.4544          2.5004          4.0004
  -7124633.21246  -5448834.95446  25747069.5804   25747073.9984
       949.7344        740.0534         16.7504         14.0004
  -8463687.15946  -6462482.94446  25786550.7214   25786556.6854
      2041.5474       1590.8164         15.2504         13.0004
  -5169413.46148  -3922449.31246  24629876.0024   24629879.0724
     -2937.4534      -2288.9254         29.0004         25.2504
  -5727573.28445  -4207380.09445  26456665.9394   26456672.2094
      2173.2034       1693.4054         11.7504          9.7504
  -2184347.59546  -1551725.91946  25284898.1274   25284902.7914
     -3411.8594      -2658.5924         19.7504         15.5004
 00  6 27  2 28 30.0100000  0  6G19G 1G22G25G16G11
   -539474.02043                  27935496.0334
      2361.7814                          5.0004
  -7153067.59946                  25741657.9864
       945.6564                         15.5004
  -8524812.08346  -6510112.63746  25774918.7754   25774924.5644
      2033.2194       1584.3264         15.2504         13.0004
  -5081132.20848  -3853658.72646  24646675.2524   24646678.5214
     -2948.1724      -2297.2774         28.5004         25.0004
  -5792722.75345  -4258145.84745  26444268.5804   26444274.3694
      2169.8914       1690.8244         11.7504          9.7504
  -2081833.42747  -1471844.81146  25304406.8534   25304410.7914
     -3422.6094      -2666.9684         20.7504         15.5004
 00  6 27  2 29  0.0100000  0  6G19G 1G22G25G16G11
   -610274.42343                  27922021.7684
      2358.1414                          5.5004
  -7181384.57446                  25736270.4474
       942.0314                         16.5004
  -8585689.92446  -6557549.82446  25763333.0724   25763339.6234
      2025.2034       1578.0804         13.7504         13.0004
  -4992534.44548  -3784621.51246  24663534.9324   24663538.1784
     -2958.4224      -2305.2644         28.7504         24.7504
  -5857775.95345  -4308836.59845  26431888.8464   26431894.0494
      2166.9064       1688.4984         11.2504          9.7504
  -1979002.44746  -1391716.85846  25323974.6974   25323978.6704
     -3432.8594      -2674.9554         19.7504         15.0004
 00  6 27  2 29 30.0100000  0  6G19G 1G22G25G16G11
   -680949.86543     -7336.03855  27908572.7684   27908583.0024
      2353.8284       1834.1524          5.0004          5.7504
  -7209577.29846     -5117.05156  25730905.8614   25730909.8104
       937.7814        730.7394         17.7504         14.7504
  -8646310.45546  -6604786.50946  25751797.7834   25751803.5254
      2016.4384       1571.2504         14.5004         13.5004
  -4903615.33248  -3715333.88846  24680455.6274   24680458.7214
     -2969.2194      -2313.6774         28.7504         24.7504
  -5922723.81046  -4359445.26145  26419530.3074   26419534.8534
      2163.2344       1685.6374         12.0004         10.7504
  -1875850.64647  -1311338.89146  25343603.7364   25343608.2834
     -3443.6254      -2683.3444         20.0004         15.2504
 00  6 27  2 30  0.0100000  0  6G19G 1G22G25G16G11
   -751503.62143    -62312.66145  27895146.0574   27895154.8854
      2349.7814       1830.9984          5.0004          5.5004
  -7237650.52046    -26992.26146  25725562.9394   25725567.2174
       933.8284        727.6584         17.0004         14.7504
  -8706674.49646  -6651823.30946  25740311.1744   25740317.1624
      2007.8594       1564.5664         15.2504         13.0004
  -4814381.44548  -3645800.99846  24697436.3384   24697439.3854
     -2979.6414      -2321.7984         28.7504         24.5004
  -5987569.17846  -4409974.05445  26407190.2054   26407195.7484
      2159.8284       1682.9834         12.0004         10.5004
  -1772385.35846  -1230716.64946  25363292.2054   25363297.2794
     -3454.0004      -2691.4294         18.5004         14.7504
 00  6 27  2 30 30.0100000  0  6G19G 1G22G25G16G11
   -821930.21843   -117190.07945  27881744.3224   27881752.1664
      2345.2664       1827.4804          5.0004          5.2504
  -7265600.49546    -48771.42646  25720244.3074   25720249.1114
       929.4534        724.2494         17.0004         14.5004
  -8766774.63246  -6698654.46946  25728874.5104   25728880.5684
      1998.7664       1557.4804         15.0004         13.0004
  -4724830.44548  -3576020.99546  24714477.1354   24714480.1464
     -2990.4374      -2330.2114         28.5004         24.5004
  -6052306.01346  -4460418.28445  26394871.2054   26394877.2174
      2155.9224       1679.9394         12.2504         10.2504
  -1668605.81646  -1149849.53746  25383041.0644   25383045.5644
     -3464.6564      -2699.7324         19.2504         14.7504
 00  6 27  2 31  0.0100000  0  6G19G 1G22G25G16G11
   -892222.81343   -171963.24645  27868368.7444   27868374.2174
      2341.1094       1824.2414          6.0004          4.7504
  -7293422.05446    -70450.53446  25714950.2994   25714954.9164
       925.5164        721.1814         16.7504         15.0004
  -8826602.37446  -6745273.38646  25717489.8074   25717495.7364
      1989.9694       1550.6254         15.0004         13.0004
  -4634959.38348  -3505991.60346  24731579.4244   24731582.3184
     -3000.7344      -2338.2354         28.7504         24.2504
  -6116926.94946  -4510772.19845  26382574.1354   26382579.9244
      2152.3444       1677.1514         12.5004         10.2504
  -1564509.63946  -1068735.70546  25402850.0804   25402854.0294
     -3474.8444      -2707.6704         19.2504         14.7504
 00  6 27  2 31 30.0100000  0  6G19G 1G22G25G16G11
   -962391.60244   -226639.84145  27855015.9864   27855024.4394
      2336.7034       1820.8084          7.2504          6.5004
  -7321127.14146    -92038.85846  25709677.9864   25709682.8034
       921.3914        717.9674         17.7504         14.7504
  -8886166.49146  -6791686.90046  25706154.4394   25706160.0184
      1980.8594       1543.5274         15.0004         13.0004
  -4544782.79248  -3435724.13746  24748739.4394   24748742.3934
     -3011.1414      -2346.3434         28.7504         24.5004
  -6181441.63546  -4561043.31245  26370296.8464   26370302.0844
      2148.5164       1674.1684         12.0004         10.5004
  -1460111.27846   -987386.40346  25422716.0724   25422720.5494
     -3485.1254      -2715.6824         18.5004         14.7504
 00  6 27  2 32  0.0100000  0  6G19G 1G22G25G16G11
  -1032427.50945   -281212.95745  27841688.2994   27841694.3224
      2332.4534       1817.4964          7.5004          6.5004
  -7348708.12946   -113530.50046  25704429.1434   25704433.8654
       917.4694        714.9114         17.0004         15.0004
  -8945455.73746  -6837886.19646  25694872.6824   25694878.4594
      1971.8444       1536.5024         15.2504         12.7504
  -4454294.48348  -3365213.77046  24765958.6974   24765961.8964
     -3021.2974      -2354.2574         28.2504         24.2504
  -6245840.59246  -4611224.25545  26358042.8534   26358048.4554
      2144.8284       1671.2954         12.7504         11.0004
  -1355405.90546   -905797.86446  25442640.3534   25442644.1854
     -3495.1094      -2723.4624         17.5004         14.5004
 00  6 27  2 32 30.0100000  0  6G19G 1G22G25G16G11
  -1102338.00844   -335688.35345  27828383.7364   27828392.2254
      2328.2344       1814.2094          6.5004          6.7504
  -7376173.91846   -134932.38246  25699202.6274   25699207.8424
       913.5944        711.8914         16.7504         15.0004
  -9004475.09046  -6883875.19746  25683641.6584   25683647.5184
      1962.7664       1529.4284         15.2504         13.5004
  -4363505.21348  -3294468.89146  24783235.6584   24783238.6704
     -3031.3124      -2362.0624         28.7504         24.2504
  -6310130.14946  -4661319.94745  26345808.8934   26345815.3504
      2141.1414       1668.4214         13.0004         11.2504
  -1250405.12846   -823979.15446  25462621.9554   25462627.4044
     -3504.9224      -2731.1084         18.2504         14.2504
 00  6 27  2 33  0.0100000  0  6G19G 1G22G25G16G11
  -1172118.15343   -390062.11345  27815103.8074   27815112.4124
      2323.7974       1810.7514          5.7504          6.2504
  -7403521.17746   -156241.88746  25693998.7444   25694003.8074
       909.5784        708.7624         17.5004         15.0004
  -9063217.63346  -6929648.50246  25672462.9714   25672468.3504
      1953.4224       1522.1474         15.0004         13.2504
  -4272413.71647  -3223488.51446  24800569.1664   24800572.3424
     -3041.4224      -2369.9394         27.2504         24.0004
  -6374304.92446  -4711326.21445  26333596.4244   26333602.1434
      2137.1884       1665.3414         12.7504         11.2504
  -1145108.44746   -741929.85346  25482660.0104   25482664.3694
     -3514.8124      -2738.8154         19.0004         14.5004
 00  6 27  2 33 30.0100000  0  6G19G 1G22G25G16G11
  -1241761.10244   -444329.01545  27801851.5104   27801863.9474
      2319.3134       1807.2564          6.7504          5.7504
  -7430744.39246   -177454.73046  25688818.4004   25688823.0534
       905.5474        705.6214         17.7504         15.2504
  -9121674.97946  -6975199.57246  25661338.4004   25661344.2604
      1943.9384       1514.7564         14.7504         13.0004
  -4181016.65847  -3152270.04646  24817961.4244   24817964.7174
     -3051.4694      -2377.7684         27.7504         24.0004
  -6438357.50046  -4761237.24745  26321408.1194   26321413.5454
      2133.2034       1662.2364         13.0004         11.7504
  -1039513.16846   -659647.87746  25502753.9244   25502758.7404
     -3524.6254      -2746.4614         18.5004         14.0004
 00  6 27  2 34  0.0100000  0  6G19G 1G22G25G16G11
  -1311273.88145   -498494.51345  27788623.9324   27788629.9324
      2314.8444       1803.7744          7.7504          6.5004
  -7457852.22346   -198577.65946  25683659.6664   25683664.6824
       901.6094        702.5534         18.0004         15.7504
  -9179852.31746  -7020532.46446  25650267.5414   25650272.9434
      1934.4694       1507.3784         15.0004         13.2504
  -4089324.37647  -3080821.52846  24835410.1354   24835413.1584
     -3061.3914      -2385.4994         27.7504         23.5004
  -6502294.29346  -4811058.03045  26309241.6354   26309246.8144
      2129.2034       1659.1194         13.5004         11.5004
   -933630.78646   -577142.20646  25522902.5724   25522907.6934
     -3534.2504      -2753.9614         18.2504         14.5004
 00  6 27  2 34 30.0100000  0  6G19G 1G22G25G16G11
  -1380652.81645   -552555.78645  27775421.0804   27775429.3344
      2310.3594       1800.2804          8.0004          6.0004
  -7484842.66346   -219609.13846  25678523.7684   25678528.6314
       897.6884        699.4974         17.7504         15.2504
  -9237743.97646  -7065642.73046  25639251.6664   25639257.1974
      1924.9064       1499.9274         16.5004         13.7504
  -3997336.79948  -3009142.90846  24852914.8694   24852917.6234
     -3071.1874      -2393.1334         28.2504         23.7504
  -6566111.04346  -4860785.27445  26297096.9864   26297102.4004
      2125.1884       1655.9904         13.5004         11.7504
   -827462.01246   -494413.36646  25543106.6354   25543110.9354
     -3543.7344      -2761.3514         19.2504         14.0004
 00  6 27  2 35  0.0100000  0  6G19G 1G22G25G16G11
  -1449892.26345   -606508.22245  27762244.8224   27762250.6824
      2305.7814       1796.7134          7.5004          5.2504
  -7511711.62746   -240545.92346  25673410.4164   25673415.1974
       893.7504        696.4294         17.5004         15.5004
  -9295341.97646  -7110524.18146  25628289.7444   25628295.5684
      1915.1414       1492.3174         15.0004         13.7504
  -3905052.15047  -2937232.80246  24870475.7444   24870479.0144
     -3080.9534      -2400.7434         26.7504         23.5004
  -6629801.35946  -4910414.01745  26284976.3774   26284982.0964
      2121.0164       1652.7394         13.2504         11.7504
   -721005.70146   -411460.46946  25563363.9394   25563368.2874
     -3553.1564      -2768.6934         17.7504         14.0004
 00  6 27  2 35 30.0100000  0  6G19G 1G22G25G16G11
  -1518995.37545   -660354.57145  27749095.3144   27749106.7444
      2301.0944       1793.0604          8.2504          6.0004
  -7538463.80346   -261391.71546  25668319.7214   25668324.1394
       889.7344        693.3004         18.0004         15.2504
  -9352647.52846  -7155177.74846  25617385.0254   25617391.1664
      1905.2344       1484.5984         15.0004         13.5004
  -3812476.75647  -2865096.13646  24888092.5644   24888095.6234
     -3090.7344      -2408.3644         27.7504         23.5004
  -6693367.52646  -4959946.03045  26272880.1744   26272884.7324
      2116.7344       1649.4034         12.7504         11.5004
   -614269.15246   -328289.21846  25583674.7754   25583680.1434
     -3562.5784      -2776.0354         17.5004         14.0004
 00  6 27  2 36  0.0100000  0  6G19G 1G22G25G16G11
  -1587957.75245   -714091.27145  27735971.2214   27735979.5684
      2296.7194       1789.6514          7.5004          5.2504
  -7565096.17446   -282144.15846  25663252.1974   25663256.5684
       886.0784        690.4504         18.5004         15.7504
  -9409654.65646  -7199598.79146  25606537.4554   25606543.4324
      1895.5474       1477.0504         16.0004         13.5004
  -3719609.59647  -2792732.12246  24905764.6584   24905767.9514
     -3100.0784      -2415.6454         27.0004         23.5004
  -6756804.82946  -5009377.61845  26260809.2214   26260814.9984
      2112.7344       1646.2874         13.5004         11.7504
   -507252.38846   -244899.60846  25604040.4554   25604044.7214
     -3571.5314      -2783.0114         18.5004         14.2504
 00  6 27  2 36 30.0100000  0  6G19G 1G22G25G16G11
  -1656781.55045   -767719.96945  27722875.3934   27722882.4864
      2292.0004       1785.9744          8.5004          5.2504
  -7591612.36246   -302806.05946  25658205.6434   25658210.8104
       882.1414        687.3824         18.0004         16.0004
  -9466363.61846  -7243787.48146  25595746.0494   25595751.7564
      1885.4844       1469.2094         16.2504         14.0004
  -3626456.46647  -2720145.28846  24923490.7914   24923493.9554
     -3109.6564      -2423.1094         26.2504         23.0004
  -6820114.27546  -5058709.56846  26248761.4394   26248766.6784
      2108.3444       1642.8654         13.7504         12.0004
   -399961.68246   -161296.54446  25624455.9004   25624461.3144
     -3580.6874      -2790.1464         16.5004         13.2504
 00  6 27  2 37  0.0100000  0  6G19G 1G22G25G16G11
  -1725462.73545   -821237.47745  27709804.4864   27709813.0684
      2286.6724       1781.8224          8.0004          7.0004
  -7618009.87846   -323375.50046  25653181.9864   25653186.8504
       877.6414        683.8764         17.5004         15.7504
  -9522768.15646  -7287738.97246  25585012.1824   25585018.1704
      1874.7034       1460.8084         16.0004         14.5004
  -3533016.63547  -2647335.03946  24941271.8934   24941275.4554
     -3119.7504      -2430.9744         26.2504         23.0004
  -6883291.06646  -5107938.16246  26236739.4474   26236744.5334
      2103.3444       1638.9694         14.5004         12.2504
   -292397.44046    -77480.33246  25644924.9634   25644930.3074
     -3590.3284      -2797.6584         16.5004         13.7504
 00  6 27  2 37 30.0100000  0  6G19G 1G22G25G16G11
  -1793998.30845   -874641.62145  27696762.2524   27696769.7794
      2282.0784       1778.2434          8.0004          6.7504
  -7644287.28446   -343851.34046  25648182.3694   25648186.9754
       873.9224        680.9784         18.5004         16.5004
  -9578863.05246  -7331449.17046  25574337.3534   25574343.1784
      1864.6254       1452.9554         16.0004         13.7504
  -3439290.51547  -2574301.71346  24959107.4634   24959110.6624
     -3128.9374      -2438.1334         27.0004         23.2504
  -6946331.75546  -5157060.70346  26224743.6894   26224748.5644
      2099.0634       1635.6334         15.0004         12.0004
   -184561.02246      6547.96146  25665445.5334   25665450.9944
     -3599.0474      -2804.4524         16.2504         13.7504
 00  6 27  2 38  0.0100000  0  6G19G 1G22G25G16G11
  -1862388.67144   -927932.53045  27683747.6434   27683750.7604
      2277.2814       1774.5054          6.7504          5.7504
  -7670446.53046   -364235.10046  25643203.9634   25643208.2644
       870.0474        677.9594         18.5004         16.0004
  -9634647.00046  -7374917.08446  25563722.5574   25563728.0884
      1854.2814       1444.8944         17.0004         14.0004
  -3345282.32047  -2501048.58546  24976996.5724   24976999.5844
     -3138.2664      -2445.4024         27.0004         23.0004
  -7009236.12146  -5206077.01045  26212773.4004   26212777.8654
      2094.5474       1632.1144         14.5004         11.7504
    -76457.28846     90784.55646  25686017.2684   25686023.0804
     -3607.8594      -2811.3194         16.7504         13.2504
 00  6 27  2 38 30.0100000  0  6G19G 1G22G25G16G11
  -1930638.05944   -981113.64845  27670760.3774   27670768.7834
      2272.3134       1770.6334          6.2504          5.2504
  -7696493.07746   -384531.03646  25638247.2214   25638252.0024
       866.0474        674.8424         18.0004         16.2504
  -9690122.30646  -7418144.49646  25553165.5334   25553170.9714
      1843.7194       1436.6644         16.7504         14.2504
  -3250999.26647  -2427581.26546  24994938.1114   24994940.8894
     -3147.6094      -2452.6834         26.7504         22.5004
  -7072007.19946  -5254989.45246  26200827.3854   26200832.4244
      2089.8284       1628.4384         13.5004         12.0004
     31905.45146    175222.97246  25706638.5724   25706644.1974
     -3616.6724      -2818.1864         17.0004         13.2504
